﻿<?xml version="1.0" encoding="utf-8"?><gpx creator="Garmin Desktop App" version="1.1" xsi:schemaLocation="http://www.topografix.com/GPX/1/1 http://www.topografix.com/GPX/1/1/gpx.xsd http://www.garmin.com/xmlschemas/WaypointExtension/v1 http://www8.garmin.com/xmlschemas/WaypointExtensionv1.xsd http://www.garmin.com/xmlschemas/TrackPointExtension/v1 http://www.garmin.com/xmlschemas/TrackPointExtensionv1.xsd http://www.garmin.com/xmlschemas/GpxExtensions/v3 http://www8.garmin.com/xmlschemas/GpxExtensionsv3.xsd http://www.garmin.com/xmlschemas/ActivityExtension/v1 http://www8.garmin.com/xmlschemas/ActivityExtensionv1.xsd http://www.garmin.com/xmlschemas/AdventuresExtensions/v1 http://www8.garmin.com/xmlschemas/AdventuresExtensionv1.xsd http://www.garmin.com/xmlschemas/PressureExtension/v1 http://www.garmin.com/xmlschemas/PressureExtensionv1.xsd http://www.garmin.com/xmlschemas/TripExtensions/v1 http://www.garmin.com/xmlschemas/TripExtensionsv1.xsd http://www.garmin.com/xmlschemas/TripMetaDataExtensions/v1 http://www.garmin.com/xmlschemas/TripMetaDataExtensionsv1.xsd http://www.garmin.com/xmlschemas/ViaPointTransportationModeExtensions/v1 http://www.garmin.com/xmlschemas/ViaPointTransportationModeExtensionsv1.xsd http://www.garmin.com/xmlschemas/CreationTimeExtension/v1 http://www.garmin.com/xmlschemas/CreationTimeExtensionsv1.xsd http://www.garmin.com/xmlschemas/AccelerationExtension/v1 http://www.garmin.com/xmlschemas/AccelerationExtensionv1.xsd http://www.garmin.com/xmlschemas/PowerExtension/v1 http://www.garmin.com/xmlschemas/PowerExtensionv1.xsd http://www.garmin.com/xmlschemas/VideoExtension/v1 http://www.garmin.com/xmlschemas/VideoExtensionv1.xsd" xmlns="http://www.topografix.com/GPX/1/1" xmlns:xsi="http://www.w3.org/2001/XMLSchema-instance" xmlns:wptx1="http://www.garmin.com/xmlschemas/WaypointExtension/v1" xmlns:gpxtrx="http://www.garmin.com/xmlschemas/GpxExtensions/v3" xmlns:gpxtpx="http://www.garmin.com/xmlschemas/TrackPointExtension/v1" xmlns:gpxx="http://www.garmin.com/xmlschemas/GpxExtensions/v3" xmlns:trp="http://www.garmin.com/xmlschemas/TripExtensions/v1" xmlns:adv="http://www.garmin.com/xmlschemas/AdventuresExtensions/v1" xmlns:prs="http://www.garmin.com/xmlschemas/PressureExtension/v1" xmlns:tmd="http://www.garmin.com/xmlschemas/TripMetaDataExtensions/v1" xmlns:vptm="http://www.garmin.com/xmlschemas/ViaPointTransportationModeExtensions/v1" xmlns:ctx="http://www.garmin.com/xmlschemas/CreationTimeExtension/v1" xmlns:gpxacc="http://www.garmin.com/xmlschemas/AccelerationExtension/v1" xmlns:gpxpx="http://www.garmin.com/xmlschemas/PowerExtension/v1" xmlns:vidx1="http://www.garmin.com/xmlschemas/VideoExtension/v1">

  <metadata>
    <link href="http://www.garmin.com">
      <text>Garmin International</text>
    </link>
    <time>2026-04-25T20:10:49Z</time>
    <bounds maxlat="59.083380745723844" maxlon="30.030931625515223" minlat="59.063444975763559" minlon="30.009922301396728" />
  </metadata>

  <trk>
    <name>Трек</name>
    <extensions>
      <gpxx:TrackExtension>
        <gpxx:DisplayColor>Cyan</gpxx:DisplayColor>
      </gpxx:TrackExtension>
    </extensions>
    <trkseg>
      <trkpt lat="59.063446735963225" lon="30.030908910557628">
        <ele>79.450000000000003</ele>
        <time>2026-04-25T07:41:39Z</time>
      </trkpt>
      <trkpt lat="59.063552850857377" lon="30.030930200591683">
        <ele>79.450000000000003</ele>
        <time>2026-04-25T07:41:52Z</time>
      </trkpt>
      <trkpt lat="59.063555281609297" lon="30.030931625515223">
        <ele>78</ele>
        <time>2026-04-25T07:41:54Z</time>
      </trkpt>
      <trkpt lat="59.063635412603617" lon="30.030921567231417">
        <ele>78</ele>
        <time>2026-04-25T07:42:07Z</time>
      </trkpt>
      <trkpt lat="59.063637256622314" lon="30.030920393764973">
        <ele>78.969999999999999</ele>
        <time>2026-04-25T07:42:09Z</time>
      </trkpt>
      <trkpt lat="59.063700456172228" lon="30.030906479805708">
        <ele>78</ele>
        <time>2026-04-25T07:42:20Z</time>
      </trkpt>
      <trkpt lat="59.063751250505447" lon="30.030913688242435">
        <ele>77.519999999999996</ele>
        <time>2026-04-25T07:42:39Z</time>
      </trkpt>
      <trkpt lat="59.063778910785913" lon="30.030869850888848">
        <ele>78.969999999999999</ele>
        <time>2026-04-25T07:42:54Z</time>
      </trkpt>
      <trkpt lat="59.063791232183576" lon="30.030867671594024">
        <ele>78</ele>
        <time>2026-04-25T07:43:00Z</time>
      </trkpt>
      <trkpt lat="59.063805565237999" lon="30.030869599431753">
        <ele>77.519999999999996</ele>
        <time>2026-04-25T07:43:17Z</time>
      </trkpt>
      <trkpt lat="59.063831130042672" lon="30.030856104567647">
        <ele>77.519999999999996</ele>
        <time>2026-04-25T07:43:32Z</time>
      </trkpt>
      <trkpt lat="59.063859963789582" lon="30.030860379338264">
        <ele>78.480000000000004</ele>
        <time>2026-04-25T07:43:45Z</time>
      </trkpt>
      <trkpt lat="59.063880247995257" lon="30.030851326882839">
        <ele>78.480000000000004</ele>
        <time>2026-04-25T07:44:00Z</time>
      </trkpt>
      <trkpt lat="59.063903046771884" lon="30.030819391831756">
        <ele>78.969999999999999</ele>
        <time>2026-04-25T07:44:18Z</time>
      </trkpt>
      <trkpt lat="59.063911344856024" lon="30.030815117061138">
        <ele>77.519999999999996</ele>
        <time>2026-04-25T07:44:24Z</time>
      </trkpt>
      <trkpt lat="59.063970353454351" lon="30.030782008543611">
        <ele>78.969999999999999</ele>
        <time>2026-04-25T07:44:37Z</time>
      </trkpt>
      <trkpt lat="59.064016873016953" lon="30.030774297192693">
        <ele>78.969999999999999</ele>
        <time>2026-04-25T07:44:53Z</time>
      </trkpt>
      <trkpt lat="59.06407194212079" lon="30.03074680455029">
        <ele>77.519999999999996</ele>
        <time>2026-04-25T07:45:08Z</time>
      </trkpt>
      <trkpt lat="59.064122568815947" lon="30.030715791508555">
        <ele>77.519999999999996</ele>
        <time>2026-04-25T07:45:22Z</time>
      </trkpt>
      <trkpt lat="59.064178057014942" lon="30.03067983314395">
        <ele>78.969999999999999</ele>
        <time>2026-04-25T07:45:34Z</time>
      </trkpt>
      <trkpt lat="59.064342929050326" lon="30.03057966940105">
        <ele>78.969999999999999</ele>
        <time>2026-04-25T07:45:48Z</time>
      </trkpt>
      <trkpt lat="59.064421132206917" lon="30.030542118474841">
        <ele>78.969999999999999</ele>
        <time>2026-04-25T07:46:02Z</time>
      </trkpt>
      <trkpt lat="59.064507465809584" lon="30.030532730743289">
        <ele>79.450000000000003</ele>
        <time>2026-04-25T07:46:15Z</time>
      </trkpt>
      <trkpt lat="59.064612658694386" lon="30.03052644431591">
        <ele>78.480000000000004</ele>
        <time>2026-04-25T07:46:31Z</time>
      </trkpt>
      <trkpt lat="59.0646240580827" lon="30.030525354668498">
        <ele>79.930000000000007</ele>
        <time>2026-04-25T07:46:37Z</time>
      </trkpt>
      <trkpt lat="59.064701506868005" lon="30.030506160110235">
        <ele>78.480000000000004</ele>
        <time>2026-04-25T07:46:49Z</time>
      </trkpt>
      <trkpt lat="59.064767053350806" lon="30.030450588092208">
        <ele>78</ele>
        <time>2026-04-25T07:47:05Z</time>
      </trkpt>
      <trkpt lat="59.064951706677675" lon="30.030403062701225">
        <ele>78</ele>
        <time>2026-04-25T07:47:22Z</time>
      </trkpt>
      <trkpt lat="59.06503938138485" lon="30.030355453491211">
        <ele>79.450000000000003</ele>
        <time>2026-04-25T07:47:30Z</time>
      </trkpt>
      <trkpt lat="59.065096629783511" lon="30.030345898121595">
        <ele>78.969999999999999</ele>
        <time>2026-04-25T07:47:46Z</time>
      </trkpt>
      <trkpt lat="59.065141556784511" lon="30.030322009697556">
        <ele>78.969999999999999</ele>
        <time>2026-04-25T07:48:02Z</time>
      </trkpt>
      <trkpt lat="59.065154548734426" lon="30.03030264750123">
        <ele>78.969999999999999</ele>
        <time>2026-04-25T07:48:25Z</time>
      </trkpt>
      <trkpt lat="59.065157482400537" lon="30.030289739370346">
        <ele>78.480000000000004</ele>
        <time>2026-04-25T07:48:46Z</time>
      </trkpt>
      <trkpt lat="59.06516645103693" lon="30.030289487913251">
        <ele>79.930000000000007</ele>
        <time>2026-04-25T07:48:59Z</time>
      </trkpt>
      <trkpt lat="59.06516837887466" lon="30.030300635844469">
        <ele>78.480000000000004</ele>
        <time>2026-04-25T07:49:19Z</time>
      </trkpt>
      <trkpt lat="59.065179275348783" lon="30.03029870800674">
        <ele>78.480000000000004</ele>
        <time>2026-04-25T07:49:24Z</time>
      </trkpt>
      <trkpt lat="59.06527834944427" lon="30.030298037454486">
        <ele>78.480000000000004</ele>
        <time>2026-04-25T07:49:36Z</time>
      </trkpt>
      <trkpt lat="59.065370969474316" lon="30.030239867046475">
        <ele>78.480000000000004</ele>
        <time>2026-04-25T07:49:46Z</time>
      </trkpt>
      <trkpt lat="59.06545034609735" lon="30.030189827084541">
        <ele>79.930000000000007</ele>
        <time>2026-04-25T07:49:55Z</time>
      </trkpt>
      <trkpt lat="59.065515054389834" lon="30.030209859833121">
        <ele>79.930000000000007</ele>
        <time>2026-04-25T07:50:14Z</time>
      </trkpt>
      <trkpt lat="59.065609853714705" lon="30.030257971957326">
        <ele>78.969999999999999</ele>
        <time>2026-04-25T07:50:35Z</time>
      </trkpt>
      <trkpt lat="59.06565167941153" lon="30.030273897573352">
        <ele>78.969999999999999</ele>
        <time>2026-04-25T07:50:59Z</time>
      </trkpt>
      <trkpt lat="59.065661821514368" lon="30.030257971957326">
        <ele>79.450000000000003</ele>
        <time>2026-04-25T07:51:22Z</time>
      </trkpt>
      <trkpt lat="59.065681183710694" lon="30.030240369960666">
        <ele>78.480000000000004</ele>
        <time>2026-04-25T07:51:35Z</time>
      </trkpt>
      <trkpt lat="59.065706329420209" lon="30.030220085754991">
        <ele>78.480000000000004</ele>
        <time>2026-04-25T07:51:49Z</time>
      </trkpt>
      <trkpt lat="59.06570884399116" lon="30.030217906460166">
        <ele>79.450000000000003</ele>
        <time>2026-04-25T07:51:51Z</time>
      </trkpt>
      <trkpt lat="59.065731726586819" lon="30.030197203159332">
        <ele>78.480000000000004</ele>
        <time>2026-04-25T07:52:07Z</time>
      </trkpt>
      <trkpt lat="59.06575963832438" lon="30.030167950317264">
        <ele>78.480000000000004</ele>
        <time>2026-04-25T07:52:21Z</time>
      </trkpt>
      <trkpt lat="59.065781179815531" lon="30.030159568414092">
        <ele>78.480000000000004</ele>
        <time>2026-04-25T07:52:24Z</time>
      </trkpt>
      <trkpt lat="59.065861646085978" lon="30.030085723847151">
        <ele>78.480000000000004</ele>
        <time>2026-04-25T07:52:35Z</time>
      </trkpt>
      <trkpt lat="59.065920235589147" lon="30.030034510418773">
        <ele>79.930000000000007</ele>
        <time>2026-04-25T07:52:41Z</time>
      </trkpt>
      <trkpt lat="59.066109582781792" lon="30.030035683885217">
        <ele>79.930000000000007</ele>
        <time>2026-04-25T07:52:58Z</time>
      </trkpt>
      <trkpt lat="59.066156269982457" lon="30.030015399679542">
        <ele>78.480000000000004</ele>
        <time>2026-04-25T07:53:10Z</time>
      </trkpt>
      <trkpt lat="59.066171776503325" lon="30.029999809339643">
        <ele>78.480000000000004</ele>
        <time>2026-04-25T07:53:13Z</time>
      </trkpt>
      <trkpt lat="59.066206645220518" lon="30.029910039156675">
        <ele>78.969999999999999</ele>
        <time>2026-04-25T07:53:24Z</time>
      </trkpt>
      <trkpt lat="59.066208908334374" lon="30.029909955337644">
        <ele>78.969999999999999</ele>
        <time>2026-04-25T07:53:25Z</time>
      </trkpt>
      <trkpt lat="59.066279819235206" lon="30.029934095218778">
        <ele>78.969999999999999</ele>
        <time>2026-04-25T07:53:38Z</time>
      </trkpt>
      <trkpt lat="59.066328685730696" lon="30.029900819063187">
        <ele>78.969999999999999</ele>
        <time>2026-04-25T07:53:49Z</time>
      </trkpt>
      <trkpt lat="59.066349053755403" lon="30.02991029061377">
        <ele>78.969999999999999</ele>
        <time>2026-04-25T07:53:58Z</time>
      </trkpt>
      <trkpt lat="59.066380485892296" lon="30.029917415231466">
        <ele>78.969999999999999</ele>
        <time>2026-04-25T07:54:02Z</time>
      </trkpt>
      <trkpt lat="59.066449971869588" lon="30.029912469908595">
        <ele>78.480000000000004</ele>
        <time>2026-04-25T07:54:13Z</time>
      </trkpt>
      <trkpt lat="59.066499508917332" lon="30.029894364997745">
        <ele>78.480000000000004</ele>
        <time>2026-04-25T07:54:27Z</time>
      </trkpt>
      <trkpt lat="59.066513422876596" lon="30.029890676960349">
        <ele>79.450000000000003</ele>
        <time>2026-04-25T07:54:40Z</time>
      </trkpt>
      <trkpt lat="59.066579639911652" lon="30.0297895912081">
        <ele>79.450000000000003</ele>
        <time>2026-04-25T07:54:51Z</time>
      </trkpt>
      <trkpt lat="59.066647617146373" lon="30.029737036675215">
        <ele>79.450000000000003</ele>
        <time>2026-04-25T07:54:58Z</time>
      </trkpt>
      <trkpt lat="59.06680092215538" lon="30.029772575944662">
        <ele>79.450000000000003</ele>
        <time>2026-04-25T07:55:11Z</time>
      </trkpt>
      <trkpt lat="59.067016169428825" lon="30.029805852100253">
        <ele>79.450000000000003</ele>
        <time>2026-04-25T07:55:27Z</time>
      </trkpt>
      <trkpt lat="59.067109376192093" lon="30.029790932312608">
        <ele>80.409999999999997</ele>
        <time>2026-04-25T07:55:39Z</time>
      </trkpt>
      <trkpt lat="59.067117841914296" lon="30.029774839058518">
        <ele>78.969999999999999</ele>
        <time>2026-04-25T07:55:44Z</time>
      </trkpt>
      <trkpt lat="59.067156901583076" lon="30.029728235676885">
        <ele>78.969999999999999</ele>
        <time>2026-04-25T07:56:01Z</time>
      </trkpt>
      <trkpt lat="59.067156817764044" lon="30.029726224020123">
        <ele>78.969999999999999</ele>
        <time>2026-04-25T07:56:04Z</time>
      </trkpt>
      <trkpt lat="59.067241139709949" lon="30.029706191271544">
        <ele>78.969999999999999</ele>
        <time>2026-04-25T07:56:12Z</time>
      </trkpt>
      <trkpt lat="59.067334597930312" lon="30.029681716114283">
        <ele>80.890000000000001</ele>
        <time>2026-04-25T07:56:21Z</time>
      </trkpt>
      <trkpt lat="59.067371813580394" lon="30.029703425243497">
        <ele>80.890000000000001</ele>
        <time>2026-04-25T07:56:26Z</time>
      </trkpt>
      <trkpt lat="59.067471558228135" lon="30.029656486585736">
        <ele>80.890000000000001</ele>
        <time>2026-04-25T07:56:39Z</time>
      </trkpt>
      <trkpt lat="59.067511036992073" lon="30.02961759455502">
        <ele>79.450000000000003</ele>
        <time>2026-04-25T07:56:45Z</time>
      </trkpt>
      <trkpt lat="59.067643973976374" lon="30.029536625370383">
        <ele>79.450000000000003</ele>
        <time>2026-04-25T07:57:01Z</time>
      </trkpt>
      <trkpt lat="59.067727038636804" lon="30.029497649520636">
        <ele>79.450000000000003</ele>
        <time>2026-04-25T07:57:17Z</time>
      </trkpt>
      <trkpt lat="59.067835416644812" lon="30.029480801895261">
        <ele>79.450000000000003</ele>
        <time>2026-04-25T07:57:27Z</time>
      </trkpt>
      <trkpt lat="59.067918565124273" lon="30.029500750824809">
        <ele>80.890000000000001</ele>
        <time>2026-04-25T07:57:34Z</time>
      </trkpt>
      <trkpt lat="59.068070109933615" lon="30.029509048908949">
        <ele>81.370000000000005</ele>
        <time>2026-04-25T07:57:50Z</time>
      </trkpt>
      <trkpt lat="59.068114198744297" lon="30.02948759123683">
        <ele>81.370000000000005</ele>
        <time>2026-04-25T07:57:59Z</time>
      </trkpt>
      <trkpt lat="59.068294074386358" lon="30.029408130794764">
        <ele>81.370000000000005</ele>
        <time>2026-04-25T07:58:14Z</time>
      </trkpt>
      <trkpt lat="59.06849205493927" lon="30.029329424723983">
        <ele>81.370000000000005</ele>
        <time>2026-04-25T07:58:29Z</time>
      </trkpt>
      <trkpt lat="59.068581657484174" lon="30.029303440824151">
        <ele>81.849999999999994</ele>
        <time>2026-04-25T07:58:38Z</time>
      </trkpt>
      <trkpt lat="59.068647539243102" lon="30.029289778321981">
        <ele>81.849999999999994</ele>
        <time>2026-04-25T07:58:42Z</time>
      </trkpt>
      <trkpt lat="59.068849543109536" lon="30.029250802472234">
        <ele>82.329999999999998</ele>
        <time>2026-04-25T07:59:00Z</time>
      </trkpt>
      <trkpt lat="59.068975020200014" lon="30.029188022017479">
        <ele>83.290000000000006</ele>
        <time>2026-04-25T07:59:09Z</time>
      </trkpt>
      <trkpt lat="59.069211892783642" lon="30.029082661494613">
        <ele>83.290000000000006</ele>
        <time>2026-04-25T07:59:23Z</time>
      </trkpt>
      <trkpt lat="59.069373747333884" lon="30.028963722288609">
        <ele>83.290000000000006</ele>
        <time>2026-04-25T07:59:37Z</time>
      </trkpt>
      <trkpt lat="59.06940090470016" lon="30.028947880491614">
        <ele>83.290000000000006</ele>
        <time>2026-04-25T07:59:40Z</time>
      </trkpt>
      <trkpt lat="59.069455973803997" lon="30.028927428647876">
        <ele>83.290000000000006</ele>
        <time>2026-04-25T07:59:43Z</time>
      </trkpt>
      <trkpt lat="59.069596203044057" lon="30.028808237984776">
        <ele>83.769999999999996</ele>
        <time>2026-04-25T07:59:57Z</time>
      </trkpt>
      <trkpt lat="59.069847576320171" lon="30.028790384531021">
        <ele>83.769999999999996</ele>
        <time>2026-04-25T08:00:14Z</time>
      </trkpt>
      <trkpt lat="59.069961905479431" lon="30.028763730078936">
        <ele>84.25</ele>
        <time>2026-04-25T08:00:26Z</time>
      </trkpt>
      <trkpt lat="59.070104984566569" lon="30.028673708438873">
        <ele>82.810000000000002</ele>
        <time>2026-04-25T08:00:39Z</time>
      </trkpt>
      <trkpt lat="59.070326769724488" lon="30.028600031509995">
        <ele>83.769999999999996</ele>
        <time>2026-04-25T08:00:55Z</time>
      </trkpt>
      <trkpt lat="59.070466915145516" lon="30.028560804203153">
        <ele>82.810000000000002</ele>
        <time>2026-04-25T08:01:03Z</time>
      </trkpt>
      <trkpt lat="59.070665147155523" lon="30.028460556641221">
        <ele>82.810000000000002</ele>
        <time>2026-04-25T08:01:20Z</time>
      </trkpt>
      <trkpt lat="59.070835299789906" lon="30.028435494750738">
        <ele>82.810000000000002</ele>
        <time>2026-04-25T08:01:36Z</time>
      </trkpt>
      <trkpt lat="59.070983324199915" lon="30.028392747044563">
        <ele>84.25</ele>
        <time>2026-04-25T08:01:51Z</time>
      </trkpt>
      <trkpt lat="59.071023389697075" lon="30.028368690982461">
        <ele>82.810000000000002</ele>
        <time>2026-04-25T08:01:54Z</time>
      </trkpt>
      <trkpt lat="59.07118147239089" lon="30.028293002396822">
        <ele>81.370000000000005</ele>
        <time>2026-04-25T08:02:08Z</time>
      </trkpt>
      <trkpt lat="59.071289096027613" lon="30.028263246640563">
        <ele>82.810000000000002</ele>
        <time>2026-04-25T08:02:20Z</time>
      </trkpt>
      <trkpt lat="59.071343410760164" lon="30.028237514197826">
        <ele>82.810000000000002</ele>
        <time>2026-04-25T08:02:25Z</time>
      </trkpt>
      <trkpt lat="59.071374675258994" lon="30.028245560824871">
        <ele>82.810000000000002</ele>
        <time>2026-04-25T08:02:27Z</time>
      </trkpt>
      <trkpt lat="59.071559244766831" lon="30.02818588167429">
        <ele>82.810000000000002</ele>
        <time>2026-04-25T08:02:45Z</time>
      </trkpt>
      <trkpt lat="59.071626886725426" lon="30.028166016563773">
        <ele>81.370000000000005</ele>
        <time>2026-04-25T08:03:01Z</time>
      </trkpt>
      <trkpt lat="59.071792513132095" lon="30.028106672689319">
        <ele>81.370000000000005</ele>
        <time>2026-04-25T08:03:16Z</time>
      </trkpt>
      <trkpt lat="59.071815479546785" lon="30.028100302442908">
        <ele>82.810000000000002</ele>
        <time>2026-04-25T08:03:18Z</time>
      </trkpt>
      <trkpt lat="59.071954535320401" lon="30.02809502184391">
        <ele>82.810000000000002</ele>
        <time>2026-04-25T08:03:34Z</time>
      </trkpt>
      <trkpt lat="59.071967024356127" lon="30.028098123148084">
        <ele>81.370000000000005</ele>
        <time>2026-04-25T08:03:36Z</time>
      </trkpt>
      <trkpt lat="59.072084538638592" lon="30.028043473139405">
        <ele>81.370000000000005</ele>
        <time>2026-04-25T08:03:47Z</time>
      </trkpt>
      <trkpt lat="59.072199538350105" lon="30.027978764846921">
        <ele>81.370000000000005</ele>
        <time>2026-04-25T08:03:57Z</time>
      </trkpt>
      <trkpt lat="59.072329457849264" lon="30.02794599160552">
        <ele>80.890000000000001</ele>
        <time>2026-04-25T08:04:09Z</time>
      </trkpt>
      <trkpt lat="59.072481924667954" lon="30.027875415980816">
        <ele>82.329999999999998</ele>
        <time>2026-04-25T08:04:25Z</time>
      </trkpt>
      <trkpt lat="59.072676049545407" lon="30.02781649120152">
        <ele>83.290000000000006</ele>
        <time>2026-04-25T08:04:39Z</time>
      </trkpt>
      <trkpt lat="59.072821224108338" lon="30.027751196175814">
        <ele>83.290000000000006</ele>
        <time>2026-04-25T08:04:53Z</time>
      </trkpt>
      <trkpt lat="59.073006547987461" lon="30.027596550062299">
        <ele>81.849999999999994</ele>
        <time>2026-04-25T08:05:12Z</time>
      </trkpt>
      <trkpt lat="59.073051558807492" lon="30.027559669688344">
        <ele>81.849999999999994</ele>
        <time>2026-04-25T08:05:27Z</time>
      </trkpt>
      <trkpt lat="59.07306513749063" lon="30.027587665244937">
        <ele>81.370000000000005</ele>
        <time>2026-04-25T08:05:44Z</time>
      </trkpt>
      <trkpt lat="59.07306857407093" lon="30.027593281120062">
        <ele>81.370000000000005</ele>
        <time>2026-04-25T08:05:59Z</time>
      </trkpt>
      <trkpt lat="59.073070082813501" lon="30.02759512513876">
        <ele>82.810000000000002</ele>
        <time>2026-04-25T08:06:04Z</time>
      </trkpt>
      <trkpt lat="59.073073100298643" lon="30.027535445988178">
        <ele>82.810000000000002</ele>
        <time>2026-04-25T08:06:15Z</time>
      </trkpt>
      <trkpt lat="59.073068909347057" lon="30.027447352185845">
        <ele>81.849999999999994</ele>
        <time>2026-04-25T08:06:29Z</time>
      </trkpt>
      <trkpt lat="59.073029262945056" lon="30.027029346674681">
        <ele>81.370000000000005</ele>
        <time>2026-04-25T08:06:44Z</time>
      </trkpt>
      <trkpt lat="59.073003698140383" lon="30.026753079146147">
        <ele>81.370000000000005</ele>
        <time>2026-04-25T08:06:53Z</time>
      </trkpt>
      <trkpt lat="59.072992717847228" lon="30.026590889319777">
        <ele>81.370000000000005</ele>
        <time>2026-04-25T08:07:04Z</time>
      </trkpt>
      <trkpt lat="59.072979977354407" lon="30.026465579867363">
        <ele>82.329999999999998</ele>
        <time>2026-04-25T08:07:13Z</time>
      </trkpt>
      <trkpt lat="59.072981318458915" lon="30.02639165148139">
        <ele>82.329999999999998</ele>
        <time>2026-04-25T08:07:17Z</time>
      </trkpt>
      <trkpt lat="59.072964219376445" lon="30.026284446939826">
        <ele>82.329999999999998</ele>
        <time>2026-04-25T08:07:25Z</time>
      </trkpt>
      <trkpt lat="59.072950473055243" lon="30.025982949882746">
        <ele>81.370000000000005</ele>
        <time>2026-04-25T08:07:39Z</time>
      </trkpt>
      <trkpt lat="59.072905294597149" lon="30.025655552744865">
        <ele>80.890000000000001</ele>
        <time>2026-04-25T08:07:53Z</time>
      </trkpt>
      <trkpt lat="59.072899678722024" lon="30.025451285764575">
        <ele>80.890000000000001</ele>
        <time>2026-04-25T08:08:05Z</time>
      </trkpt>
      <trkpt lat="59.072893727570772" lon="30.025426978245378">
        <ele>80.890000000000001</ele>
        <time>2026-04-25T08:08:07Z</time>
      </trkpt>
      <trkpt lat="59.072845280170441" lon="30.025269230827689">
        <ele>80.890000000000001</ele>
        <time>2026-04-25T08:08:20Z</time>
      </trkpt>
      <trkpt lat="59.072812339290977" lon="30.025046523660421">
        <ele>80.890000000000001</ele>
        <time>2026-04-25T08:08:34Z</time>
      </trkpt>
      <trkpt lat="59.072785433381796" lon="30.024933535605669">
        <ele>80.890000000000001</ele>
        <time>2026-04-25T08:08:50Z</time>
      </trkpt>
      <trkpt lat="59.072784008458257" lon="30.024918364360929">
        <ele>80.409999999999997</ele>
        <time>2026-04-25T08:08:54Z</time>
      </trkpt>
      <trkpt lat="59.072770932689309" lon="30.024850973859429">
        <ele>80.409999999999997</ele>
        <time>2026-04-25T08:08:57Z</time>
      </trkpt>
      <trkpt lat="59.072725586593151" lon="30.024532293900847">
        <ele>79.930000000000007</ele>
        <time>2026-04-25T08:09:10Z</time>
      </trkpt>
      <trkpt lat="59.072719048708677" lon="30.024500442668796">
        <ele>79.930000000000007</ele>
        <time>2026-04-25T08:09:12Z</time>
      </trkpt>
      <trkpt lat="59.072702284902334" lon="30.024352166801691">
        <ele>80.890000000000001</ele>
        <time>2026-04-25T08:09:27Z</time>
      </trkpt>
      <trkpt lat="59.072701027616858" lon="30.024347472935915">
        <ele>79.930000000000007</ele>
        <time>2026-04-25T08:09:32Z</time>
      </trkpt>
      <trkpt lat="59.072693735361099" lon="30.02431595697999">
        <ele>79.930000000000007</ele>
        <time>2026-04-25T08:09:47Z</time>
      </trkpt>
      <trkpt lat="59.072689628228545" lon="30.024294666945934">
        <ele>79.930000000000007</ele>
        <time>2026-04-25T08:09:48Z</time>
      </trkpt>
      <trkpt lat="59.072635900229216" lon="30.023983279243112">
        <ele>81.370000000000005</ele>
        <time>2026-04-25T08:10:02Z</time>
      </trkpt>
      <trkpt lat="59.072612598538399" lon="30.023686056956649">
        <ele>81.370000000000005</ele>
        <time>2026-04-25T08:10:15Z</time>
      </trkpt>
      <trkpt lat="59.072606898844242" lon="30.02364263869822">
        <ele>79.930000000000007</ele>
        <time>2026-04-25T08:10:18Z</time>
      </trkpt>
      <trkpt lat="59.072598181664944" lon="30.023562172427773">
        <ele>79.930000000000007</ele>
        <time>2026-04-25T08:10:23Z</time>
      </trkpt>
      <trkpt lat="59.072584183886647" lon="30.023476257920265">
        <ele>79.930000000000007</ele>
        <time>2026-04-25T08:10:27Z</time>
      </trkpt>
      <trkpt lat="59.072569515556097" lon="30.023357989266515">
        <ele>79.930000000000007</ele>
        <time>2026-04-25T08:10:32Z</time>
      </trkpt>
      <trkpt lat="59.072553589940071" lon="30.023146262392402">
        <ele>79.930000000000007</ele>
        <time>2026-04-25T08:10:41Z</time>
      </trkpt>
      <trkpt lat="59.072577226907015" lon="30.022918861359358">
        <ele>81.370000000000005</ele>
        <time>2026-04-25T08:10:51Z</time>
      </trkpt>
      <trkpt lat="59.07258820720017" lon="30.02284518443048">
        <ele>81.370000000000005</ele>
        <time>2026-04-25T08:10:58Z</time>
      </trkpt>
      <trkpt lat="59.072590721771121" lon="30.022805286571383">
        <ele>79.930000000000007</ele>
        <time>2026-04-25T08:11:00Z</time>
      </trkpt>
      <trkpt lat="59.0725779812783" lon="30.02275038510561">
        <ele>79.930000000000007</ele>
        <time>2026-04-25T08:11:03Z</time>
      </trkpt>
      <trkpt lat="59.072574879974127" lon="30.022648209705949">
        <ele>79.930000000000007</ele>
        <time>2026-04-25T08:11:09Z</time>
      </trkpt>
      <trkpt lat="59.072587452828884" lon="30.022576712071896">
        <ele>81.849999999999994</ele>
        <time>2026-04-25T08:11:15Z</time>
      </trkpt>
      <trkpt lat="59.072584351524711" lon="30.02254762686789">
        <ele>80.409999999999997</ele>
        <time>2026-04-25T08:11:18Z</time>
      </trkpt>
      <trkpt lat="59.07258041203022" lon="30.022482331842184">
        <ele>80.409999999999997</ele>
        <time>2026-04-25T08:11:22Z</time>
      </trkpt>
      <trkpt lat="59.072578568011522" lon="30.022403625771403">
        <ele>80.409999999999997</ele>
        <time>2026-04-25T08:11:25Z</time>
      </trkpt>
      <trkpt lat="59.072584016248584" lon="30.022350987419486">
        <ele>81.849999999999994</ele>
        <time>2026-04-25T08:11:32Z</time>
      </trkpt>
      <trkpt lat="59.072594996541739" lon="30.022308826446533">
        <ele>80.409999999999997</ele>
        <time>2026-04-25T08:11:41Z</time>
      </trkpt>
      <trkpt lat="59.072592733427882" lon="30.022244537249207">
        <ele>80.409999999999997</ele>
        <time>2026-04-25T08:11:49Z</time>
      </trkpt>
      <trkpt lat="59.072604132816195" lon="30.02207312732935">
        <ele>80.409999999999997</ele>
        <time>2026-04-25T08:11:56Z</time>
      </trkpt>
      <trkpt lat="59.072609916329384" lon="30.021952344104648">
        <ele>81.370000000000005</ele>
        <time>2026-04-25T08:12:03Z</time>
      </trkpt>
      <trkpt lat="59.072613604366779" lon="30.021917978301644">
        <ele>81.370000000000005</ele>
        <time>2026-04-25T08:12:05Z</time>
      </trkpt>
      <trkpt lat="59.072626763954759" lon="30.021612206473947">
        <ele>81.370000000000005</ele>
        <time>2026-04-25T08:12:21Z</time>
      </trkpt>
      <trkpt lat="59.072622489184141" lon="30.021567028015852">
        <ele>79.930000000000007</ele>
        <time>2026-04-25T08:12:23Z</time>
      </trkpt>
      <trkpt lat="59.072625590488315" lon="30.021465523168445">
        <ele>79.930000000000007</ele>
        <time>2026-04-25T08:12:28Z</time>
      </trkpt>
      <trkpt lat="59.072627350687981" lon="30.021324707195163">
        <ele>79.930000000000007</ele>
        <time>2026-04-25T08:12:42Z</time>
      </trkpt>
      <trkpt lat="59.072624333202839" lon="30.021308194845915">
        <ele>79.930000000000007</ele>
        <time>2026-04-25T08:12:43Z</time>
      </trkpt>
      <trkpt lat="59.072620309889317" lon="30.021170061081648">
        <ele>79.930000000000007</ele>
        <time>2026-04-25T08:12:49Z</time>
      </trkpt>
      <trkpt lat="59.072641935199499" lon="30.020837299525738">
        <ele>79.450000000000003</ele>
        <time>2026-04-25T08:13:04Z</time>
      </trkpt>
      <trkpt lat="59.072621064260602" lon="30.02072649076581">
        <ele>79.450000000000003</ele>
        <time>2026-04-25T08:13:11Z</time>
      </trkpt>
      <trkpt lat="59.07260337844491" lon="30.020578801631927">
        <ele>79.450000000000003</ele>
        <time>2026-04-25T08:13:25Z</time>
      </trkpt>
      <trkpt lat="59.072612430900335" lon="30.020608138293028">
        <ele>80.409999999999997</ele>
        <time>2026-04-25T08:13:38Z</time>
      </trkpt>
      <trkpt lat="59.072615280747414" lon="30.020610401406884">
        <ele>80.890000000000001</ele>
        <time>2026-04-25T08:14:01Z</time>
      </trkpt>
      <trkpt lat="59.072616789489985" lon="30.020613167434931">
        <ele>79.450000000000003</ele>
        <time>2026-04-25T08:14:07Z</time>
      </trkpt>
      <trkpt lat="59.072617711499333" lon="30.020615765824914">
        <ele>78.969999999999999</ele>
        <time>2026-04-25T08:14:35Z</time>
      </trkpt>
      <trkpt lat="59.072614861652255" lon="30.020627081394196">
        <ele>78.969999999999999</ele>
        <time>2026-04-25T08:14:52Z</time>
      </trkpt>
      <trkpt lat="59.072612430900335" lon="30.020624315366149">
        <ele>80.409999999999997</ele>
        <time>2026-04-25T08:14:59Z</time>
      </trkpt>
      <trkpt lat="59.072607485577464" lon="30.020613586530089">
        <ele>80.409999999999997</ele>
        <time>2026-04-25T08:15:27Z</time>
      </trkpt>
      <trkpt lat="59.072594745084643" lon="30.020533790811896">
        <ele>78.480000000000004</ele>
        <time>2026-04-25T08:15:42Z</time>
      </trkpt>
      <trkpt lat="59.072571694850922" lon="30.02035073004663">
        <ele>78.480000000000004</ele>
        <time>2026-04-25T08:15:55Z</time>
      </trkpt>
      <trkpt lat="59.072565827518702" lon="30.020283171907067">
        <ele>78.480000000000004</ele>
        <time>2026-04-25T08:15:57Z</time>
      </trkpt>
      <trkpt lat="59.072565827518702" lon="30.020197257399559">
        <ele>78.480000000000004</ele>
        <time>2026-04-25T08:16:00Z</time>
      </trkpt>
      <trkpt lat="59.072537161409855" lon="30.02004194073379">
        <ele>79.930000000000007</ele>
        <time>2026-04-25T08:16:08Z</time>
      </trkpt>
      <trkpt lat="59.072539005428553" lon="30.019958037883043">
        <ele>80.409999999999997</ele>
        <time>2026-04-25T08:16:11Z</time>
      </trkpt>
      <trkpt lat="59.072523163631558" lon="30.019847229123116">
        <ele>80.409999999999997</ele>
        <time>2026-04-25T08:16:17Z</time>
      </trkpt>
      <trkpt lat="59.072498185560107" lon="30.019767936319113">
        <ele>78.969999999999999</ele>
        <time>2026-04-25T08:16:23Z</time>
      </trkpt>
      <trkpt lat="59.072482427582145" lon="30.01971110701561">
        <ele>80.409999999999997</ele>
        <time>2026-04-25T08:16:30Z</time>
      </trkpt>
      <trkpt lat="59.07246021553874" lon="30.019650170579553">
        <ele>80.890000000000001</ele>
        <time>2026-04-25T08:16:33Z</time>
      </trkpt>
      <trkpt lat="59.072407074272633" lon="30.019452525302768">
        <ele>80.890000000000001</ele>
        <time>2026-04-25T08:16:45Z</time>
      </trkpt>
      <trkpt lat="59.072389136999846" lon="30.019396198913455">
        <ele>80.890000000000001</ele>
        <time>2026-04-25T08:16:50Z</time>
      </trkpt>
      <trkpt lat="59.072375390678644" lon="30.019363174214959">
        <ele>79.930000000000007</ele>
        <time>2026-04-25T08:16:52Z</time>
      </trkpt>
      <trkpt lat="59.072353849187493" lon="30.019266530871391">
        <ele>81.370000000000005</ele>
        <time>2026-04-25T08:16:58Z</time>
      </trkpt>
      <trkpt lat="59.072338258847594" lon="30.019205845892429">
        <ele>81.370000000000005</ele>
        <time>2026-04-25T08:17:01Z</time>
      </trkpt>
      <trkpt lat="59.07223884947598" lon="30.018839053809643">
        <ele>81.370000000000005</ele>
        <time>2026-04-25T08:17:16Z</time>
      </trkpt>
      <trkpt lat="59.072188390418887" lon="30.018419120460749">
        <ele>81.370000000000005</ele>
        <time>2026-04-25T08:17:33Z</time>
      </trkpt>
      <trkpt lat="59.072179840877652" lon="30.018276628106833">
        <ele>81.370000000000005</ele>
        <time>2026-04-25T08:17:45Z</time>
      </trkpt>
      <trkpt lat="59.072161735966802" lon="30.018041850998998">
        <ele>81.370000000000005</ele>
        <time>2026-04-25T08:17:58Z</time>
      </trkpt>
      <trkpt lat="59.072137596085668" lon="30.017791483551264">
        <ele>81.370000000000005</ele>
        <time>2026-04-25T08:18:08Z</time>
      </trkpt>
      <trkpt lat="59.07213524915278" lon="30.017689811065793">
        <ele>81.370000000000005</ele>
        <time>2026-04-25T08:18:12Z</time>
      </trkpt>
      <trkpt lat="59.072121502831578" lon="30.017466936260462">
        <ele>80.890000000000001</ele>
        <time>2026-04-25T08:18:22Z</time>
      </trkpt>
      <trkpt lat="59.072126029059291" lon="30.017235176637769">
        <ele>80.409999999999997</ele>
        <time>2026-04-25T08:18:34Z</time>
      </trkpt>
      <trkpt lat="59.072133153676987" lon="30.017119087278843">
        <ele>81.849999999999994</ele>
        <time>2026-04-25T08:18:44Z</time>
      </trkpt>
      <trkpt lat="59.072134830057621" lon="30.017113890498877">
        <ele>80.890000000000001</ele>
        <time>2026-04-25T08:18:48Z</time>
      </trkpt>
      <trkpt lat="59.072134075686336" lon="30.017119254916906">
        <ele>80.890000000000001</ele>
        <time>2026-04-25T08:19:08Z</time>
      </trkpt>
      <trkpt lat="59.072134327143431" lon="30.017120176926255">
        <ele>81.849999999999994</ele>
        <time>2026-04-25T08:19:18Z</time>
      </trkpt>
      <trkpt lat="59.072134746238589" lon="30.017111040651798">
        <ele>81.849999999999994</ele>
        <time>2026-04-25T08:19:41Z</time>
      </trkpt>
      <trkpt lat="59.072132399305701" lon="30.017115399241447">
        <ele>80.409999999999997</ele>
        <time>2026-04-25T08:19:59Z</time>
      </trkpt>
      <trkpt lat="59.072130555287004" lon="30.017122020944953">
        <ele>81.370000000000005</ele>
        <time>2026-04-25T08:20:22Z</time>
      </trkpt>
      <trkpt lat="59.072131896391511" lon="30.017116153612733">
        <ele>81.370000000000005</ele>
        <time>2026-04-25T08:20:36Z</time>
      </trkpt>
      <trkpt lat="59.07213868573308" lon="30.017103999853134">
        <ele>81.370000000000005</ele>
        <time>2026-04-25T08:20:49Z</time>
      </trkpt>
      <trkpt lat="59.072157880291343" lon="30.017007775604725">
        <ele>81.370000000000005</ele>
        <time>2026-04-25T08:20:59Z</time>
      </trkpt>
      <trkpt lat="59.072139104828238" lon="30.016926387324929">
        <ele>81.370000000000005</ele>
        <time>2026-04-25T08:21:11Z</time>
      </trkpt>
      <trkpt lat="59.072145475074649" lon="30.016924543306231">
        <ele>79.930000000000007</ele>
        <time>2026-04-25T08:21:36Z</time>
      </trkpt>
      <trkpt lat="59.072139943018556" lon="30.016912389546633">
        <ele>81.370000000000005</ele>
        <time>2026-04-25T08:21:55Z</time>
      </trkpt>
      <trkpt lat="59.072134662419558" lon="30.016908617690206">
        <ele>81.370000000000005</ele>
        <time>2026-04-25T08:22:11Z</time>
      </trkpt>
      <trkpt lat="59.072134997695684" lon="30.016912641003728">
        <ele>81.370000000000005</ele>
        <time>2026-04-25T08:22:22Z</time>
      </trkpt>
      <trkpt lat="59.072143211960793" lon="30.016964776441455">
        <ele>81.370000000000005</ele>
        <time>2026-04-25T08:22:43Z</time>
      </trkpt>
      <trkpt lat="59.072134494781494" lon="30.016982043161988">
        <ele>80.409999999999997</ele>
        <time>2026-04-25T08:22:49Z</time>
      </trkpt>
      <trkpt lat="59.072138350456953" lon="30.0170055963099">
        <ele>80.409999999999997</ele>
        <time>2026-04-25T08:22:50Z</time>
      </trkpt>
      <trkpt lat="59.072116389870644" lon="30.017055720090866">
        <ele>80.409999999999997</ele>
        <time>2026-04-25T08:23:07Z</time>
      </trkpt>
      <trkpt lat="59.072114210575819" lon="30.017046835273504">
        <ele>81.370000000000005</ele>
        <time>2026-04-25T08:23:21Z</time>
      </trkpt>
      <trkpt lat="59.072109265252948" lon="30.017033088952303">
        <ele>81.370000000000005</ele>
        <time>2026-04-25T08:23:43Z</time>
      </trkpt>
      <trkpt lat="59.072112115100026" lon="30.017040129750967">
        <ele>81.370000000000005</ele>
        <time>2026-04-25T08:24:01Z</time>
      </trkpt>
      <trkpt lat="59.072113120928407" lon="30.017044069245458">
        <ele>79.930000000000007</ele>
        <time>2026-04-25T08:24:06Z</time>
      </trkpt>
      <trkpt lat="59.072116389870644" lon="30.017052786424756">
        <ele>79.930000000000007</ele>
        <time>2026-04-25T08:24:24Z</time>
      </trkpt>
      <trkpt lat="59.072117395699024" lon="30.017054043710232">
        <ele>81.370000000000005</ele>
        <time>2026-04-25T08:24:27Z</time>
      </trkpt>
      <trkpt lat="59.072120329365134" lon="30.017067119479179">
        <ele>81.370000000000005</ele>
        <time>2026-04-25T08:24:48Z</time>
      </trkpt>
      <trkpt lat="59.072124352678657" lon="30.017071478068829">
        <ele>81.370000000000005</ele>
        <time>2026-04-25T08:25:05Z</time>
      </trkpt>
      <trkpt lat="59.072127789258957" lon="30.017088744789362">
        <ele>81.370000000000005</ele>
        <time>2026-04-25T08:25:28Z</time>
      </trkpt>
      <trkpt lat="59.07213231548667" lon="30.0171023234725">
        <ele>81.849999999999994</ele>
        <time>2026-04-25T08:25:46Z</time>
      </trkpt>
      <trkpt lat="59.072137763723731" lon="30.017102910205722">
        <ele>81.849999999999994</ele>
        <time>2026-04-25T08:26:02Z</time>
      </trkpt>
      <trkpt lat="59.072137931361794" lon="30.017099976539612">
        <ele>80.409999999999997</ele>
        <time>2026-04-25T08:26:05Z</time>
      </trkpt>
      <trkpt lat="59.072141787037253" lon="30.017102574929595">
        <ele>81.849999999999994</ele>
        <time>2026-04-25T08:26:21Z</time>
      </trkpt>
      <trkpt lat="59.072142541408539" lon="30.017103916034102">
        <ele>80.409999999999997</ele>
        <time>2026-04-25T08:26:37Z</time>
      </trkpt>
      <trkpt lat="59.07214748673141" lon="30.017104083672166">
        <ele>79.930000000000007</ele>
        <time>2026-04-25T08:26:54Z</time>
      </trkpt>
      <trkpt lat="59.0721963532269" lon="30.017117578536272">
        <ele>79.450000000000003</ele>
        <time>2026-04-25T08:27:07Z</time>
      </trkpt>
      <trkpt lat="59.072224013507366" lon="30.017109615728259">
        <ele>80.890000000000001</ele>
        <time>2026-04-25T08:27:14Z</time>
      </trkpt>
      <trkpt lat="59.072284949943423" lon="30.017095031216741">
        <ele>80.890000000000001</ele>
        <time>2026-04-25T08:27:25Z</time>
      </trkpt>
      <trkpt lat="59.072357285767794" lon="30.017033088952303">
        <ele>81.370000000000005</ele>
        <time>2026-04-25T08:27:34Z</time>
      </trkpt>
      <trkpt lat="59.072379497811198" lon="30.017016660422087">
        <ele>81.370000000000005</ele>
        <time>2026-04-25T08:27:37Z</time>
      </trkpt>
      <trkpt lat="59.072435069829226" lon="30.016982462257147">
        <ele>80.409999999999997</ele>
        <time>2026-04-25T08:27:48Z</time>
      </trkpt>
      <trkpt lat="59.072461975738406" lon="30.016972990706563">
        <ele>80.409999999999997</ele>
        <time>2026-04-25T08:28:05Z</time>
      </trkpt>
      <trkpt lat="59.072462730109692" lon="30.01697139814496">
        <ele>80.409999999999997</ele>
        <time>2026-04-25T08:28:06Z</time>
      </trkpt>
      <trkpt lat="59.072499442845583" lon="30.016946252435446">
        <ele>79.450000000000003</ele>
        <time>2026-04-25T08:28:23Z</time>
      </trkpt>
      <trkpt lat="59.072518972679973" lon="30.016953544691205">
        <ele>79.450000000000003</ele>
        <time>2026-04-25T08:28:42Z</time>
      </trkpt>
      <trkpt lat="59.072565073147416" lon="30.0169313326478">
        <ele>79.450000000000003</ele>
        <time>2026-04-25T08:28:55Z</time>
      </trkpt>
      <trkpt lat="59.072622656822205" lon="30.016875928267837">
        <ele>78.969999999999999</ele>
        <time>2026-04-25T08:29:07Z</time>
      </trkpt>
      <trkpt lat="59.072639420628548" lon="30.01687366515398">
        <ele>78.969999999999999</ele>
        <time>2026-04-25T08:29:19Z</time>
      </trkpt>
      <trkpt lat="59.072657693177462" lon="30.016886321827769">
        <ele>79.930000000000007</ele>
        <time>2026-04-25T08:29:34Z</time>
      </trkpt>
      <trkpt lat="59.072713684290648" lon="30.016874419525266">
        <ele>78.480000000000004</ele>
        <time>2026-04-25T08:29:45Z</time>
      </trkpt>
      <trkpt lat="59.072772189974785" lon="30.016835695132613">
        <ele>78.480000000000004</ele>
        <time>2026-04-25T08:29:57Z</time>
      </trkpt>
      <trkpt lat="59.072869252413511" lon="30.016819601878524">
        <ele>79.930000000000007</ele>
        <time>2026-04-25T08:30:09Z</time>
      </trkpt>
      <trkpt lat="59.072967153042555" lon="30.016766376793385">
        <ele>79.930000000000007</ele>
        <time>2026-04-25T08:30:22Z</time>
      </trkpt>
      <trkpt lat="59.07303923740983" lon="30.016764113679528">
        <ele>79.930000000000007</ele>
        <time>2026-04-25T08:30:33Z</time>
      </trkpt>
      <trkpt lat="59.073185166344047" lon="30.016640899702907">
        <ele>79.930000000000007</ele>
        <time>2026-04-25T08:30:50Z</time>
      </trkpt>
      <trkpt lat="59.073243839666247" lon="30.016570826992393">
        <ele>79.450000000000003</ele>
        <time>2026-04-25T08:31:04Z</time>
      </trkpt>
      <trkpt lat="59.073295556008816" lon="30.016505867242813">
        <ele>79.450000000000003</ele>
        <time>2026-04-25T08:31:17Z</time>
      </trkpt>
      <trkpt lat="59.073463613167405" lon="30.016484996303916">
        <ele>79.450000000000003</ele>
        <time>2026-04-25T08:31:33Z</time>
      </trkpt>
      <trkpt lat="59.07352102920413" lon="30.016381479799747">
        <ele>79.930000000000007</ele>
        <time>2026-04-25T08:31:40Z</time>
      </trkpt>
      <trkpt lat="59.073561262339354" lon="30.016365386545658">
        <ele>79.930000000000007</ele>
        <time>2026-04-25T08:31:44Z</time>
      </trkpt>
      <trkpt lat="59.073592443019152" lon="30.016312915831804">
        <ele>79.930000000000007</ele>
        <time>2026-04-25T08:31:57Z</time>
      </trkpt>
      <trkpt lat="59.073627395555377" lon="30.016302270814776">
        <ele>80.409999999999997</ele>
        <time>2026-04-25T08:32:11Z</time>
      </trkpt>
      <trkpt lat="59.073646171018481" lon="30.016293805092573">
        <ele>80.409999999999997</ele>
        <time>2026-04-25T08:32:27Z</time>
      </trkpt>
      <trkpt lat="59.073701910674572" lon="30.016294810920954">
        <ele>79.450000000000003</ele>
        <time>2026-04-25T08:32:38Z</time>
      </trkpt>
      <trkpt lat="59.073731498792768" lon="30.016293050721288">
        <ele>79.450000000000003</ele>
        <time>2026-04-25T08:32:49Z</time>
      </trkpt>
      <trkpt lat="59.073790255934" lon="30.016266815364361">
        <ele>79.450000000000003</ele>
        <time>2026-04-25T08:33:01Z</time>
      </trkpt>
      <trkpt lat="59.073879355564713" lon="30.016250973567367">
        <ele>79.450000000000003</ele>
        <time>2026-04-25T08:33:15Z</time>
      </trkpt>
      <trkpt lat="59.073903663083911" lon="30.016264216974378">
        <ele>78.969999999999999</ele>
        <time>2026-04-25T08:33:26Z</time>
      </trkpt>
      <trkpt lat="59.073996869847178" lon="30.016346527263522">
        <ele>78.969999999999999</ele>
        <time>2026-04-25T08:33:38Z</time>
      </trkpt>
      <trkpt lat="59.074043976143003" lon="30.01628584228456">
        <ele>78.480000000000004</ele>
        <time>2026-04-25T08:33:50Z</time>
      </trkpt>
      <trkpt lat="59.074086556211114" lon="30.016252230852842">
        <ele>78.480000000000004</ele>
        <time>2026-04-25T08:34:00Z</time>
      </trkpt>
      <trkpt lat="59.07412058673799" lon="30.016306797042489">
        <ele>79.450000000000003</ele>
        <time>2026-04-25T08:34:10Z</time>
      </trkpt>
      <trkpt lat="59.074153108522296" lon="30.016288440674543">
        <ele>79.450000000000003</ele>
        <time>2026-04-25T08:34:22Z</time>
      </trkpt>
      <trkpt lat="59.07420365139842" lon="30.016232114285231">
        <ele>79.450000000000003</ele>
        <time>2026-04-25T08:34:32Z</time>
      </trkpt>
      <trkpt lat="59.074224773794413" lon="30.016186097636819">
        <ele>78</ele>
        <time>2026-04-25T08:34:37Z</time>
      </trkpt>
      <trkpt lat="59.074264504015446" lon="30.01616857945919">
        <ele>78</ele>
        <time>2026-04-25T08:34:50Z</time>
      </trkpt>
      <trkpt lat="59.074283111840487" lon="30.016197999939322">
        <ele>78</ele>
        <time>2026-04-25T08:34:59Z</time>
      </trkpt>
      <trkpt lat="59.07431848347187" lon="30.016254326328635">
        <ele>78</ele>
        <time>2026-04-25T08:35:11Z</time>
      </trkpt>
      <trkpt lat="59.074351591989398" lon="30.016180481761694">
        <ele>77.519999999999996</ele>
        <time>2026-04-25T08:35:23Z</time>
      </trkpt>
      <trkpt lat="59.074426610022783" lon="30.016124825924635">
        <ele>78.969999999999999</ele>
        <time>2026-04-25T08:35:34Z</time>
      </trkpt>
      <trkpt lat="59.074423676356673" lon="30.016098255291581">
        <ele>78.480000000000004</ele>
        <time>2026-04-25T08:35:51Z</time>
      </trkpt>
      <trkpt lat="59.074424263089895" lon="30.016098087653518">
        <ele>78.480000000000004</ele>
        <time>2026-04-25T08:36:17Z</time>
      </trkpt>
      <trkpt lat="59.074430046603084" lon="30.016096495091915">
        <ele>79.930000000000007</ele>
        <time>2026-04-25T08:36:40Z</time>
      </trkpt>
      <trkpt lat="59.074465921148658" lon="30.016070259734988">
        <ele>79.930000000000007</ele>
        <time>2026-04-25T08:36:56Z</time>
      </trkpt>
      <trkpt lat="59.074509171769023" lon="30.01605961471796">
        <ele>79.930000000000007</ele>
        <time>2026-04-25T08:37:07Z</time>
      </trkpt>
      <trkpt lat="59.074526857584715" lon="30.016009155660868">
        <ele>78.480000000000004</ele>
        <time>2026-04-25T08:37:19Z</time>
      </trkpt>
      <trkpt lat="59.074573125690222" lon="30.016037989407778">
        <ele>78</ele>
        <time>2026-04-25T08:37:29Z</time>
      </trkpt>
      <trkpt lat="59.074643030762672" lon="30.015993732959032">
        <ele>78</ele>
        <time>2026-04-25T08:37:41Z</time>
      </trkpt>
      <trkpt lat="59.074697010219097" lon="30.015943441540003">
        <ele>78</ele>
        <time>2026-04-25T08:37:51Z</time>
      </trkpt>
      <trkpt lat="59.074750235304236" lon="30.015910249203444">
        <ele>78</ele>
        <time>2026-04-25T08:38:01Z</time>
      </trkpt>
      <trkpt lat="59.074840508401394" lon="30.015825424343348">
        <ele>78</ele>
        <time>2026-04-25T08:38:15Z</time>
      </trkpt>
      <trkpt lat="59.074893733486533" lon="30.015771947801113">
        <ele>78</ele>
        <time>2026-04-25T08:38:23Z</time>
      </trkpt>
      <trkpt lat="59.074894320219755" lon="30.015771444886923">
        <ele>78</ele>
        <time>2026-04-25T08:38:31Z</time>
      </trkpt>
      <trkpt lat="59.074932541698217" lon="30.01574395224452">
        <ele>78</ele>
        <time>2026-04-25T08:38:42Z</time>
      </trkpt>
      <trkpt lat="59.074988951906562" lon="30.015705982223153">
        <ele>78</ele>
        <time>2026-04-25T08:38:54Z</time>
      </trkpt>
      <trkpt lat="59.075012588873506" lon="30.015688547864556">
        <ele>78.969999999999999</ele>
        <time>2026-04-25T08:38:57Z</time>
      </trkpt>
      <trkpt lat="59.075022647157311" lon="30.015687542036176">
        <ele>78.969999999999999</ele>
        <time>2026-04-25T08:38:58Z</time>
      </trkpt>
      <trkpt lat="59.075095737352967" lon="30.015667006373405">
        <ele>78</ele>
        <time>2026-04-25T08:39:08Z</time>
      </trkpt>
      <trkpt lat="59.075156506150961" lon="30.015595257282257">
        <ele>77.519999999999996</ele>
        <time>2026-04-25T08:39:20Z</time>
      </trkpt>
      <trkpt lat="59.07520143315196" lon="30.015610177069902">
        <ele>77.519999999999996</ele>
        <time>2026-04-25T08:39:31Z</time>
      </trkpt>
      <trkpt lat="59.075250718742609" lon="30.015561394393444">
        <ele>77.519999999999996</ele>
        <time>2026-04-25T08:39:41Z</time>
      </trkpt>
      <trkpt lat="59.0752839948982" lon="30.015528369694948">
        <ele>78.480000000000004</ele>
        <time>2026-04-25T08:39:55Z</time>
      </trkpt>
      <trkpt lat="59.075352307409048" lon="30.015484532341361">
        <ele>78.480000000000004</ele>
        <time>2026-04-25T08:40:09Z</time>
      </trkpt>
      <trkpt lat="59.075393211096525" lon="30.01550791785121">
        <ele>77.040000000000006</ele>
        <time>2026-04-25T08:40:15Z</time>
      </trkpt>
      <trkpt lat="59.075446436181664" lon="30.015523005276918">
        <ele>77.040000000000006</ele>
        <time>2026-04-25T08:40:28Z</time>
      </trkpt>
      <trkpt lat="59.07550435513258" lon="30.015490148216486">
        <ele>77.040000000000006</ele>
        <time>2026-04-25T08:40:38Z</time>
      </trkpt>
      <trkpt lat="59.075515167787671" lon="30.015479922294617">
        <ele>77.519999999999996</ele>
        <time>2026-04-25T08:40:47Z</time>
      </trkpt>
      <trkpt lat="59.075523801147938" lon="30.015480844303966">
        <ele>77.519999999999996</ele>
        <time>2026-04-25T08:40:52Z</time>
      </trkpt>
      <trkpt lat="59.075539642944932" lon="30.015475898981094">
        <ele>76.079999999999998</ele>
        <time>2026-04-25T08:40:54Z</time>
      </trkpt>
      <trkpt lat="59.075553892180324" lon="30.015491573140025">
        <ele>76.079999999999998</ele>
        <time>2026-04-25T08:41:06Z</time>
      </trkpt>
      <trkpt lat="59.075572164729238" lon="30.015482101589441">
        <ele>77.519999999999996</ele>
        <time>2026-04-25T08:41:12Z</time>
      </trkpt>
      <trkpt lat="59.075603513047099" lon="30.015455447137356">
        <ele>76.560000000000002</ele>
        <time>2026-04-25T08:41:24Z</time>
      </trkpt>
      <trkpt lat="59.075627317652106" lon="30.015477994456887">
        <ele>76.560000000000002</ele>
        <time>2026-04-25T08:41:37Z</time>
      </trkpt>
      <trkpt lat="59.07562748529017" lon="30.015477826818824">
        <ele>76.560000000000002</ele>
        <time>2026-04-25T08:41:38Z</time>
      </trkpt>
      <trkpt lat="59.075647266581655" lon="30.015492076054215">
        <ele>76.560000000000002</ele>
        <time>2026-04-25T08:41:43Z</time>
      </trkpt>
      <trkpt lat="59.075703760609031" lon="30.015451675280929">
        <ele>76.560000000000002</ele>
        <time>2026-04-25T08:41:53Z</time>
      </trkpt>
      <trkpt lat="59.075736701488495" lon="30.015458296984434">
        <ele>76.560000000000002</ele>
        <time>2026-04-25T08:42:05Z</time>
      </trkpt>
      <trkpt lat="59.075764864683151" lon="30.015452681109309">
        <ele>76.560000000000002</ele>
        <time>2026-04-25T08:42:20Z</time>
      </trkpt>
      <trkpt lat="59.075800320133567" lon="30.015416387468576">
        <ele>78</ele>
        <time>2026-04-25T08:42:33Z</time>
      </trkpt>
      <trkpt lat="59.075838625431061" lon="30.01541655510664">
        <ele>77.519999999999996</ele>
        <time>2026-04-25T08:42:43Z</time>
      </trkpt>
      <trkpt lat="59.075884222984314" lon="30.015398198738694">
        <ele>76.560000000000002</ele>
        <time>2026-04-25T08:42:55Z</time>
      </trkpt>
      <trkpt lat="59.075910542160273" lon="30.015385122969747">
        <ele>76.560000000000002</ele>
        <time>2026-04-25T08:43:04Z</time>
      </trkpt>
      <trkpt lat="59.075941722840071" lon="30.01539652235806">
        <ele>75.599999999999994</ele>
        <time>2026-04-25T08:43:18Z</time>
      </trkpt>
      <trkpt lat="59.075952116400003" lon="30.015403395518661">
        <ele>77.040000000000006</ele>
        <time>2026-04-25T08:43:31Z</time>
      </trkpt>
      <trkpt lat="59.076010705903172" lon="30.015399623662233">
        <ele>77.040000000000006</ele>
        <time>2026-04-25T08:43:45Z</time>
      </trkpt>
      <trkpt lat="59.076052783057094" lon="30.015407670289278">
        <ele>77.040000000000006</ele>
        <time>2026-04-25T08:43:57Z</time>
      </trkpt>
      <trkpt lat="59.076129896566272" lon="30.015407167375088">
        <ele>77.519999999999996</ele>
        <time>2026-04-25T08:44:13Z</time>
      </trkpt>
      <trkpt lat="59.076160993427038" lon="30.015396941453218">
        <ele>76.079999999999998</ele>
        <time>2026-04-25T08:44:23Z</time>
      </trkpt>
      <trkpt lat="59.076197203248739" lon="30.015383362770081">
        <ele>77.519999999999996</ele>
        <time>2026-04-25T08:44:35Z</time>
      </trkpt>
      <trkpt lat="59.076188402250409" lon="30.015378501266241">
        <ele>77.519999999999996</ele>
        <time>2026-04-25T08:44:57Z</time>
      </trkpt>
      <trkpt lat="59.076188821345568" lon="30.015376405790448">
        <ele>76.079999999999998</ele>
        <time>2026-04-25T08:44:59Z</time>
      </trkpt>
      <trkpt lat="59.076191922649741" lon="30.015381015837193">
        <ele>77.040000000000006</ele>
        <time>2026-04-25T08:45:22Z</time>
      </trkpt>
      <trkpt lat="59.076236933469772" lon="30.015379842370749">
        <ele>76.560000000000002</ele>
        <time>2026-04-25T08:45:42Z</time>
      </trkpt>
      <trkpt lat="59.076277753338218" lon="30.01539015211165">
        <ele>76.079999999999998</ele>
        <time>2026-04-25T08:45:51Z</time>
      </trkpt>
      <trkpt lat="59.076326116919518" lon="30.015400545671582">
        <ele>76.079999999999998</ele>
        <time>2026-04-25T08:46:03Z</time>
      </trkpt>
      <trkpt lat="59.076359728351235" lon="30.015398617833853">
        <ele>76.079999999999998</ele>
        <time>2026-04-25T08:46:15Z</time>
      </trkpt>
      <trkpt lat="59.076380096375942" lon="30.015392834320664">
        <ele>77.519999999999996</ele>
        <time>2026-04-25T08:46:27Z</time>
      </trkpt>
      <trkpt lat="59.07641664147377" lon="30.015393253415823">
        <ele>76.560000000000002</ele>
        <time>2026-04-25T08:46:38Z</time>
      </trkpt>
      <trkpt lat="59.076460227370262" lon="30.015370454639196">
        <ele>76.560000000000002</ele>
        <time>2026-04-25T08:46:47Z</time>
      </trkpt>
      <trkpt lat="59.076470620930195" lon="30.015337849035859">
        <ele>76.079999999999998</ele>
        <time>2026-04-25T08:47:00Z</time>
      </trkpt>
      <trkpt lat="59.076482690870762" lon="30.015327287837863">
        <ele>76.079999999999998</ele>
        <time>2026-04-25T08:47:04Z</time>
      </trkpt>
      <trkpt lat="59.076533820480108" lon="30.01533105969429">
        <ele>76.079999999999998</ele>
        <time>2026-04-25T08:47:14Z</time>
      </trkpt>
      <trkpt lat="59.076561145484447" lon="30.015336675569415">
        <ele>76.079999999999998</ele>
        <time>2026-04-25T08:47:27Z</time>
      </trkpt>
      <trkpt lat="59.07658914104104" lon="30.015324186533689">
        <ele>76.079999999999998</ele>
        <time>2026-04-25T08:47:42Z</time>
      </trkpt>
      <trkpt lat="59.076601797714829" lon="30.01528512686491">
        <ele>75.599999999999994</ele>
        <time>2026-04-25T08:47:54Z</time>
      </trkpt>
      <trkpt lat="59.076676731929183" lon="30.015261992812157">
        <ele>75.599999999999994</ele>
        <time>2026-04-25T08:48:09Z</time>
      </trkpt>
      <trkpt lat="59.076694333925843" lon="30.015218574553728">
        <ele>75.599999999999994</ele>
        <time>2026-04-25T08:48:26Z</time>
      </trkpt>
      <trkpt lat="59.076723419129848" lon="30.015196530148387">
        <ele>75.599999999999994</ele>
        <time>2026-04-25T08:48:39Z</time>
      </trkpt>
      <trkpt lat="59.076749486848712" lon="30.015191333368421">
        <ele>75.599999999999994</ele>
        <time>2026-04-25T08:48:53Z</time>
      </trkpt>
      <trkpt lat="59.076789636164904" lon="30.015143221244216">
        <ele>75.599999999999994</ele>
        <time>2026-04-25T08:49:03Z</time>
      </trkpt>
      <trkpt lat="59.076801370829344" lon="30.015118410810828">
        <ele>76.079999999999998</ele>
        <time>2026-04-25T08:49:18Z</time>
      </trkpt>
      <trkpt lat="59.076801789924502" lon="30.015117572620511">
        <ele>75.120000000000005</ele>
        <time>2026-04-25T08:49:19Z</time>
      </trkpt>
      <trkpt lat="59.076813021674752" lon="30.015103574842215">
        <ele>76.079999999999998</ele>
        <time>2026-04-25T08:49:28Z</time>
      </trkpt>
      <trkpt lat="59.076826767995954" lon="30.015069292858243">
        <ele>76.079999999999998</ele>
        <time>2026-04-25T08:49:39Z</time>
      </trkpt>
      <trkpt lat="59.076836239546537" lon="30.015060743317008">
        <ele>76.079999999999998</ele>
        <time>2026-04-25T08:49:49Z</time>
      </trkpt>
      <trkpt lat="59.076853506267071" lon="30.015073316171765">
        <ele>77.040000000000006</ele>
        <time>2026-04-25T08:49:56Z</time>
      </trkpt>
      <trkpt lat="59.076920645311475" lon="30.01506082713604">
        <ele>77.040000000000006</ele>
        <time>2026-04-25T08:50:08Z</time>
      </trkpt>
      <trkpt lat="59.07695023342967" lon="30.015068454667926">
        <ele>75.599999999999994</ele>
        <time>2026-04-25T08:50:14Z</time>
      </trkpt>
      <trkpt lat="59.076999854296446" lon="30.015097875148058">
        <ele>75.599999999999994</ele>
        <time>2026-04-25T08:50:25Z</time>
      </trkpt>
      <trkpt lat="59.07706162892282" lon="30.015121093019843">
        <ele>75.599999999999994</ele>
        <time>2026-04-25T08:50:37Z</time>
      </trkpt>
      <trkpt lat="59.077081410214305" lon="30.015134336426854">
        <ele>76.560000000000002</ele>
        <time>2026-04-25T08:50:44Z</time>
      </trkpt>
      <trkpt lat="59.077085014432669" lon="30.015125367790461">
        <ele>75.599999999999994</ele>
        <time>2026-04-25T08:50:56Z</time>
      </trkpt>
      <trkpt lat="59.077102532610297" lon="30.015114303678274">
        <ele>76.560000000000002</ele>
        <time>2026-04-25T08:51:20Z</time>
      </trkpt>
      <trkpt lat="59.077113596722484" lon="30.015131067484617">
        <ele>75.120000000000005</ele>
        <time>2026-04-25T08:51:44Z</time>
      </trkpt>
      <trkpt lat="59.077141676098108" lon="30.015136683359742">
        <ele>74.640000000000001</ele>
        <time>2026-04-25T08:52:00Z</time>
      </trkpt>
      <trkpt lat="59.077155590057373" lon="30.015140287578106">
        <ele>74.640000000000001</ele>
        <time>2026-04-25T08:52:17Z</time>
      </trkpt>
      <trkpt lat="59.077222477644682" lon="30.015061665326357">
        <ele>76.560000000000002</ele>
        <time>2026-04-25T08:52:30Z</time>
      </trkpt>
      <trkpt lat="59.077254915609956" lon="30.015027383342385">
        <ele>75.120000000000005</ele>
        <time>2026-04-25T08:52:33Z</time>
      </trkpt>
      <trkpt lat="59.077342506498098" lon="30.014949264004827">
        <ele>76.079999999999998</ele>
        <time>2026-04-25T08:52:47Z</time>
      </trkpt>
      <trkpt lat="59.077359857037663" lon="30.014937110245228">
        <ele>74.640000000000001</ele>
        <time>2026-04-25T08:52:49Z</time>
      </trkpt>
      <trkpt lat="59.077437557280064" lon="30.014868294820189">
        <ele>76.079999999999998</ele>
        <time>2026-04-25T08:53:01Z</time>
      </trkpt>
      <trkpt lat="59.077476030215621" lon="30.014855973422527">
        <ele>76.560000000000002</ele>
        <time>2026-04-25T08:53:27Z</time>
      </trkpt>
      <trkpt lat="59.077492877840996" lon="30.014841137453914">
        <ele>76.560000000000002</ele>
        <time>2026-04-25T08:53:47Z</time>
      </trkpt>
      <trkpt lat="59.077492542564869" lon="30.014829821884632">
        <ele>75.120000000000005</ele>
        <time>2026-04-25T08:53:52Z</time>
      </trkpt>
      <trkpt lat="59.077496901154518" lon="30.014841472730041">
        <ele>75.120000000000005</ele>
        <time>2026-04-25T08:54:09Z</time>
      </trkpt>
      <trkpt lat="59.077508551999927" lon="30.014827726408839">
        <ele>75.120000000000005</ele>
        <time>2026-04-25T08:54:29Z</time>
      </trkpt>
      <trkpt lat="59.077512240037322" lon="30.014812387526035">
        <ele>75.120000000000005</ele>
        <time>2026-04-25T08:54:42Z</time>
      </trkpt>
      <trkpt lat="59.077519699931145" lon="30.01479109749198">
        <ele>76.560000000000002</ele>
        <time>2026-04-25T08:54:57Z</time>
      </trkpt>
      <trkpt lat="59.077554568648338" lon="30.014747260138392">
        <ele>76.560000000000002</ele>
        <time>2026-04-25T08:55:10Z</time>
      </trkpt>
      <trkpt lat="59.077619947493076" lon="30.014727227389812">
        <ele>76.560000000000002</ele>
        <time>2026-04-25T08:55:34Z</time>
      </trkpt>
      <trkpt lat="59.077628245577216" lon="30.014713648706675">
        <ele>75.120000000000005</ele>
        <time>2026-04-25T08:55:36Z</time>
      </trkpt>
      <trkpt lat="59.077666969969869" lon="30.014691185206175">
        <ele>76.560000000000002</ele>
        <time>2026-04-25T08:55:54Z</time>
      </trkpt>
      <trkpt lat="59.077718770131469" lon="30.01461474224925">
        <ele>75.599999999999994</ele>
        <time>2026-04-25T08:56:13Z</time>
      </trkpt>
      <trkpt lat="59.077751291915774" lon="30.014585070312023">
        <ele>75.599999999999994</ele>
        <time>2026-04-25T08:56:28Z</time>
      </trkpt>
      <trkpt lat="59.077849360182881" lon="30.014547854661942">
        <ele>75.599999999999994</ele>
        <time>2026-04-25T08:56:40Z</time>
      </trkpt>
      <trkpt lat="59.077997803688049" lon="30.014517344534397">
        <ele>75.599999999999994</ele>
        <time>2026-04-25T08:56:52Z</time>
      </trkpt>
      <trkpt lat="59.078032588586211" lon="30.014537461102009">
        <ele>76.560000000000002</ele>
        <time>2026-04-25T08:56:58Z</time>
      </trkpt>
      <trkpt lat="59.078064691275358" lon="30.014513321220875">
        <ele>76.560000000000002</ele>
        <time>2026-04-25T08:57:12Z</time>
      </trkpt>
      <trkpt lat="59.078095201402903" lon="30.014541568234563">
        <ele>75.599999999999994</ele>
        <time>2026-04-25T08:57:22Z</time>
      </trkpt>
      <trkpt lat="59.078169045969844" lon="30.014646258205175">
        <ele>75.599999999999994</ele>
        <time>2026-04-25T08:57:30Z</time>
      </trkpt>
      <trkpt lat="59.07817617058754" lon="30.01466067507863">
        <ele>77.040000000000006</ele>
        <time>2026-04-25T08:57:33Z</time>
      </trkpt>
      <trkpt lat="59.078209949657321" lon="30.01467626541853">
        <ele>75.599999999999994</ele>
        <time>2026-04-25T08:57:36Z</time>
      </trkpt>
      <trkpt lat="59.078262336552143" lon="30.014741895720363">
        <ele>77.040000000000006</ele>
        <time>2026-04-25T08:57:44Z</time>
      </trkpt>
      <trkpt lat="59.078317238017917" lon="30.014689508825541">
        <ele>76.079999999999998</ele>
        <time>2026-04-25T08:57:58Z</time>
      </trkpt>
      <trkpt lat="59.078382030129433" lon="30.014673164114356">
        <ele>75.599999999999994</ele>
        <time>2026-04-25T08:58:10Z</time>
      </trkpt>
      <trkpt lat="59.07840583473444" lon="30.01468213275075">
        <ele>77.040000000000006</ele>
        <time>2026-04-25T08:58:17Z</time>
      </trkpt>
      <trkpt lat="59.078528461977839" lon="30.014656903222203">
        <ele>76.079999999999998</ele>
        <time>2026-04-25T08:58:31Z</time>
      </trkpt>
      <trkpt lat="59.078687550500035" lon="30.01470610499382">
        <ele>77.519999999999996</ele>
        <time>2026-04-25T08:58:43Z</time>
      </trkpt>
      <trkpt lat="59.078771620988846" lon="30.01467484049499">
        <ele>78</ele>
        <time>2026-04-25T08:58:52Z</time>
      </trkpt>
      <trkpt lat="59.078891146928072" lon="30.014593787491322">
        <ele>76.560000000000002</ele>
        <time>2026-04-25T08:59:05Z</time>
      </trkpt>
      <trkpt lat="59.078981587663293" lon="30.014534695073962">
        <ele>76.079999999999998</ele>
        <time>2026-04-25T08:59:20Z</time>
      </trkpt>
      <trkpt lat="59.079042356461287" lon="30.014472836628556">
        <ele>76.079999999999998</ele>
        <time>2026-04-25T08:59:34Z</time>
      </trkpt>
      <trkpt lat="59.079099521040916" lon="30.014440147206187">
        <ele>77.040000000000006</ele>
        <time>2026-04-25T08:59:42Z</time>
      </trkpt>
      <trkpt lat="59.079198595136404" lon="30.014347275719047">
        <ele>76.079999999999998</ele>
        <time>2026-04-25T08:59:56Z</time>
      </trkpt>
      <trkpt lat="59.079247964546084" lon="30.014314334839582">
        <ele>76.079999999999998</ele>
        <time>2026-04-25T09:00:06Z</time>
      </trkpt>
      <trkpt lat="59.079383416101336" lon="30.014130184426904">
        <ele>76.079999999999998</ele>
        <time>2026-04-25T09:00:21Z</time>
      </trkpt>
      <trkpt lat="59.079443598166108" lon="30.014016358181834">
        <ele>76.079999999999998</ele>
        <time>2026-04-25T09:00:33Z</time>
      </trkpt>
      <trkpt lat="59.079487519338727" lon="30.013956679031253">
        <ele>75.599999999999994</ele>
        <time>2026-04-25T09:00:48Z</time>
      </trkpt>
      <trkpt lat="59.079515347257257" lon="30.013926923274994">
        <ele>77.040000000000006</ele>
        <time>2026-04-25T09:01:05Z</time>
      </trkpt>
      <trkpt lat="59.079589275643229" lon="30.01390621997416">
        <ele>77.040000000000006</ele>
        <time>2026-04-25T09:01:17Z</time>
      </trkpt>
      <trkpt lat="59.079631185159087" lon="30.013882834464312">
        <ele>75.599999999999994</ele>
        <time>2026-04-25T09:01:23Z</time>
      </trkpt>
      <trkpt lat="59.079717015847564" lon="30.013793483376503">
        <ele>77.040000000000006</ele>
        <time>2026-04-25T09:01:36Z</time>
      </trkpt>
      <trkpt lat="59.079813826829195" lon="30.013738749548793">
        <ele>77.040000000000006</ele>
        <time>2026-04-25T09:01:48Z</time>
      </trkpt>
      <trkpt lat="59.079845091328025" lon="30.013808906078339">
        <ele>77.519999999999996</ele>
        <time>2026-04-25T09:02:06Z</time>
      </trkpt>
      <trkpt lat="59.079876020550728" lon="30.013954918831587">
        <ele>77.519999999999996</ele>
        <time>2026-04-25T09:02:18Z</time>
      </trkpt>
      <trkpt lat="59.07994014210999" lon="30.014096321538091">
        <ele>76.560000000000002</ele>
        <time>2026-04-25T09:02:33Z</time>
      </trkpt>
      <trkpt lat="59.080018009990454" lon="30.014082491397858">
        <ele>76.079999999999998</ele>
        <time>2026-04-25T09:02:47Z</time>
      </trkpt>
      <trkpt lat="59.08002857118845" lon="30.014075869694352">
        <ele>77.040000000000006</ele>
        <time>2026-04-25T09:03:08Z</time>
      </trkpt>
      <trkpt lat="59.08004030585289" lon="30.014102356508374">
        <ele>77.519999999999996</ele>
        <time>2026-04-25T09:03:35Z</time>
      </trkpt>
      <trkpt lat="59.080049442127347" lon="30.014120796695352">
        <ele>78</ele>
        <time>2026-04-25T09:04:04Z</time>
      </trkpt>
      <trkpt lat="59.080061512067914" lon="30.014088526368141">
        <ele>78</ele>
        <time>2026-04-25T09:04:25Z</time>
      </trkpt>
      <trkpt lat="59.080068217590451" lon="30.014076791703701">
        <ele>78</ele>
        <time>2026-04-25T09:04:46Z</time>
      </trkpt>
      <trkpt lat="59.080072157084942" lon="30.014070253819227">
        <ele>78.969999999999999</ele>
        <time>2026-04-25T09:05:03Z</time>
      </trkpt>
      <trkpt lat="59.080085568130016" lon="30.014038067311049">
        <ele>78</ele>
        <time>2026-04-25T09:05:25Z</time>
      </trkpt>
      <trkpt lat="59.080104259774089" lon="30.014013256877661">
        <ele>78</ele>
        <time>2026-04-25T09:05:37Z</time>
      </trkpt>
      <trkpt lat="59.080180451273918" lon="30.013982579112053">
        <ele>78</ele>
        <time>2026-04-25T09:05:52Z</time>
      </trkpt>
      <trkpt lat="59.080224372446537" lon="30.013990541920066">
        <ele>79.450000000000003</ele>
        <time>2026-04-25T09:05:56Z</time>
      </trkpt>
      <trkpt lat="59.08024306409061" lon="30.013991380110383">
        <ele>78</ele>
        <time>2026-04-25T09:05:59Z</time>
      </trkpt>
      <trkpt lat="59.080306431278586" lon="30.0139853451401">
        <ele>78</ele>
        <time>2026-04-25T09:06:12Z</time>
      </trkpt>
      <trkpt lat="59.080339204519987" lon="30.013988949358463">
        <ele>79.450000000000003</ele>
        <time>2026-04-25T09:06:36Z</time>
      </trkpt>
      <trkpt lat="59.080351442098618" lon="30.013982160016894">
        <ele>79.450000000000003</ele>
        <time>2026-04-25T09:06:57Z</time>
      </trkpt>
      <trkpt lat="59.080391507595778" lon="30.013964641839266">
        <ele>79.450000000000003</ele>
        <time>2026-04-25T09:07:10Z</time>
      </trkpt>
      <trkpt lat="59.080550177022815" lon="30.013927761465311">
        <ele>79.450000000000003</ele>
        <time>2026-04-25T09:07:25Z</time>
      </trkpt>
      <trkpt lat="59.08056559972465" lon="30.013944022357464">
        <ele>79.930000000000007</ele>
        <time>2026-04-25T09:07:46Z</time>
      </trkpt>
      <trkpt lat="59.080597953870893" lon="30.013951985165477">
        <ele>79.450000000000003</ele>
        <time>2026-04-25T09:08:16Z</time>
      </trkpt>
      <trkpt lat="59.080604407936335" lon="30.013941256329417">
        <ele>79.930000000000007</ele>
        <time>2026-04-25T09:08:32Z</time>
      </trkpt>
      <trkpt lat="59.080603485926986" lon="30.013936646282673">
        <ele>79.450000000000003</ele>
        <time>2026-04-25T09:08:49Z</time>
      </trkpt>
      <trkpt lat="59.080603234469891" lon="30.013917535543442">
        <ele>80.409999999999997</ele>
        <time>2026-04-25T09:09:10Z</time>
      </trkpt>
      <trkpt lat="59.080699039623141" lon="30.013905549421906">
        <ele>81.370000000000005</ele>
        <time>2026-04-25T09:09:23Z</time>
      </trkpt>
      <trkpt lat="59.080748576670885" lon="30.013911919668317">
        <ele>79.930000000000007</ele>
        <time>2026-04-25T09:09:27Z</time>
      </trkpt>
      <trkpt lat="59.080834574997425" lon="30.013887360692024">
        <ele>79.930000000000007</ele>
        <time>2026-04-25T09:09:41Z</time>
      </trkpt>
      <trkpt lat="59.080901630222797" lon="30.013870429247618">
        <ele>81.370000000000005</ele>
        <time>2026-04-25T09:09:49Z</time>
      </trkpt>
      <trkpt lat="59.080958543345332" lon="30.013863556087017">
        <ele>81.370000000000005</ele>
        <time>2026-04-25T09:09:56Z</time>
      </trkpt>
      <trkpt lat="59.081036662682891" lon="30.013867327943444">
        <ele>80.409999999999997</ele>
        <time>2026-04-25T09:10:09Z</time>
      </trkpt>
      <trkpt lat="59.081102795898914" lon="30.013850564137101">
        <ele>80.409999999999997</ele>
        <time>2026-04-25T09:10:19Z</time>
      </trkpt>
      <trkpt lat="59.081144202500582" lon="30.013855593279004">
        <ele>80.409999999999997</ele>
        <time>2026-04-25T09:10:30Z</time>
      </trkpt>
      <trkpt lat="59.081171527504921" lon="30.013858107849956">
        <ele>80.409999999999997</ele>
        <time>2026-04-25T09:10:49Z</time>
      </trkpt>
      <trkpt lat="59.081181334331632" lon="30.013853078708053">
        <ele>81.370000000000005</ele>
        <time>2026-04-25T09:11:07Z</time>
      </trkpt>
      <trkpt lat="59.081211006268859" lon="30.013840673491359">
        <ele>81.370000000000005</ele>
        <time>2026-04-25T09:11:26Z</time>
      </trkpt>
      <trkpt lat="59.081271691247821" lon="30.013934634625912">
        <ele>81.370000000000005</ele>
        <time>2026-04-25T09:11:40Z</time>
      </trkpt>
      <trkpt lat="59.081294070929289" lon="30.013992972671986">
        <ele>80.409999999999997</ele>
        <time>2026-04-25T09:11:44Z</time>
      </trkpt>
      <trkpt lat="59.081346541643143" lon="30.014156335964799">
        <ele>80.409999999999997</ele>
        <time>2026-04-25T09:11:58Z</time>
      </trkpt>
      <trkpt lat="59.081398593261838" lon="30.014180475845933">
        <ele>80.409999999999997</ele>
        <time>2026-04-25T09:12:10Z</time>
      </trkpt>
      <trkpt lat="59.081400018185377" lon="30.014178631827235">
        <ele>81.370000000000005</ele>
        <time>2026-04-25T09:12:12Z</time>
      </trkpt>
      <trkpt lat="59.081421224400401" lon="30.014179637655616">
        <ele>81.370000000000005</ele>
        <time>2026-04-25T09:12:26Z</time>
      </trkpt>
      <trkpt lat="59.081461457535625" lon="30.014201682060957">
        <ele>81.370000000000005</ele>
        <time>2026-04-25T09:12:40Z</time>
      </trkpt>
      <trkpt lat="59.081473695114255" lon="30.014202855527401">
        <ele>82.329999999999998</ele>
        <time>2026-04-25T09:12:57Z</time>
      </trkpt>
      <trkpt lat="59.081462882459164" lon="30.01418030820787">
        <ele>82.329999999999998</ele>
        <time>2026-04-25T09:13:12Z</time>
      </trkpt>
      <trkpt lat="59.081448800861835" lon="30.014170333743095">
        <ele>80.890000000000001</ele>
        <time>2026-04-25T09:13:15Z</time>
      </trkpt>
      <trkpt lat="59.08140211366117" lon="30.014128843322396">
        <ele>80.890000000000001</ele>
        <time>2026-04-25T09:13:29Z</time>
      </trkpt>
      <trkpt lat="59.081335309892893" lon="30.01411241479218">
        <ele>81.849999999999994</ele>
        <time>2026-04-25T09:13:38Z</time>
      </trkpt>
      <trkpt lat="59.081259369850159" lon="30.014070002362132">
        <ele>82.329999999999998</ele>
        <time>2026-04-25T09:13:51Z</time>
      </trkpt>
      <trkpt lat="59.081247048452497" lon="30.014029517769814">
        <ele>80.890000000000001</ele>
        <time>2026-04-25T09:13:55Z</time>
      </trkpt>
      <trkpt lat="59.081179071217775" lon="30.01392281614244">
        <ele>82.329999999999998</ele>
        <time>2026-04-25T09:14:06Z</time>
      </trkpt>
      <trkpt lat="59.081095922738314" lon="30.013771438971162">
        <ele>82.329999999999998</ele>
        <time>2026-04-25T09:14:19Z</time>
      </trkpt>
      <trkpt lat="59.081023670732975" lon="30.01364428550005">
        <ele>82.329999999999998</ele>
        <time>2026-04-25T09:14:30Z</time>
      </trkpt>
      <trkpt lat="59.08101562410593" lon="30.01366289332509">
        <ele>80.890000000000001</ele>
        <time>2026-04-25T09:14:45Z</time>
      </trkpt>
      <trkpt lat="59.081040434539318" lon="30.013647302985191">
        <ele>81.849999999999994</ele>
        <time>2026-04-25T09:15:01Z</time>
      </trkpt>
      <trkpt lat="59.081119224429131" lon="30.013560801744461">
        <ele>81.849999999999994</ele>
        <time>2026-04-25T09:15:14Z</time>
      </trkpt>
      <trkpt lat="59.081169683486223" lon="30.013523418456316">
        <ele>81.849999999999994</ele>
        <time>2026-04-25T09:15:26Z</time>
      </trkpt>
      <trkpt lat="59.081242270767689" lon="30.013508414849639">
        <ele>82.329999999999998</ele>
        <time>2026-04-25T09:15:42Z</time>
      </trkpt>
      <trkpt lat="59.081285102292895" lon="30.013474132865667">
        <ele>80.890000000000001</ele>
        <time>2026-04-25T09:15:47Z</time>
      </trkpt>
      <trkpt lat="59.08142508007586" lon="30.013397438451648">
        <ele>82.329999999999998</ele>
        <time>2026-04-25T09:15:59Z</time>
      </trkpt>
      <trkpt lat="59.081463385373354" lon="30.013390397652984">
        <ele>80.890000000000001</ele>
        <time>2026-04-25T09:16:03Z</time>
      </trkpt>
      <trkpt lat="59.081544689834118" lon="30.013427613303065">
        <ele>80.409999999999997</ele>
        <time>2026-04-25T09:16:15Z</time>
      </trkpt>
      <trkpt lat="59.081606548279524" lon="30.01341512426734">
        <ele>80.890000000000001</ele>
        <time>2026-04-25T09:16:29Z</time>
      </trkpt>
      <trkpt lat="59.08162490464747" lon="30.013433648273349">
        <ele>80.890000000000001</ele>
        <time>2026-04-25T09:16:38Z</time>
      </trkpt>
      <trkpt lat="59.081687852740288" lon="30.013422332704067">
        <ele>79.450000000000003</ele>
        <time>2026-04-25T09:16:51Z</time>
      </trkpt>
      <trkpt lat="59.081801259890199" lon="30.013390062376857">
        <ele>79.450000000000003</ele>
        <time>2026-04-25T09:17:03Z</time>
      </trkpt>
      <trkpt lat="59.081842415034771" lon="30.01338335685432">
        <ele>79.450000000000003</ele>
        <time>2026-04-25T09:17:17Z</time>
      </trkpt>
      <trkpt lat="59.081899579614401" lon="30.013344548642635">
        <ele>79.450000000000003</ele>
        <time>2026-04-25T09:17:29Z</time>
      </trkpt>
      <trkpt lat="59.081985242664814" lon="30.01332325860858">
        <ele>79.450000000000003</ele>
        <time>2026-04-25T09:17:43Z</time>
      </trkpt>
      <trkpt lat="59.082037881016731" lon="30.013310350477695">
        <ele>79.450000000000003</ele>
        <time>2026-04-25T09:17:55Z</time>
      </trkpt>
      <trkpt lat="59.082127399742603" lon="30.013305321335793">
        <ele>78.969999999999999</ele>
        <time>2026-04-25T09:18:12Z</time>
      </trkpt>
      <trkpt lat="59.082205351442099" lon="30.013282774016261">
        <ele>78.969999999999999</ele>
        <time>2026-04-25T09:18:25Z</time>
      </trkpt>
      <trkpt lat="59.082298474386334" lon="30.013230554759502">
        <ele>78.480000000000004</ele>
        <time>2026-04-25T09:18:39Z</time>
      </trkpt>
      <trkpt lat="59.082409786060452" lon="30.01321429386735">
        <ele>78</ele>
        <time>2026-04-25T09:18:52Z</time>
      </trkpt>
      <trkpt lat="59.082498047500849" lon="30.013170875608921">
        <ele>78</ele>
        <time>2026-04-25T09:19:07Z</time>
      </trkpt>
      <trkpt lat="59.082564264535904" lon="30.013127792626619">
        <ele>78</ele>
        <time>2026-04-25T09:19:20Z</time>
      </trkpt>
      <trkpt lat="59.082650011405349" lon="30.013127792626619">
        <ele>78</ele>
        <time>2026-04-25T09:19:33Z</time>
      </trkpt>
      <trkpt lat="59.08270918764174" lon="30.013120416551828">
        <ele>78</ele>
        <time>2026-04-25T09:19:47Z</time>
      </trkpt>
      <trkpt lat="59.082758640870452" lon="30.013124942779541">
        <ele>78</ele>
        <time>2026-04-25T09:20:01Z</time>
      </trkpt>
      <trkpt lat="59.082811949774623" lon="30.01310683786869">
        <ele>78</ele>
        <time>2026-04-25T09:20:17Z</time>
      </trkpt>
      <trkpt lat="59.082856457680464" lon="30.01307800412178">
        <ele>78</ele>
        <time>2026-04-25T09:20:24Z</time>
      </trkpt>
      <trkpt lat="59.082924351096153" lon="30.012985467910767">
        <ele>78</ele>
        <time>2026-04-25T09:20:38Z</time>
      </trkpt>
      <trkpt lat="59.082987634465098" lon="30.012901565060019">
        <ele>78</ele>
        <time>2026-04-25T09:20:50Z</time>
      </trkpt>
      <trkpt lat="59.083014456555247" lon="30.012858984991908">
        <ele>78</ele>
        <time>2026-04-25T09:20:54Z</time>
      </trkpt>
      <trkpt lat="59.083110513165593" lon="30.012752115726471">
        <ele>78</ele>
        <time>2026-04-25T09:21:07Z</time>
      </trkpt>
      <trkpt lat="59.083147225901484" lon="30.01270517706871">
        <ele>77.519999999999996</ele>
        <time>2026-04-25T09:21:19Z</time>
      </trkpt>
      <trkpt lat="59.083182429894805" lon="30.012717498466372">
        <ele>77.040000000000006</ele>
        <time>2026-04-25T09:21:39Z</time>
      </trkpt>
      <trkpt lat="59.083179831504822" lon="30.012722946703434">
        <ele>78.480000000000004</ele>
        <time>2026-04-25T09:21:41Z</time>
      </trkpt>
      <trkpt lat="59.083207910880446" lon="30.012746164575219">
        <ele>77.040000000000006</ele>
        <time>2026-04-25T09:22:03Z</time>
      </trkpt>
      <trkpt lat="59.083235403522849" lon="30.01267877407372">
        <ele>78.480000000000004</ele>
        <time>2026-04-25T09:22:13Z</time>
      </trkpt>
      <trkpt lat="59.083267841488123" lon="30.012632170692086">
        <ele>78.480000000000004</ele>
        <time>2026-04-25T09:22:25Z</time>
      </trkpt>
      <trkpt lat="59.083349900320172" lon="30.012525469064713">
        <ele>78.480000000000004</ele>
        <time>2026-04-25T09:22:37Z</time>
      </trkpt>
      <trkpt lat="59.083378650248051" lon="30.01246134750545">
        <ele>76.560000000000002</ele>
        <time>2026-04-25T09:22:50Z</time>
      </trkpt>
      <trkpt lat="59.083380745723844" lon="30.012448355555534">
        <ele>78</ele>
        <time>2026-04-25T09:22:55Z</time>
      </trkpt>
      <trkpt lat="59.083376973867416" lon="30.012441230937839">
        <ele>78.480000000000004</ele>
        <time>2026-04-25T09:23:17Z</time>
      </trkpt>
      <trkpt lat="59.083376470953226" lon="30.012438297271729">
        <ele>77.040000000000006</ele>
        <time>2026-04-25T09:23:24Z</time>
      </trkpt>
      <trkpt lat="59.083368172869086" lon="30.012416420504451">
        <ele>78</ele>
        <time>2026-04-25T09:23:40Z</time>
      </trkpt>
      <trkpt lat="59.083347888663411" lon="30.012347185984254">
        <ele>78</ele>
        <time>2026-04-25T09:23:53Z</time>
      </trkpt>
      <trkpt lat="59.083346547558904" lon="30.012322962284088">
        <ele>78</ele>
        <time>2026-04-25T09:24:06Z</time>
      </trkpt>
      <trkpt lat="59.083338500931859" lon="30.012272838503122">
        <ele>78.480000000000004</ele>
        <time>2026-04-25T09:24:23Z</time>
      </trkpt>
      <trkpt lat="59.083333471789956" lon="30.0122653786093">
        <ele>78.969999999999999</ele>
        <time>2026-04-25T09:24:39Z</time>
      </trkpt>
      <trkpt lat="59.083333974704146" lon="30.012263115495443">
        <ele>78</ele>
        <time>2026-04-25T09:24:44Z</time>
      </trkpt>
      <trkpt lat="59.083342859521508" lon="30.012270743027329">
        <ele>78.969999999999999</ele>
        <time>2026-04-25T09:24:59Z</time>
      </trkpt>
      <trkpt lat="59.08335174433887" lon="30.012270491570234">
        <ele>78</ele>
        <time>2026-04-25T09:25:22Z</time>
      </trkpt>
      <trkpt lat="59.083348475396633" lon="30.012265043333173">
        <ele>78.969999999999999</ele>
        <time>2026-04-25T09:25:34Z</time>
      </trkpt>
      <trkpt lat="59.083352331072092" lon="30.01226931810379">
        <ele>78</ele>
        <time>2026-04-25T09:25:51Z</time>
      </trkpt>
      <trkpt lat="59.083351492881775" lon="30.012274095788598">
        <ele>78.969999999999999</ele>
        <time>2026-04-25T09:26:11Z</time>
      </trkpt>
      <trkpt lat="59.083351409062743" lon="30.012261355295777">
        <ele>78</ele>
        <time>2026-04-25T09:26:29Z</time>
      </trkpt>
      <trkpt lat="59.083353923633695" lon="30.012261690571904">
        <ele>78</ele>
        <time>2026-04-25T09:26:59Z</time>
      </trkpt>
      <trkpt lat="59.083350738510489" lon="30.012247608974576">
        <ele>77.519999999999996</ele>
        <time>2026-04-25T09:27:17Z</time>
      </trkpt>
      <trkpt lat="59.083350067958236" lon="30.012239143252373">
        <ele>78.969999999999999</ele>
        <time>2026-04-25T09:27:32Z</time>
      </trkpt>
      <trkpt lat="59.083350067958236" lon="30.012234030291438">
        <ele>77.519999999999996</ele>
        <time>2026-04-25T09:27:42Z</time>
      </trkpt>
      <trkpt lat="59.083346631377935" lon="30.0122135784477">
        <ele>78</ele>
        <time>2026-04-25T09:27:57Z</time>
      </trkpt>
      <trkpt lat="59.083337662741542" lon="30.012161862105131">
        <ele>77.519999999999996</ele>
        <time>2026-04-25T09:28:10Z</time>
      </trkpt>
      <trkpt lat="59.083332046866417" lon="30.012144260108471">
        <ele>77.519999999999996</ele>
        <time>2026-04-25T09:28:15Z</time>
      </trkpt>
      <trkpt lat="59.083325257524848" lon="30.012047532945871">
        <ele>77.040000000000006</ele>
        <time>2026-04-25T09:28:26Z</time>
      </trkpt>
      <trkpt lat="59.083269936963916" lon="30.011842427775264">
        <ele>77.040000000000006</ele>
        <time>2026-04-25T09:28:40Z</time>
      </trkpt>
      <trkpt lat="59.083166839554906" lon="30.011633718386292">
        <ele>77.040000000000006</ele>
        <time>2026-04-25T09:28:53Z</time>
      </trkpt>
      <trkpt lat="59.08316608518362" lon="30.011631371453404">
        <ele>78</ele>
        <time>2026-04-25T09:28:55Z</time>
      </trkpt>
      <trkpt lat="59.083154099062085" lon="30.011611673980951">
        <ele>78</ele>
        <time>2026-04-25T09:29:18Z</time>
      </trkpt>
      <trkpt lat="59.083170862868428" lon="30.011579822748899">
        <ele>77.040000000000006</ele>
        <time>2026-04-25T09:29:32Z</time>
      </trkpt>
      <trkpt lat="59.083185279741883" lon="30.011565070599318">
        <ele>77.040000000000006</ele>
        <time>2026-04-25T09:29:45Z</time>
      </trkpt>
      <trkpt lat="59.083203300833702" lon="30.011526178568602">
        <ele>77.040000000000006</ele>
        <time>2026-04-25T09:29:58Z</time>
      </trkpt>
      <trkpt lat="59.083216711878777" lon="30.011455602943897">
        <ele>77.040000000000006</ele>
        <time>2026-04-25T09:30:12Z</time>
      </trkpt>
      <trkpt lat="59.083194248378277" lon="30.011287881061435">
        <ele>77.040000000000006</ele>
        <time>2026-04-25T09:30:24Z</time>
      </trkpt>
      <trkpt lat="59.083201456815004" lon="30.011204900220037">
        <ele>78.480000000000004</ele>
        <time>2026-04-25T09:30:34Z</time>
      </trkpt>
      <trkpt lat="59.083172371610999" lon="30.011148825287819">
        <ele>77.040000000000006</ele>
        <time>2026-04-25T09:30:44Z</time>
      </trkpt>
      <trkpt lat="59.083141861483455" lon="30.011078082025051">
        <ele>77.040000000000006</ele>
        <time>2026-04-25T09:30:57Z</time>
      </trkpt>
      <trkpt lat="59.08311084844172" lon="30.011028628796339">
        <ele>78</ele>
        <time>2026-04-25T09:31:10Z</time>
      </trkpt>
      <trkpt lat="59.083066508173943" lon="30.01094221137464">
        <ele>78</ele>
        <time>2026-04-25T09:31:26Z</time>
      </trkpt>
      <trkpt lat="59.082979252561927" lon="30.010716067627072">
        <ele>78</ele>
        <time>2026-04-25T09:31:40Z</time>
      </trkpt>
      <trkpt lat="59.08293935470283" lon="30.010565696284175">
        <ele>78</ele>
        <time>2026-04-25T09:31:53Z</time>
      </trkpt>
      <trkpt lat="59.082930218428373" lon="30.010490259155631">
        <ele>78</ele>
        <time>2026-04-25T09:32:07Z</time>
      </trkpt>
      <trkpt lat="59.082921920344234" lon="30.010482631623745">
        <ele>76.560000000000002</ele>
        <time>2026-04-25T09:32:18Z</time>
      </trkpt>
      <trkpt lat="59.082914795726538" lon="30.010475004091859">
        <ele>78</ele>
        <time>2026-04-25T09:32:21Z</time>
      </trkpt>
      <trkpt lat="59.082904318347573" lon="30.010464359074831">
        <ele>77.519999999999996</ele>
        <time>2026-04-25T09:32:39Z</time>
      </trkpt>
      <trkpt lat="59.082904402166605" lon="30.010445080697536">
        <ele>77.040000000000006</ele>
        <time>2026-04-25T09:32:51Z</time>
      </trkpt>
      <trkpt lat="59.082925021648407" lon="30.010390765964985">
        <ele>78.480000000000004</ele>
        <time>2026-04-25T09:33:08Z</time>
      </trkpt>
      <trkpt lat="59.08293105661869" lon="30.010369056835771">
        <ele>78.480000000000004</ele>
        <time>2026-04-25T09:33:21Z</time>
      </trkpt>
      <trkpt lat="59.08294664695859" lon="30.010341480374336">
        <ele>78.969999999999999</ele>
        <time>2026-04-25T09:33:37Z</time>
      </trkpt>
      <trkpt lat="59.082952681928873" lon="30.010332427918911">
        <ele>77.519999999999996</ele>
        <time>2026-04-25T09:33:41Z</time>
      </trkpt>
      <trkpt lat="59.082977324724197" lon="30.010287249460816">
        <ele>77.040000000000006</ele>
        <time>2026-04-25T09:34:00Z</time>
      </trkpt>
      <trkpt lat="59.083003057166934" lon="30.010263193398714">
        <ele>77.040000000000006</ele>
        <time>2026-04-25T09:34:16Z</time>
      </trkpt>
      <trkpt lat="59.083022587001324" lon="30.010235114023089">
        <ele>77.040000000000006</ele>
        <time>2026-04-25T09:34:26Z</time>
      </trkpt>
      <trkpt lat="59.083068938925862" lon="30.010122461244464">
        <ele>78.480000000000004</ele>
        <time>2026-04-25T09:34:36Z</time>
      </trkpt>
      <trkpt lat="59.083070196211338" lon="30.010117935016751">
        <ele>78.480000000000004</ele>
        <time>2026-04-25T09:34:37Z</time>
      </trkpt>
      <trkpt lat="59.083075141534209" lon="30.010069571435452">
        <ele>77.040000000000006</ele>
        <time>2026-04-25T09:34:49Z</time>
      </trkpt>
      <trkpt lat="59.083066675812006" lon="30.010047443211079">
        <ele>78.480000000000004</ele>
        <time>2026-04-25T09:35:06Z</time>
      </trkpt>
      <trkpt lat="59.083048906177282" lon="30.010014669969678">
        <ele>78.480000000000004</ele>
        <time>2026-04-25T09:35:17Z</time>
      </trkpt>
      <trkpt lat="59.083025939762592" lon="30.010002180933952">
        <ele>78.480000000000004</ele>
        <time>2026-04-25T09:35:29Z</time>
      </trkpt>
      <trkpt lat="59.082996351644397" lon="30.009981729090214">
        <ele>78.480000000000004</ele>
        <time>2026-04-25T09:35:49Z</time>
      </trkpt>
      <trkpt lat="59.082984114065766" lon="30.009943759068847">
        <ele>78.480000000000004</ele>
        <time>2026-04-25T09:36:16Z</time>
      </trkpt>
      <trkpt lat="59.0829823538661" lon="30.009937221184373">
        <ele>77.040000000000006</ele>
        <time>2026-04-25T09:36:22Z</time>
      </trkpt>
      <trkpt lat="59.08296667970717" lon="30.009933030232787">
        <ele>78.480000000000004</ele>
        <time>2026-04-25T09:36:47Z</time>
      </trkpt>
      <trkpt lat="59.082961650565267" lon="30.009929928928614">
        <ele>78.480000000000004</ele>
        <time>2026-04-25T09:37:13Z</time>
      </trkpt>
      <trkpt lat="59.082964668050408" lon="30.009935460984707">
        <ele>78.480000000000004</ele>
        <time>2026-04-25T09:37:39Z</time>
      </trkpt>
      <trkpt lat="59.082960058003664" lon="30.009924480691552">
        <ele>78.480000000000004</ele>
        <time>2026-04-25T09:38:02Z</time>
      </trkpt>
      <trkpt lat="59.082953352481127" lon="30.00992582179606">
        <ele>78.480000000000004</ele>
        <time>2026-04-25T09:38:13Z</time>
      </trkpt>
      <trkpt lat="59.082926698029041" lon="30.009922301396728">
        <ele>78.480000000000004</ele>
        <time>2026-04-25T09:38:22Z</time>
      </trkpt>
      <trkpt lat="59.082871126011014" lon="30.009985165670514">
        <ele>78.480000000000004</ele>
        <time>2026-04-25T09:38:33Z</time>
      </trkpt>
      <trkpt lat="59.082822930067778" lon="30.010036211460829">
        <ele>78.969999999999999</ele>
        <time>2026-04-25T09:38:51Z</time>
      </trkpt>
      <trkpt lat="59.082773393020034" lon="30.010032942518592">
        <ele>78.969999999999999</ele>
        <time>2026-04-25T09:39:03Z</time>
      </trkpt>
      <trkpt lat="59.082748582586646" lon="30.010026823729277">
        <ele>77.519999999999996</ele>
        <time>2026-04-25T09:39:11Z</time>
      </trkpt>
      <trkpt lat="59.082694016396999" lon="30.010039731860161">
        <ele>77.519999999999996</ele>
        <time>2026-04-25T09:39:19Z</time>
      </trkpt>
      <trkpt lat="59.082630565389991" lon="30.010037552565336">
        <ele>78.969999999999999</ele>
        <time>2026-04-25T09:39:24Z</time>
      </trkpt>
      <trkpt lat="59.082595277577639" lon="30.010051634162664">
        <ele>77.519999999999996</ele>
        <time>2026-04-25T09:39:34Z</time>
      </trkpt>
      <trkpt lat="59.082551691681147" lon="30.010130926966667">
        <ele>77.519999999999996</ele>
        <time>2026-04-25T09:39:48Z</time>
      </trkpt>
      <trkpt lat="59.082535598427057" lon="30.010159509256482">
        <ele>78.480000000000004</ele>
        <time>2026-04-25T09:39:53Z</time>
      </trkpt>
      <trkpt lat="59.082523360848427" lon="30.010221367701888">
        <ele>78.969999999999999</ele>
        <time>2026-04-25T09:40:09Z</time>
      </trkpt>
      <trkpt lat="59.082523193210363" lon="30.010275011882186">
        <ele>78.969999999999999</ele>
        <time>2026-04-25T09:40:29Z</time>
      </trkpt>
      <trkpt lat="59.082520678639412" lon="30.010311221703887">
        <ele>78.480000000000004</ele>
        <time>2026-04-25T09:40:53Z</time>
      </trkpt>
      <trkpt lat="59.082518834620714" lon="30.010315496474504">
        <ele>78.480000000000004</ele>
        <time>2026-04-25T09:41:09Z</time>
      </trkpt>
      <trkpt lat="59.082518247887492" lon="30.010321196168661">
        <ele>78</ele>
        <time>2026-04-25T09:41:22Z</time>
      </trkpt>
      <trkpt lat="59.082516068592668" lon="30.010341480374336">
        <ele>78</ele>
        <time>2026-04-25T09:41:39Z</time>
      </trkpt>
      <trkpt lat="59.082516152411699" lon="30.010346090421081">
        <ele>79.450000000000003</ele>
        <time>2026-04-25T09:41:42Z</time>
      </trkpt>
      <trkpt lat="59.082524869590998" lon="30.010387832298875">
        <ele>78.480000000000004</ele>
        <time>2026-04-25T09:41:56Z</time>
      </trkpt>
      <trkpt lat="59.082535682246089" lon="30.010501742362976">
        <ele>78.480000000000004</ele>
        <time>2026-04-25T09:42:09Z</time>
      </trkpt>
      <trkpt lat="59.082604162395" lon="30.010580867528915">
        <ele>79.450000000000003</ele>
        <time>2026-04-25T09:42:27Z</time>
      </trkpt>
      <trkpt lat="59.082603408023715" lon="30.01062604598701">
        <ele>78</ele>
        <time>2026-04-25T09:42:55Z</time>
      </trkpt>
      <trkpt lat="59.082603994756937" lon="30.010627387091517">
        <ele>77.519999999999996</ele>
        <time>2026-04-25T09:43:10Z</time>
      </trkpt>
      <trkpt lat="59.082618160173297" lon="30.010870043188334">
        <ele>77.040000000000006</ele>
        <time>2026-04-25T09:43:25Z</time>
      </trkpt>
      <trkpt lat="59.082680521532893" lon="30.011082272976637">
        <ele>77.040000000000006</ele>
        <time>2026-04-25T09:43:37Z</time>
      </trkpt>
      <trkpt lat="59.082731232047081" lon="30.011277990415692">
        <ele>78.969999999999999</ele>
        <time>2026-04-25T09:43:50Z</time>
      </trkpt>
      <trkpt lat="59.0827302262187" lon="30.011279247701168">
        <ele>78.969999999999999</ele>
        <time>2026-04-25T09:43:51Z</time>
      </trkpt>
      <trkpt lat="59.08271262422204" lon="30.011488543823361">
        <ele>79.450000000000003</ele>
        <time>2026-04-25T09:44:04Z</time>
      </trkpt>
      <trkpt lat="59.082711199298501" lon="30.011542188003659">
        <ele>78</ele>
        <time>2026-04-25T09:44:13Z</time>
      </trkpt>
      <trkpt lat="59.082717737182975" lon="30.011653080582619">
        <ele>77.519999999999996</ele>
        <time>2026-04-25T09:44:24Z</time>
      </trkpt>
      <trkpt lat="59.08274875022471" lon="30.011870842427015">
        <ele>78.969999999999999</ele>
        <time>2026-04-25T09:44:37Z</time>
      </trkpt>
      <trkpt lat="59.082771968096495" lon="30.012019202113152">
        <ele>78</ele>
        <time>2026-04-25T09:44:50Z</time>
      </trkpt>
      <trkpt lat="59.082788145169616" lon="30.012135207653046">
        <ele>78</ele>
        <time>2026-04-25T09:45:01Z</time>
      </trkpt>
      <trkpt lat="59.082799628376961" lon="30.012164460495114">
        <ele>77.519999999999996</ele>
        <time>2026-04-25T09:45:28Z</time>
      </trkpt>
      <trkpt lat="59.0828010533005" lon="30.012169489637017">
        <ele>77.040000000000006</ele>
        <time>2026-04-25T09:45:42Z</time>
      </trkpt>
      <trkpt lat="59.082802562043071" lon="30.012185415253043">
        <ele>78.480000000000004</ele>
        <time>2026-04-25T09:46:04Z</time>
      </trkpt>
      <trkpt lat="59.08278638496995" lon="30.012215925380588">
        <ele>78.480000000000004</ele>
        <time>2026-04-25T09:46:22Z</time>
      </trkpt>
      <trkpt lat="59.082768112421036" lon="30.012241154909134">
        <ele>77.040000000000006</ele>
        <time>2026-04-25T09:46:28Z</time>
      </trkpt>
      <trkpt lat="59.08273315988481" lon="30.012306701391935">
        <ele>78.480000000000004</ele>
        <time>2026-04-25T09:46:32Z</time>
      </trkpt>
      <trkpt lat="59.082685047760606" lon="30.012364620342851">
        <ele>77.040000000000006</ele>
        <time>2026-04-25T09:46:40Z</time>
      </trkpt>
      <trkpt lat="59.082618663087487" lon="30.012507699429989">
        <ele>78.480000000000004</ele>
        <time>2026-04-25T09:46:55Z</time>
      </trkpt>
      <trkpt lat="59.082610365003347" lon="30.012555476278067">
        <ele>77.040000000000006</ele>
        <time>2026-04-25T09:47:01Z</time>
      </trkpt>
      <trkpt lat="59.082555128261447" lon="30.012596379965544">
        <ele>77.519999999999996</ele>
        <time>2026-04-25T09:47:13Z</time>
      </trkpt>
      <trkpt lat="59.082499472424388" lon="30.0125952064991">
        <ele>77.519999999999996</ele>
        <time>2026-04-25T09:47:25Z</time>
      </trkpt>
      <trkpt lat="59.082432836294174" lon="30.012588333338499">
        <ele>78</ele>
        <time>2026-04-25T09:47:37Z</time>
      </trkpt>
      <trkpt lat="59.082413138821721" lon="30.012567127123475">
        <ele>78.480000000000004</ele>
        <time>2026-04-25T09:48:01Z</time>
      </trkpt>
      <trkpt lat="59.082409031689167" lon="30.012597301974893">
        <ele>77.519999999999996</ele>
        <time>2026-04-25T09:48:35Z</time>
      </trkpt>
      <trkpt lat="59.082401907071471" lon="30.012578023597598">
        <ele>77.519999999999996</ele>
        <time>2026-04-25T09:48:50Z</time>
      </trkpt>
      <trkpt lat="59.082380952313542" lon="30.012518344447017">
        <ele>78.969999999999999</ele>
        <time>2026-04-25T09:48:58Z</time>
      </trkpt>
      <trkpt lat="59.082355471327901" lon="30.012397142127156">
        <ele>78.969999999999999</ele>
        <time>2026-04-25T09:49:14Z</time>
      </trkpt>
      <trkpt lat="59.082319848239422" lon="30.012271916493773">
        <ele>77.519999999999996</ele>
        <time>2026-04-25T09:49:26Z</time>
      </trkpt>
      <trkpt lat="59.08230802975595" lon="30.012223469093442">
        <ele>77.519999999999996</ele>
        <time>2026-04-25T09:49:36Z</time>
      </trkpt>
      <trkpt lat="59.082288080826402" lon="30.012172171846032">
        <ele>77.519999999999996</ele>
        <time>2026-04-25T09:49:45Z</time>
      </trkpt>
      <trkpt lat="59.082203926518559" lon="30.011960277333856">
        <ele>77.519999999999996</ele>
        <time>2026-04-25T09:49:57Z</time>
      </trkpt>
      <trkpt lat="59.08219076693058" lon="30.011797584593296">
        <ele>77.519999999999996</ele>
        <time>2026-04-25T09:50:10Z</time>
      </trkpt>
      <trkpt lat="59.082202417775989" lon="30.011731283739209">
        <ele>79.450000000000003</ele>
        <time>2026-04-25T09:50:25Z</time>
      </trkpt>
      <trkpt lat="59.082196298986673" lon="30.011646542698145">
        <ele>79.450000000000003</ele>
        <time>2026-04-25T09:50:41Z</time>
      </trkpt>
      <trkpt lat="59.082198645919561" lon="30.011626845225692">
        <ele>78</ele>
        <time>2026-04-25T09:50:45Z</time>
      </trkpt>
      <trkpt lat="59.082198897376657" lon="30.011537494137883">
        <ele>78.969999999999999</ele>
        <time>2026-04-25T09:50:58Z</time>
      </trkpt>
      <trkpt lat="59.082206441089511" lon="30.011401539668441">
        <ele>78.969999999999999</ele>
        <time>2026-04-25T09:51:18Z</time>
      </trkpt>
      <trkpt lat="59.082201244309545" lon="30.011361055076122">
        <ele>78.969999999999999</ele>
        <time>2026-04-25T09:51:36Z</time>
      </trkpt>
      <trkpt lat="59.082206944003701" lon="30.011292323470116">
        <ele>77.519999999999996</ele>
        <time>2026-04-25T09:51:50Z</time>
      </trkpt>
      <trkpt lat="59.08222982659936" lon="30.011178413406014">
        <ele>78.969999999999999</ele>
        <time>2026-04-25T09:52:10Z</time>
      </trkpt>
      <trkpt lat="59.082229239866138" lon="30.011176317930222">
        <ele>78.969999999999999</ele>
        <time>2026-04-25T09:52:11Z</time>
      </trkpt>
      <trkpt lat="59.082220187410712" lon="30.011159470304847">
        <ele>78.969999999999999</ele>
        <time>2026-04-25T09:52:27Z</time>
      </trkpt>
      <trkpt lat="59.082220019772649" lon="30.011157626286149">
        <ele>78</ele>
        <time>2026-04-25T09:52:30Z</time>
      </trkpt>
      <trkpt lat="59.082194538787007" lon="30.011137761175632">
        <ele>78</ele>
        <time>2026-04-25T09:52:44Z</time>
      </trkpt>
      <trkpt lat="59.08214533701539" lon="30.011115549132228">
        <ele>78</ele>
        <time>2026-04-25T09:52:57Z</time>
      </trkpt>
      <trkpt lat="59.082123376429081" lon="30.011038519442081">
        <ele>78</ele>
        <time>2026-04-25T09:53:09Z</time>
      </trkpt>
      <trkpt lat="59.082062523812056" lon="30.010844059288502">
        <ele>79.450000000000003</ele>
        <time>2026-04-25T09:53:21Z</time>
      </trkpt>
      <trkpt lat="59.082059925422072" lon="30.010825451463461">
        <ele>79.450000000000003</ele>
        <time>2026-04-25T09:53:22Z</time>
      </trkpt>
      <trkpt lat="59.082022374495864" lon="30.010674996301532">
        <ele>78</ele>
        <time>2026-04-25T09:53:41Z</time>
      </trkpt>
      <trkpt lat="59.081997061148286" lon="30.010629650205374">
        <ele>78.969999999999999</ele>
        <time>2026-04-25T09:54:13Z</time>
      </trkpt>
      <trkpt lat="59.081985494121909" lon="30.010642725974321">
        <ele>78.969999999999999</ele>
        <time>2026-04-25T09:54:33Z</time>
      </trkpt>
      <trkpt lat="59.081977950409055" lon="30.010644653812051">
        <ele>79.450000000000003</ele>
        <time>2026-04-25T09:54:43Z</time>
      </trkpt>
      <trkpt lat="59.081970155239105" lon="30.010660914704204">
        <ele>78</ele>
        <time>2026-04-25T09:54:51Z</time>
      </trkpt>
      <trkpt lat="59.081916175782681" lon="30.010670470073819">
        <ele>77.519999999999996</ele>
        <time>2026-04-25T09:55:06Z</time>
      </trkpt>
      <trkpt lat="59.08190737478435" lon="30.010673655197024">
        <ele>78.969999999999999</ele>
        <time>2026-04-25T09:55:16Z</time>
      </trkpt>
      <trkpt lat="59.081883151084185" lon="30.01068958081305">
        <ele>79.450000000000003</ele>
        <time>2026-04-25T09:55:38Z</time>
      </trkpt>
      <trkpt lat="59.081820202991366" lon="30.01065974123776">
        <ele>79.450000000000003</ele>
        <time>2026-04-25T09:55:52Z</time>
      </trkpt>
      <trkpt lat="59.081787765026093" lon="30.010697208344936">
        <ele>79.930000000000007</ele>
        <time>2026-04-25T09:56:08Z</time>
      </trkpt>
      <trkpt lat="59.081704868003726" lon="30.010797120630741">
        <ele>78.480000000000004</ele>
        <time>2026-04-25T09:56:21Z</time>
      </trkpt>
      <trkpt lat="59.081637728959322" lon="30.010876161977649">
        <ele>78.480000000000004</ele>
        <time>2026-04-25T09:56:35Z</time>
      </trkpt>
      <trkpt lat="59.081631023436785" lon="30.010879766196012">
        <ele>79.930000000000007</ele>
        <time>2026-04-25T09:56:37Z</time>
      </trkpt>
      <trkpt lat="59.081600261852145" lon="30.010922094807029">
        <ele>79.930000000000007</ele>
        <time>2026-04-25T09:56:50Z</time>
      </trkpt>
      <trkpt lat="59.081558519974351" lon="30.011023683473468">
        <ele>78.969999999999999</ele>
        <time>2026-04-25T09:57:14Z</time>
      </trkpt>
      <trkpt lat="59.081549299880862" lon="30.011134995147586">
        <ele>78.969999999999999</ele>
        <time>2026-04-25T09:57:30Z</time>
      </trkpt>
      <trkpt lat="59.081545360386372" lon="30.011200122535229">
        <ele>78.969999999999999</ele>
        <time>2026-04-25T09:57:43Z</time>
      </trkpt>
      <trkpt lat="59.081555837765336" lon="30.011279247701168">
        <ele>78.969999999999999</ele>
        <time>2026-04-25T09:57:57Z</time>
      </trkpt>
      <trkpt lat="59.081615600734949" lon="30.011406149715185">
        <ele>79.930000000000007</ele>
        <time>2026-04-25T09:58:13Z</time>
      </trkpt>
      <trkpt lat="59.081612415611744" lon="30.01145526766777">
        <ele>78.480000000000004</ele>
        <time>2026-04-25T09:58:29Z</time>
      </trkpt>
      <trkpt lat="59.081675698980689" lon="30.011513773351908">
        <ele>79.930000000000007</ele>
        <time>2026-04-25T09:58:47Z</time>
      </trkpt>
      <trkpt lat="59.081703359261155" lon="30.011689541861415">
        <ele>78.480000000000004</ele>
        <time>2026-04-25T09:58:59Z</time>
      </trkpt>
      <trkpt lat="59.081747448071837" lon="30.011754585430026">
        <ele>78.480000000000004</ele>
        <time>2026-04-25T09:59:14Z</time>
      </trkpt>
      <trkpt lat="59.081798912957311" lon="30.011977041140199">
        <ele>79.930000000000007</ele>
        <time>2026-04-25T09:59:26Z</time>
      </trkpt>
      <trkpt lat="59.081864710897207" lon="30.012127244845033">
        <ele>78.480000000000004</ele>
        <time>2026-04-25T09:59:37Z</time>
      </trkpt>
      <trkpt lat="59.081873595714569" lon="30.012261774390936">
        <ele>79.930000000000007</ele>
        <time>2026-04-25T09:59:42Z</time>
      </trkpt>
      <trkpt lat="59.081909051164985" lon="30.012419521808624">
        <ele>79.930000000000007</ele>
        <time>2026-04-25T09:59:54Z</time>
      </trkpt>
      <trkpt lat="59.081926150247455" lon="30.012509459629655">
        <ele>79.930000000000007</ele>
        <time>2026-04-25T10:00:06Z</time>
      </trkpt>
      <trkpt lat="59.081959426403046" lon="30.012570982798934">
        <ele>79.930000000000007</ele>
        <time>2026-04-25T10:00:19Z</time>
      </trkpt>
      <trkpt lat="59.081946015357971" lon="30.012561092153192">
        <ele>79.930000000000007</ele>
        <time>2026-04-25T10:00:49Z</time>
      </trkpt>
      <trkpt lat="59.081939477473497" lon="30.012559751048684">
        <ele>79.930000000000007</ele>
        <time>2026-04-25T10:01:06Z</time>
      </trkpt>
      <trkpt lat="59.081858843564987" lon="30.012556314468384">
        <ele>79.930000000000007</ele>
        <time>2026-04-25T10:01:18Z</time>
      </trkpt>
      <trkpt lat="59.081804780289531" lon="30.01261574216187">
        <ele>79.930000000000007</ele>
        <time>2026-04-25T10:01:31Z</time>
      </trkpt>
      <trkpt lat="59.081786843016744" lon="30.012639127671719">
        <ele>79.930000000000007</ele>
        <time>2026-04-25T10:01:48Z</time>
      </trkpt>
      <trkpt lat="59.081765050068498" lon="30.012643486261368">
        <ele>78.969999999999999</ele>
        <time>2026-04-25T10:02:07Z</time>
      </trkpt>
      <trkpt lat="59.08171433955431" lon="30.012636026367545">
        <ele>80.409999999999997</ele>
        <time>2026-04-25T10:02:14Z</time>
      </trkpt>
      <trkpt lat="59.081687349826097" lon="30.01264214515686">
        <ele>78.969999999999999</ele>
        <time>2026-04-25T10:02:16Z</time>
      </trkpt>
      <trkpt lat="59.08155994489789" lon="30.012732250615954">
        <ele>78.969999999999999</ele>
        <time>2026-04-25T10:02:33Z</time>
      </trkpt>
      <trkpt lat="59.081514850258827" lon="30.012751277536154">
        <ele>80.890000000000001</ele>
        <time>2026-04-25T10:02:51Z</time>
      </trkpt>
      <trkpt lat="59.081528009846807" lon="30.012717247009277">
        <ele>80.409999999999997</ele>
        <time>2026-04-25T10:03:24Z</time>
      </trkpt>
      <trkpt lat="59.081524657085538" lon="30.012723030522466">
        <ele>79.930000000000007</ele>
        <time>2026-04-25T10:03:56Z</time>
      </trkpt>
      <trkpt lat="59.081525076180696" lon="30.012711295858026">
        <ele>80.890000000000001</ele>
        <time>2026-04-25T10:04:22Z</time>
      </trkpt>
      <trkpt lat="59.081524405628443" lon="30.012707440182567">
        <ele>79.450000000000003</ele>
        <time>2026-04-25T10:04:31Z</time>
      </trkpt>
      <trkpt lat="59.081529602408409" lon="30.012712050229311">
        <ele>80.890000000000001</ele>
        <time>2026-04-25T10:04:50Z</time>
      </trkpt>
      <trkpt lat="59.081535553559661" lon="30.012713307514787">
        <ele>80.890000000000001</ele>
        <time>2026-04-25T10:05:25Z</time>
      </trkpt>
      <trkpt lat="59.081528009846807" lon="30.012694532051682">
        <ele>80.890000000000001</ele>
        <time>2026-04-25T10:05:50Z</time>
      </trkpt>
      <trkpt lat="59.081527423113585" lon="30.012693777680397">
        <ele>79.450000000000003</ele>
        <time>2026-04-25T10:05:52Z</time>
      </trkpt>
      <trkpt lat="59.08152524381876" lon="30.01270467415452">
        <ele>79.930000000000007</ele>
        <time>2026-04-25T10:06:14Z</time>
      </trkpt>
      <trkpt lat="59.081530859693885" lon="30.01270123757422">
        <ele>78.969999999999999</ele>
        <time>2026-04-25T10:06:38Z</time>
      </trkpt>
      <trkpt lat="59.081526501104236" lon="30.012695454061031">
        <ele>79.930000000000007</ele>
        <time>2026-04-25T10:06:50Z</time>
      </trkpt>
      <trkpt lat="59.081525830551982" lon="30.012707272544503">
        <ele>79.450000000000003</ele>
        <time>2026-04-25T10:07:05Z</time>
      </trkpt>
      <trkpt lat="59.081525914371014" lon="30.012705093249679">
        <ele>78.969999999999999</ele>
        <time>2026-04-25T10:07:37Z</time>
      </trkpt>
      <trkpt lat="59.08151401206851" lon="30.012675588950515">
        <ele>78.969999999999999</ele>
        <time>2026-04-25T10:08:09Z</time>
      </trkpt>
      <trkpt lat="59.081509904935956" lon="30.012661926448345">
        <ele>78.969999999999999</ele>
        <time>2026-04-25T10:08:33Z</time>
      </trkpt>
      <trkpt lat="59.081508982926607" lon="30.012641726061702">
        <ele>78.969999999999999</ele>
        <time>2026-04-25T10:09:04Z</time>
      </trkpt>
      <trkpt lat="59.081508982926607" lon="30.012633679434657">
        <ele>79.930000000000007</ele>
        <time>2026-04-25T10:09:14Z</time>
      </trkpt>
      <trkpt lat="59.081509234383702" lon="30.012619849294424">
        <ele>78.969999999999999</ele>
        <time>2026-04-25T10:09:34Z</time>
      </trkpt>
      <trkpt lat="59.081506635993719" lon="30.012629991397262">
        <ele>80.409999999999997</ele>
        <time>2026-04-25T10:09:49Z</time>
      </trkpt>
      <trkpt lat="59.081504205241799" lon="30.012599397450686">
        <ele>80.409999999999997</ele>
        <time>2026-04-25T10:10:07Z</time>
      </trkpt>
      <trkpt lat="59.081498757004738" lon="30.012611551210284">
        <ele>79.450000000000003</ele>
        <time>2026-04-25T10:10:27Z</time>
      </trkpt>
      <trkpt lat="59.081497834995389" lon="30.012613646686077">
        <ele>79.450000000000003</ele>
        <time>2026-04-25T10:10:28Z</time>
      </trkpt>
      <trkpt lat="59.081480400636792" lon="30.012583220377564">
        <ele>80.409999999999997</ele>
        <time>2026-04-25T10:10:42Z</time>
      </trkpt>
      <trkpt lat="59.081456512212753" lon="30.012495378032327">
        <ele>80.409999999999997</ele>
        <time>2026-04-25T10:10:53Z</time>
      </trkpt>
      <trkpt lat="59.081423487514257" lon="30.01241147518158">
        <ele>80.409999999999997</ele>
        <time>2026-04-25T10:11:05Z</time>
      </trkpt>
      <trkpt lat="59.081330532208085" lon="30.012079635635018">
        <ele>80.890000000000001</ele>
        <time>2026-04-25T10:11:20Z</time>
      </trkpt>
      <trkpt lat="59.081290382891893" lon="30.011902693659067">
        <ele>80.890000000000001</ele>
        <time>2026-04-25T10:11:36Z</time>
      </trkpt>
      <trkpt lat="59.081247886642814" lon="30.011780150234699">
        <ele>80.890000000000001</ele>
        <time>2026-04-25T10:11:50Z</time>
      </trkpt>
      <trkpt lat="59.081237576901913" lon="30.011693648993969">
        <ele>79.930000000000007</ele>
        <time>2026-04-25T10:12:09Z</time>
      </trkpt>
      <trkpt lat="59.081292226910591" lon="30.011529447510839">
        <ele>79.930000000000007</ele>
        <time>2026-04-25T10:12:24Z</time>
      </trkpt>
      <trkpt lat="59.081302369013429" lon="30.011370526626706">
        <ele>79.930000000000007</ele>
        <time>2026-04-25T10:12:42Z</time>
      </trkpt>
      <trkpt lat="59.081273870542645" lon="30.011217473074794">
        <ele>79.930000000000007</ele>
        <time>2026-04-25T10:12:54Z</time>
      </trkpt>
      <trkpt lat="59.081260208040476" lon="30.011190818622708">
        <ele>81.370000000000005</ele>
        <time>2026-04-25T10:13:07Z</time>
      </trkpt>
      <trkpt lat="59.081227015703917" lon="30.011173216626048">
        <ele>81.370000000000005</ele>
        <time>2026-04-25T10:13:17Z</time>
      </trkpt>
      <trkpt lat="59.081167252734303" lon="30.011059641838074">
        <ele>81.370000000000005</ele>
        <time>2026-04-25T10:13:29Z</time>
      </trkpt>
      <trkpt lat="59.081114111468196" lon="30.011005327105522">
        <ele>81.370000000000005</ele>
        <time>2026-04-25T10:13:42Z</time>
      </trkpt>
      <trkpt lat="59.081092234700918" lon="30.011010942980647">
        <ele>81.370000000000005</ele>
        <time>2026-04-25T10:14:09Z</time>
      </trkpt>
      <trkpt lat="59.081057701259851" lon="30.011053690686822">
        <ele>81.849999999999994</ele>
        <time>2026-04-25T10:14:21Z</time>
      </trkpt>
      <trkpt lat="59.081050828099251" lon="30.011057378724217">
        <ele>80.409999999999997</ele>
        <time>2026-04-25T10:14:27Z</time>
      </trkpt>
      <trkpt lat="59.081036159768701" lon="30.011062743142247">
        <ele>80.409999999999997</ele>
        <time>2026-04-25T10:14:31Z</time>
      </trkpt>
      <trkpt lat="59.080917639657855" lon="30.011107670143247">
        <ele>80.409999999999997</ele>
        <time>2026-04-25T10:14:44Z</time>
      </trkpt>
      <trkpt lat="59.080866258591413" lon="30.011086631566286">
        <ele>81.849999999999994</ele>
        <time>2026-04-25T10:14:53Z</time>
      </trkpt>
      <trkpt lat="59.080831976607442" lon="30.011112112551928">
        <ele>81.849999999999994</ele>
        <time>2026-04-25T10:15:00Z</time>
      </trkpt>
      <trkpt lat="59.080693172290921" lon="30.011128960177302">
        <ele>81.849999999999994</ele>
        <time>2026-04-25T10:15:15Z</time>
      </trkpt>
      <trkpt lat="59.080672133713961" lon="30.011201463639736">
        <ele>82.329999999999998</ele>
        <time>2026-04-25T10:15:26Z</time>
      </trkpt>
      <trkpt lat="59.080661656334996" lon="30.01122317276895">
        <ele>81.370000000000005</ele>
        <time>2026-04-25T10:15:45Z</time>
      </trkpt>
      <trkpt lat="59.080670122057199" lon="30.011268518865108">
        <ele>81.370000000000005</ele>
        <time>2026-04-25T10:16:13Z</time>
      </trkpt>
      <trkpt lat="59.080696860328317" lon="30.011327946558595">
        <ele>82.810000000000002</ele>
        <time>2026-04-25T10:16:29Z</time>
      </trkpt>
      <trkpt lat="59.080693507567048" lon="30.011353511363268">
        <ele>81.849999999999994</ele>
        <time>2026-04-25T10:16:53Z</time>
      </trkpt>
      <trkpt lat="59.080698452889919" lon="30.011347644031048">
        <ele>81.849999999999994</ele>
        <time>2026-04-25T10:17:15Z</time>
      </trkpt>
      <trkpt lat="59.08069652505219" lon="30.011364826932549">
        <ele>81.849999999999994</ele>
        <time>2026-04-25T10:17:43Z</time>
      </trkpt>
      <trkpt lat="59.080774309113622" lon="30.011581666767597">
        <ele>81.849999999999994</ele>
        <time>2026-04-25T10:17:58Z</time>
      </trkpt>
      <trkpt lat="59.080840274691582" lon="30.011786604300141">
        <ele>81.849999999999994</ele>
        <time>2026-04-25T10:18:13Z</time>
      </trkpt>
      <trkpt lat="59.080855948850513" lon="30.011810828000307">
        <ele>80.890000000000001</ele>
        <time>2026-04-25T10:18:24Z</time>
      </trkpt>
      <trkpt lat="59.080867012962699" lon="30.011820634827018">
        <ele>82.810000000000002</ele>
        <time>2026-04-25T10:18:38Z</time>
      </trkpt>
      <trkpt lat="59.080902636051178" lon="30.011892132461071">
        <ele>82.810000000000002</ele>
        <time>2026-04-25T10:18:53Z</time>
      </trkpt>
      <trkpt lat="59.080947898328304" lon="30.012115426361561">
        <ele>82.810000000000002</ele>
        <time>2026-04-25T10:19:06Z</time>
      </trkpt>
      <trkpt lat="59.080976061522961" lon="30.012405104935169">
        <ele>82.810000000000002</ele>
        <time>2026-04-25T10:19:20Z</time>
      </trkpt>
      <trkpt lat="59.081019144505262" lon="30.012666955590248">
        <ele>80.890000000000001</ele>
        <time>2026-04-25T10:19:34Z</time>
      </trkpt>
      <trkpt lat="59.08104881644249" lon="30.012898379936814">
        <ele>81.849999999999994</ele>
        <time>2026-04-25T10:19:48Z</time>
      </trkpt>
      <trkpt lat="59.081040937453508" lon="30.012944228947163">
        <ele>81.370000000000005</ele>
        <time>2026-04-25T10:20:11Z</time>
      </trkpt>
      <trkpt lat="59.081039428710938" lon="30.01293140463531">
        <ele>81.370000000000005</ele>
        <time>2026-04-25T10:20:27Z</time>
      </trkpt>
      <trkpt lat="59.08098335377872" lon="30.012894356623292">
        <ele>79.930000000000007</ele>
        <time>2026-04-25T10:20:37Z</time>
      </trkpt>
      <trkpt lat="59.080952676013112" lon="30.012898631393909">
        <ele>79.930000000000007</ele>
        <time>2026-04-25T10:20:40Z</time>
      </trkpt>
      <trkpt lat="59.08086022362113" lon="30.012919921427965">
        <ele>81.370000000000005</ele>
        <time>2026-04-25T10:20:53Z</time>
      </trkpt>
      <trkpt lat="59.080811524763703" lon="30.01298513263464">
        <ele>81.849999999999994</ele>
        <time>2026-04-25T10:21:06Z</time>
      </trkpt>
      <trkpt lat="59.0807287953794" lon="30.013019582256675">
        <ele>81.849999999999994</ele>
        <time>2026-04-25T10:21:19Z</time>
      </trkpt>
      <trkpt lat="59.080625111237168" lon="30.013031149283051">
        <ele>81.849999999999994</ele>
        <time>2026-04-25T10:21:30Z</time>
      </trkpt>
      <trkpt lat="59.080603988841176" lon="30.01304623670876">
        <ele>80.409999999999997</ele>
        <time>2026-04-25T10:21:42Z</time>
      </trkpt>
      <trkpt lat="59.080603066831827" lon="30.013035675510764">
        <ele>81.370000000000005</ele>
        <time>2026-04-25T10:21:49Z</time>
      </trkpt>
      <trkpt lat="59.080566521733999" lon="30.013002483174205">
        <ele>80.409999999999997</ele>
        <time>2026-04-25T10:22:13Z</time>
      </trkpt>
      <trkpt lat="59.080558810383081" lon="30.013006925582886">
        <ele>81.849999999999994</ele>
        <time>2026-04-25T10:22:20Z</time>
      </trkpt>
      <trkpt lat="59.080552775412798" lon="30.013000136241317">
        <ele>81.370000000000005</ele>
        <time>2026-04-25T10:22:39Z</time>
      </trkpt>
      <trkpt lat="59.080552691593766" lon="30.012999465689063">
        <ele>80.409999999999997</ele>
        <time>2026-04-25T10:22:45Z</time>
      </trkpt>
      <trkpt lat="59.080537939444184" lon="30.012995945289731">
        <ele>82.329999999999998</ele>
        <time>2026-04-25T10:23:02Z</time>
      </trkpt>
      <trkpt lat="59.080503322184086" lon="30.0129474978894">
        <ele>80.409999999999997</ele>
        <time>2026-04-25T10:23:17Z</time>
      </trkpt>
      <trkpt lat="59.080452276393771" lon="30.012848423793912">
        <ele>79.930000000000007</ele>
        <time>2026-04-25T10:23:30Z</time>
      </trkpt>
      <trkpt lat="59.080415479838848" lon="30.012759156525135">
        <ele>81.849999999999994</ele>
        <time>2026-04-25T10:23:44Z</time>
      </trkpt>
      <trkpt lat="59.080370552837849" lon="30.012675253674388">
        <ele>80.409999999999997</ele>
        <time>2026-04-25T10:23:51Z</time>
      </trkpt>
      <trkpt lat="59.080356638878584" lon="30.012645833194256">
        <ele>81.370000000000005</ele>
        <time>2026-04-25T10:23:58Z</time>
      </trkpt>
      <trkpt lat="59.080326044932008" lon="30.012504262849689">
        <ele>80.409999999999997</ele>
        <time>2026-04-25T10:24:09Z</time>
      </trkpt>
      <trkpt lat="59.080321434885263" lon="30.012365039438009">
        <ele>80.409999999999997</ele>
        <time>2026-04-25T10:24:22Z</time>
      </trkpt>
      <trkpt lat="59.080316992476583" lon="30.012188935652375">
        <ele>81.370000000000005</ele>
        <time>2026-04-25T10:24:42Z</time>
      </trkpt>
      <trkpt lat="59.080324284732342" lon="30.012052059173584">
        <ele>81.370000000000005</ele>
        <time>2026-04-25T10:24:54Z</time>
      </trkpt>
      <trkpt lat="59.080277513712645" lon="30.011901687830687">
        <ele>81.370000000000005</ele>
        <time>2026-04-25T10:25:08Z</time>
      </trkpt>
      <trkpt lat="59.080278938636184" lon="30.011725416406989">
        <ele>81.849999999999994</ele>
        <time>2026-04-25T10:25:20Z</time>
      </trkpt>
      <trkpt lat="59.080228814855218" lon="30.011484017595649">
        <ele>81.849999999999994</ele>
        <time>2026-04-25T10:25:32Z</time>
      </trkpt>
      <trkpt lat="59.080196712166071" lon="30.011334903538227">
        <ele>81.849999999999994</ele>
        <time>2026-04-25T10:25:45Z</time>
      </trkpt>
      <trkpt lat="59.080199729651213" lon="30.011331550776958">
        <ele>82.810000000000002</ele>
        <time>2026-04-25T10:26:10Z</time>
      </trkpt>
      <trkpt lat="59.080190928652883" lon="30.0113311316818">
        <ele>82.810000000000002</ele>
        <time>2026-04-25T10:26:27Z</time>
      </trkpt>
      <trkpt lat="59.080105936154723" lon="30.011386619880795">
        <ele>83.290000000000006</ele>
        <time>2026-04-25T10:26:41Z</time>
      </trkpt>
      <trkpt lat="59.080060925334692" lon="30.011409083381295">
        <ele>83.290000000000006</ele>
        <time>2026-04-25T10:26:46Z</time>
      </trkpt>
      <trkpt lat="59.079964030534029" lon="30.01142886467278">
        <ele>83.290000000000006</ele>
        <time>2026-04-25T10:27:00Z</time>
      </trkpt>
      <trkpt lat="59.079889347776771" lon="30.011447723954916">
        <ele>82.329999999999998</ele>
        <time>2026-04-25T10:27:14Z</time>
      </trkpt>
      <trkpt lat="59.079850288107991" lon="30.011473372578621">
        <ele>83.290000000000006</ele>
        <time>2026-04-25T10:27:27Z</time>
      </trkpt>
      <trkpt lat="59.079785076901317" lon="30.011479826644063">
        <ele>83.290000000000006</ele>
        <time>2026-04-25T10:27:42Z</time>
      </trkpt>
      <trkpt lat="59.07973294146359" lon="30.011521652340889">
        <ele>83.769999999999996</ele>
        <time>2026-04-25T10:28:03Z</time>
      </trkpt>
      <trkpt lat="59.079710813239217" lon="30.011529950425029">
        <ele>84.25</ele>
        <time>2026-04-25T10:28:39Z</time>
      </trkpt>
      <trkpt lat="59.079709807410836" lon="30.011576972901821">
        <ele>83.290000000000006</ele>
        <time>2026-04-25T10:29:02Z</time>
      </trkpt>
      <trkpt lat="59.079693462699652" lon="30.011689038947225">
        <ele>83.290000000000006</ele>
        <time>2026-04-25T10:29:16Z</time>
      </trkpt>
      <trkpt lat="59.079680386930704" lon="30.011813929304481">
        <ele>82.329999999999998</ele>
        <time>2026-04-25T10:29:27Z</time>
      </trkpt>
      <trkpt lat="59.079671669751406" lon="30.011985674500465">
        <ele>83.290000000000006</ele>
        <time>2026-04-25T10:29:40Z</time>
      </trkpt>
      <trkpt lat="59.079698910936713" lon="30.01197368837893">
        <ele>83.290000000000006</ele>
        <time>2026-04-25T10:29:55Z</time>
      </trkpt>
      <trkpt lat="59.079719111323357" lon="30.011936975643039">
        <ele>83.290000000000006</ele>
        <time>2026-04-25T10:30:08Z</time>
      </trkpt>
      <trkpt lat="59.079745430499315" lon="30.011911075562239">
        <ele>83.290000000000006</ele>
        <time>2026-04-25T10:30:19Z</time>
      </trkpt>
      <trkpt lat="59.07979597337544" lon="30.01191945746541">
        <ele>83.290000000000006</ele>
        <time>2026-04-25T10:30:42Z</time>
      </trkpt>
      <trkpt lat="59.079831345006824" lon="30.011956840753555">
        <ele>84.25</ele>
        <time>2026-04-25T10:31:00Z</time>
      </trkpt>
      <trkpt lat="59.07985171303153" lon="30.012011490762234">
        <ele>82.810000000000002</ele>
        <time>2026-04-25T10:31:09Z</time>
      </trkpt>
      <trkpt lat="59.079861855134368" lon="30.01211148686707">
        <ele>82.329999999999998</ele>
        <time>2026-04-25T10:31:23Z</time>
      </trkpt>
      <trkpt lat="59.079884737730026" lon="30.012236209586263">
        <ele>82.329999999999998</ele>
        <time>2026-04-25T10:31:38Z</time>
      </trkpt>
      <trkpt lat="59.079964198172092" lon="30.012533767148852">
        <ele>82.329999999999998</ele>
        <time>2026-04-25T10:31:55Z</time>
      </trkpt>
      <trkpt lat="59.080021614208817" lon="30.012816740199924">
        <ele>82.329999999999998</ele>
        <time>2026-04-25T10:32:10Z</time>
      </trkpt>
      <trkpt lat="59.080023793503642" lon="30.013058222830296">
        <ele>83.290000000000006</ele>
        <time>2026-04-25T10:32:22Z</time>
      </trkpt>
      <trkpt lat="59.080042652785778" lon="30.013324767351151">
        <ele>81.849999999999994</ele>
        <time>2026-04-25T10:32:37Z</time>
      </trkpt>
      <trkpt lat="59.080047849565744" lon="30.013369359076023">
        <ele>82.810000000000002</ele>
        <time>2026-04-25T10:32:39Z</time>
      </trkpt>
      <trkpt lat="59.08006084151566" lon="30.01349676400423">
        <ele>82.810000000000002</ele>
        <time>2026-04-25T10:32:52Z</time>
      </trkpt>
      <trkpt lat="59.080043993890285" lon="30.013496596366167">
        <ele>82.329999999999998</ele>
        <time>2026-04-25T10:33:20Z</time>
      </trkpt>
      <trkpt lat="59.080037707462907" lon="30.013510007411242">
        <ele>82.329999999999998</ele>
        <time>2026-04-25T10:33:37Z</time>
      </trkpt>
      <trkpt lat="59.080035276710987" lon="30.013509672135115">
        <ele>83.769999999999996</ele>
        <time>2026-04-25T10:33:58Z</time>
      </trkpt>
      <trkpt lat="59.080035109072924" lon="30.013510175049305">
        <ele>82.810000000000002</ele>
        <time>2026-04-25T10:34:04Z</time>
      </trkpt>
      <trkpt lat="59.079989343881607" lon="30.013529704883695">
        <ele>82.329999999999998</ele>
        <time>2026-04-25T10:34:17Z</time>
      </trkpt>
      <trkpt lat="59.079988254234195" lon="30.013547809794545">
        <ele>82.329999999999998</ele>
        <time>2026-04-25T10:34:34Z</time>
      </trkpt>
      <trkpt lat="59.079978112131357" lon="30.013569099828601">
        <ele>82.329999999999998</ele>
        <time>2026-04-25T10:34:45Z</time>
      </trkpt>
      <trkpt lat="59.079890269786119" lon="30.013572871685028">
        <ele>83.769999999999996</ele>
        <time>2026-04-25T10:34:59Z</time>
      </trkpt>
      <trkpt lat="59.079768899828196" lon="30.013511683791876">
        <ele>84.25</ele>
        <time>2026-04-25T10:35:12Z</time>
      </trkpt>
      <trkpt lat="59.079702263697982" lon="30.0134620629251">
        <ele>82.810000000000002</ele>
        <time>2026-04-25T10:35:17Z</time>
      </trkpt>
      <trkpt lat="59.07965037971735" lon="30.013446304947138">
        <ele>84.25</ele>
        <time>2026-04-25T10:35:35Z</time>
      </trkpt>
      <trkpt lat="59.079631352797151" lon="30.013436581939459">
        <ele>84.730000000000004</ele>
        <time>2026-04-25T10:36:14Z</time>
      </trkpt>
      <trkpt lat="59.079632945358753" lon="30.013418644666672">
        <ele>83.769999999999996</ele>
        <time>2026-04-25T10:36:34Z</time>
      </trkpt>
      <trkpt lat="59.079632442444563" lon="30.013416465371847">
        <ele>85.209999999999994</ele>
        <time>2026-04-25T10:36:36Z</time>
      </trkpt>
      <trkpt lat="59.079613080248237" lon="30.013336082920432">
        <ele>83.769999999999996</ele>
        <time>2026-04-25T10:36:49Z</time>
      </trkpt>
      <trkpt lat="59.079608554020524" lon="30.013277241960168">
        <ele>83.769999999999996</ele>
        <time>2026-04-25T10:37:03Z</time>
      </trkpt>
      <trkpt lat="59.079566979780793" lon="30.01322309486568">
        <ele>85.209999999999994</ele>
        <time>2026-04-25T10:37:10Z</time>
      </trkpt>
      <trkpt lat="59.079571506008506" lon="30.013163415715098">
        <ele>85.209999999999994</ele>
        <time>2026-04-25T10:37:24Z</time>
      </trkpt>
      <trkpt lat="59.07956195063889" lon="30.013094684109092">
        <ele>84.25</ele>
        <time>2026-04-25T10:37:45Z</time>
      </trkpt>
      <trkpt lat="59.079540828242898" lon="30.013069789856672">
        <ele>84.25</ele>
        <time>2026-04-25T10:37:56Z</time>
      </trkpt>
      <trkpt lat="59.079468157142401" lon="30.013020504266024">
        <ele>84.25</ele>
        <time>2026-04-25T10:38:08Z</time>
      </trkpt>
      <trkpt lat="59.079452315345407" lon="30.012976918369532">
        <ele>84.25</ele>
        <time>2026-04-25T10:38:20Z</time>
      </trkpt>
      <trkpt lat="59.07942607998848" lon="30.012889830395579">
        <ele>85.689999999999998</ele>
        <time>2026-04-25T10:38:26Z</time>
      </trkpt>
      <trkpt lat="59.07938601449132" lon="30.012874659150839">
        <ele>85.689999999999998</ele>
        <time>2026-04-25T10:38:42Z</time>
      </trkpt>
      <trkpt lat="59.079342512413859" lon="30.012791426852345">
        <ele>85.689999999999998</ele>
        <time>2026-04-25T10:38:56Z</time>
      </trkpt>
      <trkpt lat="59.07931812107563" lon="30.012531671673059">
        <ele>85.689999999999998</ele>
        <time>2026-04-25T10:39:07Z</time>
      </trkpt>
      <trkpt lat="59.07928291708231" lon="30.012396555393934">
        <ele>86.659999999999997</ele>
        <time>2026-04-25T10:39:20Z</time>
      </trkpt>
      <trkpt lat="59.079249389469624" lon="30.012331595644355">
        <ele>85.209999999999994</ele>
        <time>2026-04-25T10:39:27Z</time>
      </trkpt>
      <trkpt lat="59.079212006181479" lon="30.012183068320155">
        <ele>85.209999999999994</ele>
        <time>2026-04-25T10:39:40Z</time>
      </trkpt>
      <trkpt lat="59.079194907099009" lon="30.011992380023003">
        <ele>85.209999999999994</ele>
        <time>2026-04-25T10:39:51Z</time>
      </trkpt>
      <trkpt lat="59.079144950956106" lon="30.011918367817998">
        <ele>86.180000000000007</ele>
        <time>2026-04-25T10:40:05Z</time>
      </trkpt>
      <trkpt lat="59.079133048653603" lon="30.011853575706482">
        <ele>86.180000000000007</ele>
        <time>2026-04-25T10:40:18Z</time>
      </trkpt>
      <trkpt lat="59.079137658700347" lon="30.011729272082448">
        <ele>87.140000000000001</ele>
        <time>2026-04-25T10:40:34Z</time>
      </trkpt>
      <trkpt lat="59.079105388373137" lon="30.011631119996309">
        <ele>87.140000000000001</ele>
        <time>2026-04-25T10:40:52Z</time>
      </trkpt>
      <trkpt lat="59.079098431393504" lon="30.01158962957561">
        <ele>86.180000000000007</ele>
        <time>2026-04-25T10:41:04Z</time>
      </trkpt>
      <trkpt lat="59.079076303169131" lon="30.011560712009668">
        <ele>87.140000000000001</ele>
        <time>2026-04-25T10:41:17Z</time>
      </trkpt>
      <trkpt lat="59.079074542969465" lon="30.011560712009668">
        <ele>86.180000000000007</ele>
        <time>2026-04-25T10:41:22Z</time>
      </trkpt>
      <trkpt lat="59.079056102782488" lon="30.011577559635043">
        <ele>86.180000000000007</ele>
        <time>2026-04-25T10:41:28Z</time>
      </trkpt>
      <trkpt lat="59.079016372561455" lon="30.0116125959903">
        <ele>86.180000000000007</ele>
        <time>2026-04-25T10:41:33Z</time>
      </trkpt>
      <trkpt lat="59.078998183831573" lon="30.011628521606326">
        <ele>87.140000000000001</ele>
        <time>2026-04-25T10:41:36Z</time>
      </trkpt>
      <trkpt lat="59.078973792493343" lon="30.011673783883452">
        <ele>86.180000000000007</ele>
        <time>2026-04-25T10:41:43Z</time>
      </trkpt>
      <trkpt lat="59.078873125836253" lon="30.011739246547222">
        <ele>86.659999999999997</ele>
        <time>2026-04-25T10:41:57Z</time>
      </trkpt>
      <trkpt lat="59.07885929569602" lon="30.011747712269425">
        <ele>86.659999999999997</ele>
        <time>2026-04-25T10:42:03Z</time>
      </trkpt>
      <trkpt lat="59.078783188015223" lon="30.011784927919507">
        <ele>86.180000000000007</ele>
        <time>2026-04-25T10:42:17Z</time>
      </trkpt>
      <trkpt lat="59.078711774200201" lon="30.011867489665747">
        <ele>86.180000000000007</ele>
        <time>2026-04-25T10:42:29Z</time>
      </trkpt>
      <trkpt lat="59.07869853079319" lon="30.011891713365912">
        <ele>87.620000000000005</ele>
        <time>2026-04-25T10:42:35Z</time>
      </trkpt>
      <trkpt lat="59.078625943511724" lon="30.012024566531181">
        <ele>87.620000000000005</ele>
        <time>2026-04-25T10:43:09Z</time>
      </trkpt>
      <trkpt lat="59.078625524416566" lon="30.01204501837492">
        <ele>86.180000000000007</ele>
        <time>2026-04-25T10:43:33Z</time>
      </trkpt>
      <trkpt lat="59.078622255474329" lon="30.012049712240696">
        <ele>88.099999999999994</ele>
        <time>2026-04-25T10:43:37Z</time>
      </trkpt>
      <trkpt lat="59.078621249645948" lon="30.012054070830345">
        <ele>86.659999999999997</ele>
        <time>2026-04-25T10:43:39Z</time>
      </trkpt>
      <trkpt lat="59.078625440597534" lon="30.01206748187542">
        <ele>86.180000000000007</ele>
        <time>2026-04-25T10:43:52Z</time>
      </trkpt>
      <trkpt lat="59.078640611842275" lon="30.012141661718488">
        <ele>87.620000000000005</ele>
        <time>2026-04-25T10:44:04Z</time>
      </trkpt>
      <trkpt lat="59.078665673732758" lon="30.0122394785285">
        <ele>86.180000000000007</ele>
        <time>2026-04-25T10:44:22Z</time>
      </trkpt>
      <trkpt lat="59.078717725351453" lon="30.012511136010289">
        <ele>87.620000000000005</ele>
        <time>2026-04-25T10:44:36Z</time>
      </trkpt>
      <trkpt lat="59.07874739728868" lon="30.012592943385243">
        <ele>87.620000000000005</ele>
        <time>2026-04-25T10:44:52Z</time>
      </trkpt>
      <trkpt lat="59.078790815547109" lon="30.012747086584568">
        <ele>87.620000000000005</ele>
        <time>2026-04-25T10:45:08Z</time>
      </trkpt>
      <trkpt lat="59.078820403665304" lon="30.012873988598585">
        <ele>87.620000000000005</ele>
        <time>2026-04-25T10:45:18Z</time>
      </trkpt>
      <trkpt lat="59.078835742548108" lon="30.012997621670365">
        <ele>88.099999999999994</ele>
        <time>2026-04-25T10:45:34Z</time>
      </trkpt>
      <trkpt lat="59.07887295819819" lon="30.013155117630959">
        <ele>86.659999999999997</ele>
        <time>2026-04-25T10:45:48Z</time>
      </trkpt>
      <trkpt lat="59.078877735882998" lon="30.013241283595562">
        <ele>86.659999999999997</ele>
        <time>2026-04-25T10:46:03Z</time>
      </trkpt>
      <trkpt lat="59.078940013423562" lon="30.013436414301395">
        <ele>86.659999999999997</ele>
        <time>2026-04-25T10:46:16Z</time>
      </trkpt>
      <trkpt lat="59.078943701460958" lon="30.013449406251311">
        <ele>88.099999999999994</ele>
        <time>2026-04-25T10:46:19Z</time>
      </trkpt>
      <trkpt lat="59.078999189659953" lon="30.013560550287366">
        <ele>88.099999999999994</ele>
        <time>2026-04-25T10:46:38Z</time>
      </trkpt>
      <trkpt lat="59.079061970114708" lon="30.013746125623584">
        <ele>86.659999999999997</ele>
        <time>2026-04-25T10:46:50Z</time>
      </trkpt>
      <trkpt lat="59.079094408079982" lon="30.013807564973831">
        <ele>88.099999999999994</ele>
        <time>2026-04-25T10:47:06Z</time>
      </trkpt>
      <trkpt lat="59.079088540747762" lon="30.013833129778504">
        <ele>88.099999999999994</ele>
        <time>2026-04-25T10:47:31Z</time>
      </trkpt>
      <trkpt lat="59.079084685072303" lon="30.013836733996868">
        <ele>86.659999999999997</ele>
        <time>2026-04-25T10:47:38Z</time>
      </trkpt>
      <trkpt lat="59.079028107225895" lon="30.013844612985849">
        <ele>86.659999999999997</ele>
        <time>2026-04-25T10:47:50Z</time>
      </trkpt>
      <trkpt lat="59.078937415033579" lon="30.013849642127752">
        <ele>86.659999999999997</ele>
        <time>2026-04-25T10:48:03Z</time>
      </trkpt>
      <trkpt lat="59.078825600445271" lon="30.01394821330905">
        <ele>86.659999999999997</ele>
        <time>2026-04-25T10:48:17Z</time>
      </trkpt>
      <trkpt lat="59.078782014548779" lon="30.014018956571817">
        <ele>86.659999999999997</ele>
        <time>2026-04-25T10:48:29Z</time>
      </trkpt>
      <trkpt lat="59.078658632934093" lon="30.014110738411546">
        <ele>87.620000000000005</ele>
        <time>2026-04-25T10:48:42Z</time>
      </trkpt>
      <trkpt lat="59.078616471961141" lon="30.014134207740426">
        <ele>87.620000000000005</ele>
        <time>2026-04-25T10:49:09Z</time>
      </trkpt>
      <trkpt lat="59.078609850257635" lon="30.014133704826236">
        <ele>87.620000000000005</ele>
        <time>2026-04-25T10:49:32Z</time>
      </trkpt>
      <trkpt lat="59.0786013007164" lon="30.014122556895018">
        <ele>87.620000000000005</ele>
        <time>2026-04-25T10:49:52Z</time>
      </trkpt>
      <trkpt lat="59.078601049259305" lon="30.014121551066637">
        <ele>86.180000000000007</ele>
        <time>2026-04-25T10:49:57Z</time>
      </trkpt>
      <trkpt lat="59.078601552173495" lon="30.014120880514383">
        <ele>87.620000000000005</ele>
        <time>2026-04-25T10:50:06Z</time>
      </trkpt>
      <trkpt lat="59.0786013007164" lon="30.014117611572146">
        <ele>86.180000000000007</ele>
        <time>2026-04-25T10:50:16Z</time>
      </trkpt>
      <trkpt lat="59.078565342351794" lon="30.0140699185431">
        <ele>86.180000000000007</ele>
        <time>2026-04-25T10:50:33Z</time>
      </trkpt>
      <trkpt lat="59.078532066196203" lon="30.014009568840265">
        <ele>86.180000000000007</ele>
        <time>2026-04-25T10:50:38Z</time>
      </trkpt>
      <trkpt lat="59.078472722321749" lon="30.013833465054631">
        <ele>88.579999999999998</ele>
        <time>2026-04-25T10:50:50Z</time>
      </trkpt>
      <trkpt lat="59.078426789492369" lon="30.013715531677008">
        <ele>86.659999999999997</ele>
        <time>2026-04-25T10:50:57Z</time>
      </trkpt>
      <trkpt lat="59.078407678753138" lon="30.013640597462654">
        <ele>88.099999999999994</ele>
        <time>2026-04-25T10:51:03Z</time>
      </trkpt>
      <trkpt lat="59.078398793935776" lon="30.013627018779516">
        <ele>86.659999999999997</ele>
        <time>2026-04-25T10:51:07Z</time>
      </trkpt>
      <trkpt lat="59.078327044844627" lon="30.013462817296386">
        <ele>88.099999999999994</ele>
        <time>2026-04-25T10:51:19Z</time>
      </trkpt>
      <trkpt lat="59.078272813931108" lon="30.013333400711417">
        <ele>86.659999999999997</ele>
        <time>2026-04-25T10:51:34Z</time>
      </trkpt>
      <trkpt lat="59.078227300196886" lon="30.013238433748484">
        <ele>88.099999999999994</ele>
        <time>2026-04-25T10:51:40Z</time>
      </trkpt>
      <trkpt lat="59.078218834474683" lon="30.01320892944932">
        <ele>88.099999999999994</ele>
        <time>2026-04-25T10:51:55Z</time>
      </trkpt>
      <trkpt lat="59.078215481713414" lon="30.013113124296069">
        <ele>88.579999999999998</ele>
        <time>2026-04-25T10:52:08Z</time>
      </trkpt>
      <trkpt lat="59.078230736777186" lon="30.012837359681726">
        <ele>88.579999999999998</ele>
        <time>2026-04-25T10:52:21Z</time>
      </trkpt>
      <trkpt lat="59.078195700421929" lon="30.01268170773983">
        <ele>88.579999999999998</ele>
        <time>2026-04-25T10:52:29Z</time>
      </trkpt>
      <trkpt lat="59.078144822269678" lon="30.01242664642632">
        <ele>88.579999999999998</ele>
        <time>2026-04-25T10:52:42Z</time>
      </trkpt>
      <trkpt lat="59.078127387911081" lon="30.012398231774569">
        <ele>87.620000000000005</ele>
        <time>2026-04-25T10:52:45Z</time>
      </trkpt>
      <trkpt lat="59.0781229455024" lon="30.012377025559545">
        <ele>88.579999999999998</ele>
        <time>2026-04-25T10:52:47Z</time>
      </trkpt>
      <trkpt lat="59.078106936067343" lon="30.012326315045357">
        <ele>88.099999999999994</ele>
        <time>2026-04-25T10:53:08Z</time>
      </trkpt>
      <trkpt lat="59.078088831156492" lon="30.012261522933841">
        <ele>88.099999999999994</ele>
        <time>2026-04-25T10:53:20Z</time>
      </trkpt>
      <trkpt lat="59.078063182532787" lon="30.012143673375249">
        <ele>88.099999999999994</ele>
        <time>2026-04-25T10:53:31Z</time>
      </trkpt>
      <trkpt lat="59.078059159219265" lon="30.012146355584264">
        <ele>89.060000000000002</ele>
        <time>2026-04-25T10:53:38Z</time>
      </trkpt>
      <trkpt lat="59.07805547118187" lon="30.01216328702867">
        <ele>89.060000000000002</ele>
        <time>2026-04-25T10:54:08Z</time>
      </trkpt>
      <trkpt lat="59.078057818114758" lon="30.012156162410975">
        <ele>88.099999999999994</ele>
        <time>2026-04-25T10:54:41Z</time>
      </trkpt>
      <trkpt lat="59.078060081228614" lon="30.012158593162894">
        <ele>88.579999999999998</ele>
        <time>2026-04-25T10:55:12Z</time>
      </trkpt>
      <trkpt lat="59.07806133851409" lon="30.012158593162894">
        <ele>88.099999999999994</ele>
        <time>2026-04-25T10:55:22Z</time>
      </trkpt>
      <trkpt lat="59.078058991581202" lon="30.012161945924163">
        <ele>87.620000000000005</ele>
        <time>2026-04-25T10:55:47Z</time>
      </trkpt>
      <trkpt lat="59.078066283836961" lon="30.012169741094112">
        <ele>89.060000000000002</ele>
        <time>2026-04-25T10:56:13Z</time>
      </trkpt>
      <trkpt lat="59.078068798407912" lon="30.012173261493444">
        <ele>88.099999999999994</ele>
        <time>2026-04-25T10:56:23Z</time>
      </trkpt>
      <trkpt lat="59.078085394576192" lon="30.012197736650705">
        <ele>88.099999999999994</ele>
        <time>2026-04-25T10:56:51Z</time>
      </trkpt>
      <trkpt lat="59.078090758994222" lon="30.012203101068735">
        <ele>89.060000000000002</ele>
        <time>2026-04-25T10:57:12Z</time>
      </trkpt>
      <trkpt lat="59.078083885833621" lon="30.012167226523161">
        <ele>88.579999999999998</ele>
        <time>2026-04-25T10:57:41Z</time>
      </trkpt>
      <trkpt lat="59.078083047643304" lon="30.012166136875749">
        <ele>90.019999999999996</ele>
        <time>2026-04-25T10:57:43Z</time>
      </trkpt>
      <trkpt lat="59.078083047643304" lon="30.012159598991275">
        <ele>88.579999999999998</ele>
        <time>2026-04-25T10:57:47Z</time>
      </trkpt>
      <trkpt lat="59.078061506152153" lon="30.012159515172243">
        <ele>88.579999999999998</ele>
        <time>2026-04-25T10:58:04Z</time>
      </trkpt>
      <trkpt lat="59.078022865578532" lon="30.012196730822325">
        <ele>89.540000000000006</ele>
        <time>2026-04-25T10:58:15Z</time>
      </trkpt>
      <trkpt lat="59.078016998246312" lon="30.012198742479086">
        <ele>89.540000000000006</ele>
        <time>2026-04-25T10:58:16Z</time>
      </trkpt>
      <trkpt lat="59.077965281903744" lon="30.012197401374578">
        <ele>88.099999999999994</ele>
        <time>2026-04-25T10:58:23Z</time>
      </trkpt>
      <trkpt lat="59.07788791693747" lon="30.012238472700119">
        <ele>88.099999999999994</ele>
        <time>2026-04-25T10:58:33Z</time>
      </trkpt>
      <trkpt lat="59.07778037711978" lon="30.012239227071404">
        <ele>88.099999999999994</ele>
        <time>2026-04-25T10:58:44Z</time>
      </trkpt>
      <trkpt lat="59.077707622200251" lon="30.012274598702788">
        <ele>88.099999999999994</ele>
        <time>2026-04-25T10:58:56Z</time>
      </trkpt>
      <trkpt lat="59.077632771804929" lon="30.012304773554206">
        <ele>88.099999999999994</ele>
        <time>2026-04-25T10:59:10Z</time>
      </trkpt>
      <trkpt lat="59.077614583075047" lon="30.012321788817644">
        <ele>89.060000000000002</ele>
        <time>2026-04-25T10:59:26Z</time>
      </trkpt>
      <trkpt lat="59.077616343274713" lon="30.012331092730165">
        <ele>89.060000000000002</ele>
        <time>2026-04-25T10:59:48Z</time>
      </trkpt>
      <trkpt lat="59.077618774026632" lon="30.012329500168562">
        <ele>87.620000000000005</ele>
        <time>2026-04-25T11:00:10Z</time>
      </trkpt>
      <trkpt lat="59.07761768437922" lon="30.012335702776909">
        <ele>89.060000000000002</ele>
        <time>2026-04-25T11:00:15Z</time>
      </trkpt>
      <trkpt lat="59.077620031312108" lon="30.012341989204288">
        <ele>89.060000000000002</ele>
        <time>2026-04-25T11:00:22Z</time>
      </trkpt>
      <trkpt lat="59.077619696035981" lon="30.012358501553535">
        <ele>87.620000000000005</ele>
        <time>2026-04-25T11:00:24Z</time>
      </trkpt>
      <trkpt lat="59.077621959149837" lon="30.012381384149194">
        <ele>87.620000000000005</ele>
        <time>2026-04-25T11:00:37Z</time>
      </trkpt>
      <trkpt lat="59.077616762369871" lon="30.01246034167707">
        <ele>89.060000000000002</ele>
        <time>2026-04-25T11:00:48Z</time>
      </trkpt>
      <trkpt lat="59.077620198950171" lon="30.012533850967884">
        <ele>87.620000000000005</ele>
        <time>2026-04-25T11:01:01Z</time>
      </trkpt>
      <trkpt lat="59.077637381851673" lon="30.012576933950186">
        <ele>87.620000000000005</ele>
        <time>2026-04-25T11:01:17Z</time>
      </trkpt>
      <trkpt lat="59.077637465670705" lon="30.012601157650352">
        <ele>89.060000000000002</ele>
        <time>2026-04-25T11:01:20Z</time>
      </trkpt>
      <trkpt lat="59.077643500640988" lon="30.012637283653021">
        <ele>88.099999999999994</ele>
        <time>2026-04-25T11:01:26Z</time>
      </trkpt>
      <trkpt lat="59.07767727971077" lon="30.012712720781565">
        <ele>87.140000000000001</ele>
        <time>2026-04-25T11:01:40Z</time>
      </trkpt>
      <trkpt lat="59.077751291915774" lon="30.012892512604594">
        <ele>88.579999999999998</ele>
        <time>2026-04-25T11:01:54Z</time>
      </trkpt>
      <trkpt lat="59.077783059328794" lon="30.012932326644659">
        <ele>88.579999999999998</ele>
        <time>2026-04-25T11:02:11Z</time>
      </trkpt>
      <trkpt lat="59.0777896810323" lon="30.012942720204592">
        <ele>87.140000000000001</ele>
        <time>2026-04-25T11:02:16Z</time>
      </trkpt>
      <trkpt lat="59.077819855883718" lon="30.013002650812268">
        <ele>87.140000000000001</ele>
        <time>2026-04-25T11:02:26Z</time>
      </trkpt>
      <trkpt lat="59.077826226130128" lon="30.013223011046648">
        <ele>87.140000000000001</ele>
        <time>2026-04-25T11:02:41Z</time>
      </trkpt>
      <trkpt lat="59.077867465093732" lon="30.013426104560494">
        <ele>86.659999999999997</ele>
        <time>2026-04-25T11:02:56Z</time>
      </trkpt>
      <trkpt lat="59.077887833118439" lon="30.013630706816912">
        <ele>86.180000000000007</ele>
        <time>2026-04-25T11:03:11Z</time>
      </trkpt>
      <trkpt lat="59.077925300225616" lon="30.013731205835938">
        <ele>87.140000000000001</ele>
        <time>2026-04-25T11:03:23Z</time>
      </trkpt>
      <trkpt lat="59.077955642715096" lon="30.013969084247947">
        <ele>87.140000000000001</ele>
        <time>2026-04-25T11:03:36Z</time>
      </trkpt>
      <trkpt lat="59.077970227226615" lon="30.014064554125071">
        <ele>87.140000000000001</ele>
        <time>2026-04-25T11:03:47Z</time>
      </trkpt>
      <trkpt lat="59.077987410128117" lon="30.014149462804198">
        <ele>87.620000000000005</ele>
        <time>2026-04-25T11:03:53Z</time>
      </trkpt>
      <trkpt lat="59.07801054418087" lon="30.014277370646596">
        <ele>87.620000000000005</ele>
        <time>2026-04-25T11:04:06Z</time>
      </trkpt>
      <trkpt lat="59.078073408454657" lon="30.014282986521721">
        <ele>87.620000000000005</ele>
        <time>2026-04-25T11:04:23Z</time>
      </trkpt>
      <trkpt lat="59.078071480616927" lon="30.014322716742754">
        <ele>87.620000000000005</ele>
        <time>2026-04-25T11:04:49Z</time>
      </trkpt>
      <trkpt lat="59.078045412898064" lon="30.014351885765791">
        <ele>87.620000000000005</ele>
        <time>2026-04-25T11:05:03Z</time>
      </trkpt>
      <trkpt lat="59.077978106215596" lon="30.014406954869628">
        <ele>87.620000000000005</ele>
        <time>2026-04-25T11:05:17Z</time>
      </trkpt>
      <trkpt lat="59.077935526147485" lon="30.014370577409863">
        <ele>86.180000000000007</ele>
        <time>2026-04-25T11:05:25Z</time>
      </trkpt>
      <trkpt lat="59.077920103445649" lon="30.014347527176142">
        <ele>86.180000000000007</ele>
        <time>2026-04-25T11:05:37Z</time>
      </trkpt>
      <trkpt lat="59.077865621075034" lon="30.01433813944459">
        <ele>87.620000000000005</ele>
        <time>2026-04-25T11:05:44Z</time>
      </trkpt>
      <trkpt lat="59.077796470373869" lon="30.014292038977146">
        <ele>86.180000000000007</ele>
        <time>2026-04-25T11:05:55Z</time>
      </trkpt>
      <trkpt lat="59.077692534774542" lon="30.014248117804527">
        <ele>86.180000000000007</ele>
        <time>2026-04-25T11:06:07Z</time>
      </trkpt>
      <trkpt lat="59.077626150101423" lon="30.014226576313376">
        <ele>86.180000000000007</ele>
        <time>2026-04-25T11:06:19Z</time>
      </trkpt>
      <trkpt lat="59.07761231996119" lon="30.014220708981156">
        <ele>87.620000000000005</ele>
        <time>2026-04-25T11:06:23Z</time>
      </trkpt>
      <trkpt lat="59.077576948329806" lon="30.014206124469638">
        <ele>86.180000000000007</ele>
        <time>2026-04-25T11:06:54Z</time>
      </trkpt>
      <trkpt lat="59.077585749328136" lon="30.014204112812877">
        <ele>87.620000000000005</ele>
        <time>2026-04-25T11:07:06Z</time>
      </trkpt>
      <trkpt lat="59.077593460679054" lon="30.014194138348103">
        <ele>86.659999999999997</ele>
        <time>2026-04-25T11:07:27Z</time>
      </trkpt>
      <trkpt lat="59.077592203393579" lon="30.014185337349772">
        <ele>85.209999999999994</ele>
        <time>2026-04-25T11:07:40Z</time>
      </trkpt>
      <trkpt lat="59.077593209221959" lon="30.014178212732077">
        <ele>86.659999999999997</ele>
        <time>2026-04-25T11:07:42Z</time>
      </trkpt>
      <trkpt lat="59.077581390738487" lon="30.014124233275652">
        <ele>86.180000000000007</ele>
        <time>2026-04-25T11:08:06Z</time>
      </trkpt>
      <trkpt lat="59.077568985521793" lon="30.014096824452281">
        <ele>85.689999999999998</ele>
        <time>2026-04-25T11:08:33Z</time>
      </trkpt>
      <trkpt lat="59.077567812055349" lon="30.014093890786171">
        <ele>85.689999999999998</ele>
        <time>2026-04-25T11:08:54Z</time>
      </trkpt>
      <trkpt lat="59.077568398788571" lon="30.01410118304193">
        <ele>86.659999999999997</ele>
        <time>2026-04-25T11:09:09Z</time>
      </trkpt>
      <trkpt lat="59.077561357989907" lon="30.014095399528742">
        <ele>85.689999999999998</ele>
        <time>2026-04-25T11:09:26Z</time>
      </trkpt>
      <trkpt lat="59.077558843418956" lon="30.01410998404026">
        <ele>88.099999999999994</ele>
        <time>2026-04-25T11:09:46Z</time>
      </trkpt>
      <trkpt lat="59.077563118189573" lon="30.014103446155787">
        <ele>85.689999999999998</ele>
        <time>2026-04-25T11:10:18Z</time>
      </trkpt>
      <trkpt lat="59.0775634534657" lon="30.014095148071647">
        <ele>87.140000000000001</ele>
        <time>2026-04-25T11:10:27Z</time>
      </trkpt>
      <trkpt lat="59.077560603618622" lon="30.014101518318057">
        <ele>86.180000000000007</ele>
        <time>2026-04-25T11:10:38Z</time>
      </trkpt>
      <trkpt lat="59.077552976086736" lon="30.014106463640928">
        <ele>86.180000000000007</ele>
        <time>2026-04-25T11:11:03Z</time>
      </trkpt>
      <trkpt lat="59.077542331069708" lon="30.014110486954451">
        <ele>86.659999999999997</ele>
        <time>2026-04-25T11:11:20Z</time>
      </trkpt>
      <trkpt lat="59.077532691881061" lon="30.014133369550109">
        <ele>85.689999999999998</ele>
        <time>2026-04-25T11:11:42Z</time>
      </trkpt>
      <trkpt lat="59.077500253915787" lon="30.014151893556118">
        <ele>85.209999999999994</ele>
        <time>2026-04-25T11:11:54Z</time>
      </trkpt>
      <trkpt lat="59.07745499163866" lon="30.014121634885669">
        <ele>85.209999999999994</ele>
        <time>2026-04-25T11:12:08Z</time>
      </trkpt>
      <trkpt lat="59.077442837879062" lon="30.014116354286671">
        <ele>85.209999999999994</ele>
        <time>2026-04-25T11:12:13Z</time>
      </trkpt>
      <trkpt lat="59.077403359115124" lon="30.014081988483667">
        <ele>85.209999999999994</ele>
        <time>2026-04-25T11:12:24Z</time>
      </trkpt>
      <trkpt lat="59.077390115708113" lon="30.014020800590515">
        <ele>86.180000000000007</ele>
        <time>2026-04-25T11:12:45Z</time>
      </trkpt>
      <trkpt lat="59.077376956120133" lon="30.013978807255626">
        <ele>84.730000000000004</ele>
        <time>2026-04-25T11:13:01Z</time>
      </trkpt>
      <trkpt lat="59.077371675521135" lon="30.013976376503706">
        <ele>84.730000000000004</ele>
        <time>2026-04-25T11:13:29Z</time>
      </trkpt>
      <trkpt lat="59.077376117929816" lon="30.013964809477329">
        <ele>85.689999999999998</ele>
        <time>2026-04-25T11:14:06Z</time>
      </trkpt>
      <trkpt lat="59.077379386872053" lon="30.013952068984509">
        <ele>85.689999999999998</ele>
        <time>2026-04-25T11:14:39Z</time>
      </trkpt>
      <trkpt lat="59.077392462641001" lon="30.013959277421236">
        <ele>84.730000000000004</ele>
        <time>2026-04-25T11:15:12Z</time>
      </trkpt>
      <trkpt lat="59.077397156506777" lon="30.013944189995527">
        <ele>86.180000000000007</ele>
        <time>2026-04-25T11:15:38Z</time>
      </trkpt>
      <trkpt lat="59.077401934191585" lon="30.013939579948783">
        <ele>86.180000000000007</ele>
        <time>2026-04-25T11:15:59Z</time>
      </trkpt>
      <trkpt lat="59.077403526753187" lon="30.013937233015895">
        <ele>85.209999999999994</ele>
        <time>2026-04-25T11:16:09Z</time>
      </trkpt>
      <trkpt lat="59.077397994697094" lon="30.013925582170486">
        <ele>85.209999999999994</ele>
        <time>2026-04-25T11:16:41Z</time>
      </trkpt>
      <trkpt lat="59.077394222840667" lon="30.013921810314059">
        <ele>84.730000000000004</ele>
        <time>2026-04-25T11:17:10Z</time>
      </trkpt>
      <trkpt lat="59.077392211183906" lon="30.013913847506046">
        <ele>84.730000000000004</ele>
        <time>2026-04-25T11:17:45Z</time>
      </trkpt>
      <trkpt lat="59.077391792088747" lon="30.013912841677666">
        <ele>85.689999999999998</ele>
        <time>2026-04-25T11:17:49Z</time>
      </trkpt>
      <trkpt lat="59.077390199527144" lon="30.013952823355794">
        <ele>85.209999999999994</ele>
        <time>2026-04-25T11:18:15Z</time>
      </trkpt>
      <trkpt lat="59.077366478741169" lon="30.013945028185844">
        <ele>84.25</ele>
        <time>2026-04-25T11:18:39Z</time>
      </trkpt>
      <trkpt lat="59.077369412407279" lon="30.013947039842606">
        <ele>85.689999999999998</ele>
        <time>2026-04-25T11:19:03Z</time>
      </trkpt>
      <trkpt lat="59.077380727976561" lon="30.013968162238598">
        <ele>86.180000000000007</ele>
        <time>2026-04-25T11:19:29Z</time>
      </trkpt>
      <trkpt lat="59.077383829280734" lon="30.014002695679665">
        <ele>84.730000000000004</ele>
        <time>2026-04-25T11:20:06Z</time>
      </trkpt>
      <trkpt lat="59.077386176213622" lon="30.014011161401868">
        <ele>86.180000000000007</ele>
        <time>2026-04-25T11:20:36Z</time>
      </trkpt>
      <trkpt lat="59.077386679127812" lon="30.014015436172485">
        <ele>84.730000000000004</ele>
        <time>2026-04-25T11:20:42Z</time>
      </trkpt>
      <trkpt lat="59.077389612793922" lon="30.014040414243937">
        <ele>84.730000000000004</ele>
        <time>2026-04-25T11:21:02Z</time>
      </trkpt>
      <trkpt lat="59.077396905049682" lon="30.014044689014554">
        <ele>86.180000000000007</ele>
        <time>2026-04-25T11:21:13Z</time>
      </trkpt>
      <trkpt lat="59.077404281124473" lon="30.014099506661296">
        <ele>86.180000000000007</ele>
        <time>2026-04-25T11:21:28Z</time>
      </trkpt>
      <trkpt lat="59.077399587258697" lon="30.014146529138088">
        <ele>84.730000000000004</ele>
        <time>2026-04-25T11:21:41Z</time>
      </trkpt>
      <trkpt lat="59.077403107658029" lon="30.014166561886668">
        <ele>84.730000000000004</ele>
        <time>2026-04-25T11:22:00Z</time>
      </trkpt>
      <trkpt lat="59.077408472076058" lon="30.014174440875649">
        <ele>84.25</ele>
        <time>2026-04-25T11:22:12Z</time>
      </trkpt>
      <trkpt lat="59.077431354671717" lon="30.014226995408535">
        <ele>83.769999999999996</ele>
        <time>2026-04-25T11:22:25Z</time>
      </trkpt>
      <trkpt lat="59.077429845929146" lon="30.014357669278979">
        <ele>83.769999999999996</ele>
        <time>2026-04-25T11:22:38Z</time>
      </trkpt>
      <trkpt lat="59.077442418783903" lon="30.014475686475635">
        <ele>83.769999999999996</ele>
        <time>2026-04-25T11:22:50Z</time>
      </trkpt>
      <trkpt lat="59.077447364106774" lon="30.014599822461605">
        <ele>85.209999999999994</ele>
        <time>2026-04-25T11:22:55Z</time>
      </trkpt>
      <trkpt lat="59.077470917254686" lon="30.014678612351418">
        <ele>83.769999999999996</ele>
        <time>2026-04-25T11:23:11Z</time>
      </trkpt>
      <trkpt lat="59.077418278902769" lon="30.014796378090978">
        <ele>83.769999999999996</ele>
        <time>2026-04-25T11:23:25Z</time>
      </trkpt>
      <trkpt lat="59.077342674136162" lon="30.014887824654579">
        <ele>83.769999999999996</ele>
        <time>2026-04-25T11:23:39Z</time>
      </trkpt>
      <trkpt lat="59.077320462092757" lon="30.014922190457582">
        <ele>83.290000000000006</ele>
        <time>2026-04-25T11:23:52Z</time>
      </trkpt>
      <trkpt lat="59.077191213145852" lon="30.015102736651897">
        <ele>84.730000000000004</ele>
        <time>2026-04-25T11:24:04Z</time>
      </trkpt>
      <trkpt lat="59.077164977788925" lon="30.015122350305319">
        <ele>84.730000000000004</ele>
        <time>2026-04-25T11:24:09Z</time>
      </trkpt>
      <trkpt lat="59.077088786289096" lon="30.015087481588125">
        <ele>84.730000000000004</ele>
        <time>2026-04-25T11:24:20Z</time>
      </trkpt>
      <trkpt lat="59.077043188735843" lon="30.015081278979778">
        <ele>83.290000000000006</ele>
        <time>2026-04-25T11:24:29Z</time>
      </trkpt>
      <trkpt lat="59.076997926458716" lon="30.015091169625521">
        <ele>83.290000000000006</ele>
        <time>2026-04-25T11:24:39Z</time>
      </trkpt>
      <trkpt lat="59.07697219401598" lon="30.015079854056239">
        <ele>83.290000000000006</ele>
        <time>2026-04-25T11:24:45Z</time>
      </trkpt>
      <trkpt lat="59.076906396076083" lon="30.015154620632529">
        <ele>83.290000000000006</ele>
        <time>2026-04-25T11:24:55Z</time>
      </trkpt>
      <trkpt lat="59.076897678896785" lon="30.015170965343714">
        <ele>83.290000000000006</ele>
        <time>2026-04-25T11:24:57Z</time>
      </trkpt>
      <trkpt lat="59.076846716925502" lon="30.01523869112134">
        <ele>83.290000000000006</ele>
        <time>2026-04-25T11:25:08Z</time>
      </trkpt>
      <trkpt lat="59.076798940077424" lon="30.015253024175763">
        <ele>84.730000000000004</ele>
        <time>2026-04-25T11:25:17Z</time>
      </trkpt>
      <trkpt lat="59.076781840994954" lon="30.015252353623509">
        <ele>84.730000000000004</ele>
        <time>2026-04-25T11:25:24Z</time>
      </trkpt>
      <trkpt lat="59.07670590095222" lon="30.015225866809487">
        <ele>84.730000000000004</ele>
        <time>2026-04-25T11:25:35Z</time>
      </trkpt>
      <trkpt lat="59.076682096347213" lon="30.015189740806818">
        <ele>83.769999999999996</ele>
        <time>2026-04-25T11:25:49Z</time>
      </trkpt>
      <trkpt lat="59.076658710837364" lon="30.015207594260573">
        <ele>84.730000000000004</ele>
        <time>2026-04-25T11:26:00Z</time>
      </trkpt>
      <trkpt lat="59.076636247336864" lon="30.015228549018502">
        <ele>83.290000000000006</ele>
        <time>2026-04-25T11:26:10Z</time>
      </trkpt>
      <trkpt lat="59.076588386669755" lon="30.015262495726347">
        <ele>84.25</ele>
        <time>2026-04-25T11:26:20Z</time>
      </trkpt>
      <trkpt lat="59.076568018645048" lon="30.01530272886157">
        <ele>84.730000000000004</ele>
        <time>2026-04-25T11:26:31Z</time>
      </trkpt>
      <trkpt lat="59.076560894027352" lon="30.015311362221837">
        <ele>83.769999999999996</ele>
        <time>2026-04-25T11:26:39Z</time>
      </trkpt>
      <trkpt lat="59.076531725004315" lon="30.015300801023841">
        <ele>83.769999999999996</ele>
        <time>2026-04-25T11:26:50Z</time>
      </trkpt>
      <trkpt lat="59.076483864337206" lon="30.015287473797798">
        <ele>83.769999999999996</ele>
        <time>2026-04-25T11:27:00Z</time>
      </trkpt>
      <trkpt lat="59.07645427621901" lon="30.015305075794458">
        <ele>85.209999999999994</ele>
        <time>2026-04-25T11:27:10Z</time>
      </trkpt>
      <trkpt lat="59.07644011080265" lon="30.015302058309317">
        <ele>85.209999999999994</ele>
        <time>2026-04-25T11:27:15Z</time>
      </trkpt>
      <trkpt lat="59.076388394460082" lon="30.015294179320335">
        <ele>85.209999999999994</ele>
        <time>2026-04-25T11:27:24Z</time>
      </trkpt>
      <trkpt lat="59.076365428045392" lon="30.015283785760403">
        <ele>83.769999999999996</ele>
        <time>2026-04-25T11:27:33Z</time>
      </trkpt>
      <trkpt lat="59.076357213780284" lon="30.015292670577765">
        <ele>82.810000000000002</ele>
        <time>2026-04-25T11:27:38Z</time>
      </trkpt>
      <trkpt lat="59.076305413618684" lon="30.015304405242205">
        <ele>82.329999999999998</ele>
        <time>2026-04-25T11:27:47Z</time>
      </trkpt>
      <trkpt lat="59.076279681175947" lon="30.015318738296628">
        <ele>83.290000000000006</ele>
        <time>2026-04-25T11:27:51Z</time>
      </trkpt>
      <trkpt lat="59.076265431940556" lon="30.015300046652555">
        <ele>83.290000000000006</ele>
        <time>2026-04-25T11:28:00Z</time>
      </trkpt>
      <trkpt lat="59.076252859085798" lon="30.01530859619379">
        <ele>83.290000000000006</ele>
        <time>2026-04-25T11:28:22Z</time>
      </trkpt>
      <trkpt lat="59.076226959004998" lon="30.015321588143706">
        <ele>82.329999999999998</ele>
        <time>2026-04-25T11:28:33Z</time>
      </trkpt>
      <trkpt lat="59.076210865750909" lon="30.015337765216827">
        <ele>82.329999999999998</ele>
        <time>2026-04-25T11:28:43Z</time>
      </trkpt>
      <trkpt lat="59.076206590980291" lon="30.015346482396126">
        <ele>83.769999999999996</ele>
        <time>2026-04-25T11:28:46Z</time>
      </trkpt>
      <trkpt lat="59.076206674799323" lon="30.015340866521001">
        <ele>82.329999999999998</ele>
        <time>2026-04-25T11:29:01Z</time>
      </trkpt>
      <trkpt lat="59.076209776103497" lon="30.015327036380768">
        <ele>82.810000000000002</ele>
        <time>2026-04-25T11:29:22Z</time>
      </trkpt>
      <trkpt lat="59.076216649264097" lon="30.015325108543038">
        <ele>82.329999999999998</ele>
        <time>2026-04-25T11:29:46Z</time>
      </trkpt>
      <trkpt lat="59.076200556010008" lon="30.015350002795458">
        <ele>82.329999999999998</ele>
        <time>2026-04-25T11:30:00Z</time>
      </trkpt>
      <trkpt lat="59.076141966506839" lon="30.015382021665573">
        <ele>81.370000000000005</ele>
        <time>2026-04-25T11:30:09Z</time>
      </trkpt>
      <trkpt lat="59.076115312054753" lon="30.015392079949379">
        <ele>82.810000000000002</ele>
        <time>2026-04-25T11:30:13Z</time>
      </trkpt>
      <trkpt lat="59.07610734924674" lon="30.015392415225506">
        <ele>83.290000000000006</ele>
        <time>2026-04-25T11:30:25Z</time>
      </trkpt>
      <trkpt lat="59.07607801258564" lon="30.015419572591782">
        <ele>82.810000000000002</ele>
        <time>2026-04-25T11:30:38Z</time>
      </trkpt>
      <trkpt lat="59.076074408367276" lon="30.015419656410813">
        <ele>82.810000000000002</ele>
        <time>2026-04-25T11:30:45Z</time>
      </trkpt>
      <trkpt lat="59.07604574225843" lon="30.015416890382767">
        <ele>84.25</ele>
        <time>2026-04-25T11:30:50Z</time>
      </trkpt>
      <trkpt lat="59.076026966795325" lon="30.015420662239194">
        <ele>82.810000000000002</ele>
        <time>2026-04-25T11:30:59Z</time>
      </trkpt>
      <trkpt lat="59.0760144777596" lon="30.015422170981765">
        <ele>82.810000000000002</ele>
        <time>2026-04-25T11:31:01Z</time>
      </trkpt>
      <trkpt lat="59.0759695507586" lon="30.015428625047207">
        <ele>82.810000000000002</ele>
        <time>2026-04-25T11:31:09Z</time>
      </trkpt>
      <trkpt lat="59.075964018702507" lon="30.015431055799127">
        <ele>82.810000000000002</ele>
        <time>2026-04-25T11:31:10Z</time>
      </trkpt>
      <trkpt lat="59.075912050902843" lon="30.015467265620828">
        <ele>83.769999999999996</ele>
        <time>2026-04-25T11:31:20Z</time>
      </trkpt>
      <trkpt lat="59.075852790847421" lon="30.01546835526824">
        <ele>83.769999999999996</ele>
        <time>2026-04-25T11:31:29Z</time>
      </trkpt>
      <trkpt lat="59.075839798897505" lon="30.015481933951378">
        <ele>82.810000000000002</ele>
        <time>2026-04-25T11:31:32Z</time>
      </trkpt>
      <trkpt lat="59.075826555490494" lon="30.015504648908973">
        <ele>83.769999999999996</ele>
        <time>2026-04-25T11:31:42Z</time>
      </trkpt>
      <trkpt lat="59.07581121660769" lon="30.015501379966736">
        <ele>82.810000000000002</ele>
        <time>2026-04-25T11:31:53Z</time>
      </trkpt>
      <trkpt lat="59.075791351497173" lon="30.015535829588771">
        <ele>82.810000000000002</ele>
        <time>2026-04-25T11:32:03Z</time>
      </trkpt>
      <trkpt lat="59.075780622661114" lon="30.015555191785097">
        <ele>82.810000000000002</ele>
        <time>2026-04-25T11:32:21Z</time>
      </trkpt>
      <trkpt lat="59.075716501101851" lon="30.015604561194777">
        <ele>82.810000000000002</ele>
        <time>2026-04-25T11:32:33Z</time>
      </trkpt>
      <trkpt lat="59.075684063136578" lon="30.015618056058884">
        <ele>82.810000000000002</ele>
        <time>2026-04-25T11:32:36Z</time>
      </trkpt>
      <trkpt lat="59.075644416734576" lon="30.015636328607798">
        <ele>83.769999999999996</ele>
        <time>2026-04-25T11:32:41Z</time>
      </trkpt>
      <trkpt lat="59.075610721483827" lon="30.015659378841519">
        <ele>83.769999999999996</ele>
        <time>2026-04-25T11:32:51Z</time>
      </trkpt>
      <trkpt lat="59.075612062588334" lon="30.015646554529667">
        <ele>82.329999999999998</ele>
        <time>2026-04-25T11:32:55Z</time>
      </trkpt>
      <trkpt lat="59.075580630451441" lon="30.01565258949995">
        <ele>81.849999999999994</ele>
        <time>2026-04-25T11:33:04Z</time>
      </trkpt>
      <trkpt lat="59.075533356517553" lon="30.01567698083818">
        <ele>81.849999999999994</ele>
        <time>2026-04-25T11:33:11Z</time>
      </trkpt>
      <trkpt lat="59.075489435344934" lon="30.015721404924989">
        <ele>81.849999999999994</ele>
        <time>2026-04-25T11:33:21Z</time>
      </trkpt>
      <trkpt lat="59.075469570234418" lon="30.015728445723653">
        <ele>81.849999999999994</ele>
        <time>2026-04-25T11:33:31Z</time>
      </trkpt>
      <trkpt lat="59.075439982116222" lon="30.015738839283586">
        <ele>83.290000000000006</ele>
        <time>2026-04-25T11:33:38Z</time>
      </trkpt>
      <trkpt lat="59.075382314622402" lon="30.015769684687257">
        <ele>83.290000000000006</ele>
        <time>2026-04-25T11:33:48Z</time>
      </trkpt>
      <trkpt lat="59.075301680713892" lon="30.015750741586089">
        <ele>83.290000000000006</ele>
        <time>2026-04-25T11:34:00Z</time>
      </trkpt>
      <trkpt lat="59.075259435921907" lon="30.015764571726322">
        <ele>82.329999999999998</ele>
        <time>2026-04-25T11:34:08Z</time>
      </trkpt>
      <trkpt lat="59.07523169182241" lon="30.015757279470563">
        <ele>81.849999999999994</ele>
        <time>2026-04-25T11:34:21Z</time>
      </trkpt>
      <trkpt lat="59.07521752640605" lon="30.015758201479912">
        <ele>83.769999999999996</ele>
        <time>2026-04-25T11:34:25Z</time>
      </trkpt>
      <trkpt lat="59.075203025713563" lon="30.01575518399477">
        <ele>83.769999999999996</ele>
        <time>2026-04-25T11:34:28Z</time>
      </trkpt>
      <trkpt lat="59.075161535292864" lon="30.015748729929328">
        <ele>83.769999999999996</ele>
        <time>2026-04-25T11:34:40Z</time>
      </trkpt>
      <trkpt lat="59.075154745951295" lon="30.015732636675239">
        <ele>82.329999999999998</ele>
        <time>2026-04-25T11:34:52Z</time>
      </trkpt>
      <trkpt lat="59.07512322999537" lon="30.015693241730332">
        <ele>82.329999999999998</ele>
        <time>2026-04-25T11:34:59Z</time>
      </trkpt>
      <trkpt lat="59.0751061309129" lon="30.015656612813473">
        <ele>82.329999999999998</ele>
        <time>2026-04-25T11:35:11Z</time>
      </trkpt>
      <trkpt lat="59.0751061309129" lon="30.015657534822822">
        <ele>82.329999999999998</ele>
        <time>2026-04-25T11:35:13Z</time>
      </trkpt>
      <trkpt lat="59.075053157284856" lon="30.015677232295275">
        <ele>81.849999999999994</ele>
        <time>2026-04-25T11:35:19Z</time>
      </trkpt>
      <trkpt lat="59.074948634952307" lon="30.015657367184758">
        <ele>83.290000000000006</ele>
        <time>2026-04-25T11:35:32Z</time>
      </trkpt>
      <trkpt lat="59.074923824518919" lon="30.015606237575412">
        <ele>83.290000000000006</ele>
        <time>2026-04-25T11:35:38Z</time>
      </trkpt>
      <trkpt lat="59.074833299964666" lon="30.015617553144693">
        <ele>83.290000000000006</ele>
        <time>2026-04-25T11:35:49Z</time>
      </trkpt>
      <trkpt lat="59.074792983010411" lon="30.015597268939018">
        <ele>83.290000000000006</ele>
        <time>2026-04-25T11:35:59Z</time>
      </trkpt>
      <trkpt lat="59.074751073494554" lon="30.015573631972075">
        <ele>83.290000000000006</ele>
        <time>2026-04-25T11:36:16Z</time>
      </trkpt>
      <trkpt lat="59.074718551710248" lon="30.015584025532007">
        <ele>83.290000000000006</ele>
        <time>2026-04-25T11:36:22Z</time>
      </trkpt>
      <trkpt lat="59.074662560597062" lon="30.015574470162392">
        <ele>83.290000000000006</ele>
        <time>2026-04-25T11:36:32Z</time>
      </trkpt>
      <trkpt lat="59.074600702151656" lon="30.015561981126666">
        <ele>81.849999999999994</ele>
        <time>2026-04-25T11:36:43Z</time>
      </trkpt>
      <trkpt lat="59.074567425996065" lon="30.015541613101959">
        <ele>81.849999999999994</ele>
        <time>2026-04-25T11:36:47Z</time>
      </trkpt>
      <trkpt lat="59.074503388255835" lon="30.015529878437519">
        <ele>83.290000000000006</ele>
        <time>2026-04-25T11:36:55Z</time>
      </trkpt>
      <trkpt lat="59.074497018009424" lon="30.01552501693368">
        <ele>83.290000000000006</ele>
        <time>2026-04-25T11:37:01Z</time>
      </trkpt>
      <trkpt lat="59.074443709105253" lon="30.015518646687269">
        <ele>82.329999999999998</ele>
        <time>2026-04-25T11:37:08Z</time>
      </trkpt>
      <trkpt lat="59.074416467919946" lon="30.015519736334682">
        <ele>82.329999999999998</ele>
        <time>2026-04-25T11:37:11Z</time>
      </trkpt>
      <trkpt lat="59.074331978335977" lon="30.01549425534904">
        <ele>82.329999999999998</ele>
        <time>2026-04-25T11:37:22Z</time>
      </trkpt>
      <trkpt lat="59.074258049950004" lon="30.015339776873589">
        <ele>82.329999999999998</ele>
        <time>2026-04-25T11:37:34Z</time>
      </trkpt>
      <trkpt lat="59.074236340820789" lon="30.015334160998464">
        <ele>82.329999999999998</ele>
        <time>2026-04-25T11:37:37Z</time>
      </trkpt>
      <trkpt lat="59.074156964197755" lon="30.015402138233185">
        <ele>82.329999999999998</ele>
        <time>2026-04-25T11:37:49Z</time>
      </trkpt>
      <trkpt lat="59.074103236198425" lon="30.015444718301296">
        <ele>82.329999999999998</ele>
        <time>2026-04-25T11:37:58Z</time>
      </trkpt>
      <trkpt lat="59.074036348611116" lon="30.015513701364398">
        <ele>83.290000000000006</ele>
        <time>2026-04-25T11:38:10Z</time>
      </trkpt>
      <trkpt lat="59.073991002514958" lon="30.015542786568403">
        <ele>83.290000000000006</ele>
        <time>2026-04-25T11:38:22Z</time>
      </trkpt>
      <trkpt lat="59.07391388900578" lon="30.015605483204126">
        <ele>83.290000000000006</ele>
        <time>2026-04-25T11:38:33Z</time>
      </trkpt>
      <trkpt lat="59.07384792342782" lon="30.015668012201786">
        <ele>83.290000000000006</ele>
        <time>2026-04-25T11:38:41Z</time>
      </trkpt>
      <trkpt lat="59.073815150186419" lon="30.015714280307293">
        <ele>81.849999999999994</ele>
        <time>2026-04-25T11:38:45Z</time>
      </trkpt>
      <trkpt lat="59.073738204315305" lon="30.015805475413799">
        <ele>81.849999999999994</ele>
        <time>2026-04-25T11:38:55Z</time>
      </trkpt>
      <trkpt lat="59.073704341426492" lon="30.015801535919309">
        <ele>83.290000000000006</ele>
        <time>2026-04-25T11:39:00Z</time>
      </trkpt>
      <trkpt lat="59.073688667267561" lon="30.01580991782248">
        <ele>83.290000000000006</ele>
        <time>2026-04-25T11:39:02Z</time>
      </trkpt>
      <trkpt lat="59.073580708354712" lon="30.015929862856865">
        <ele>83.290000000000006</ele>
        <time>2026-04-25T11:39:15Z</time>
      </trkpt>
      <trkpt lat="59.073499403893948" lon="30.016028936952353">
        <ele>83.769999999999996</ele>
        <time>2026-04-25T11:39:27Z</time>
      </trkpt>
      <trkpt lat="59.073494877666235" lon="30.016042347997427">
        <ele>82.810000000000002</ele>
        <time>2026-04-25T11:39:37Z</time>
      </trkpt>
      <trkpt lat="59.073420027270913" lon="30.016185929998755">
        <ele>82.810000000000002</ele>
        <time>2026-04-25T11:39:51Z</time>
      </trkpt>
      <trkpt lat="59.073325982317328" lon="30.016320208087564">
        <ele>82.810000000000002</ele>
        <time>2026-04-25T11:40:05Z</time>
      </trkpt>
      <trkpt lat="59.073292370885611" lon="30.01643193885684">
        <ele>82.810000000000002</ele>
        <time>2026-04-25T11:40:17Z</time>
      </trkpt>
      <trkpt lat="59.073227578774095" lon="30.01658977009356">
        <ele>82.329999999999998</ele>
        <time>2026-04-25T11:40:33Z</time>
      </trkpt>
      <trkpt lat="59.073204025626183" lon="30.016666129231453">
        <ele>81.849999999999994</ele>
        <time>2026-04-25T11:40:40Z</time>
      </trkpt>
      <trkpt lat="59.073185920715332" lon="30.016732094809413">
        <ele>81.849999999999994</ele>
        <time>2026-04-25T11:40:54Z</time>
      </trkpt>
      <trkpt lat="59.0731565002352" lon="30.016921442002058">
        <ele>81.849999999999994</ele>
        <time>2026-04-25T11:41:06Z</time>
      </trkpt>
      <trkpt lat="59.073095312342048" lon="30.017151106148958">
        <ele>81.849999999999994</ele>
        <time>2026-04-25T11:41:19Z</time>
      </trkpt>
      <trkpt lat="59.0730787999928" lon="30.01718295738101">
        <ele>81.370000000000005</ele>
        <time>2026-04-25T11:41:22Z</time>
      </trkpt>
      <trkpt lat="59.073059689253569" lon="30.017232075333595">
        <ele>82.329999999999998</ele>
        <time>2026-04-25T11:41:35Z</time>
      </trkpt>
      <trkpt lat="59.073053235188127" lon="30.017235511913896">
        <ele>82.810000000000002</ele>
        <time>2026-04-25T11:41:49Z</time>
      </trkpt>
      <trkpt lat="59.073011158034205" lon="30.017272727563977">
        <ele>82.810000000000002</ele>
        <time>2026-04-25T11:42:11Z</time>
      </trkpt>
      <trkpt lat="59.072997830808163" lon="30.017289994284511">
        <ele>82.810000000000002</ele>
        <time>2026-04-25T11:42:22Z</time>
      </trkpt>
      <trkpt lat="59.072979222983122" lon="30.01729778945446">
        <ele>81.849999999999994</ele>
        <time>2026-04-25T11:42:24Z</time>
      </trkpt>
      <trkpt lat="59.072942929342389" lon="30.017332993447781">
        <ele>81.849999999999994</ele>
        <time>2026-04-25T11:42:30Z</time>
      </trkpt>
      <trkpt lat="59.072930105030537" lon="30.017358139157295">
        <ele>81.849999999999994</ele>
        <time>2026-04-25T11:42:32Z</time>
      </trkpt>
      <trkpt lat="59.072830192744732" lon="30.017425864934921">
        <ele>81.849999999999994</ele>
        <time>2026-04-25T11:42:42Z</time>
      </trkpt>
      <trkpt lat="59.072814183309674" lon="30.017419578507543">
        <ele>81.849999999999994</ele>
        <time>2026-04-25T11:42:44Z</time>
      </trkpt>
      <trkpt lat="59.072713432833552" lon="30.017472887411714">
        <ele>82.810000000000002</ele>
        <time>2026-04-25T11:42:55Z</time>
      </trkpt>
      <trkpt lat="59.072658866643906" lon="30.017483700066805">
        <ele>81.370000000000005</ele>
        <time>2026-04-25T11:43:09Z</time>
      </trkpt>
      <trkpt lat="59.07263271510601" lon="30.017480850219727">
        <ele>81.370000000000005</ele>
        <time>2026-04-25T11:43:12Z</time>
      </trkpt>
      <trkpt lat="59.07253741286695" lon="30.017454447224736">
        <ele>81.849999999999994</ele>
        <time>2026-04-25T11:43:25Z</time>
      </trkpt>
      <trkpt lat="59.072526097297668" lon="30.017439192160964">
        <ele>81.849999999999994</ele>
        <time>2026-04-25T11:43:27Z</time>
      </trkpt>
      <trkpt lat="59.072478739544749" lon="30.017398288473487">
        <ele>81.849999999999994</ele>
        <time>2026-04-25T11:43:32Z</time>
      </trkpt>
      <trkpt lat="59.072340689599514" lon="30.017416896298528">
        <ele>81.849999999999994</ele>
        <time>2026-04-25T11:43:46Z</time>
      </trkpt>
      <trkpt lat="59.072310598567128" lon="30.017424272373319">
        <ele>81.849999999999994</ele>
        <time>2026-04-25T11:43:49Z</time>
      </trkpt>
      <trkpt lat="59.072261396795511" lon="30.017461236566305">
        <ele>80.890000000000001</ele>
        <time>2026-04-25T11:43:55Z</time>
      </trkpt>
      <trkpt lat="59.072203896939754" lon="30.017472971230745">
        <ele>80.890000000000001</ele>
        <time>2026-04-25T11:44:01Z</time>
      </trkpt>
      <trkpt lat="59.072175230830908" lon="30.017494931817055">
        <ele>80.890000000000001</ele>
        <time>2026-04-25T11:44:04Z</time>
      </trkpt>
      <trkpt lat="59.072146816179156" lon="30.017526196315885">
        <ele>82.329999999999998</ele>
        <time>2026-04-25T11:44:07Z</time>
      </trkpt>
      <trkpt lat="59.072128375992179" lon="30.017603309825063">
        <ele>82.810000000000002</ele>
        <time>2026-04-25T11:44:21Z</time>
      </trkpt>
      <trkpt lat="59.07213281840086" lon="30.017618648707867">
        <ele>81.370000000000005</ele>
        <time>2026-04-25T11:44:24Z</time>
      </trkpt>
      <trkpt lat="59.072130974382162" lon="30.017628874629736">
        <ele>82.810000000000002</ele>
        <time>2026-04-25T11:44:28Z</time>
      </trkpt>
      <trkpt lat="59.07213231548667" lon="30.017666174098849">
        <ele>81.370000000000005</ele>
        <time>2026-04-25T11:44:40Z</time>
      </trkpt>
      <trkpt lat="59.07213625498116" lon="30.017711268737912">
        <ele>82.810000000000002</ele>
        <time>2026-04-25T11:44:43Z</time>
      </trkpt>
      <trkpt lat="59.072139943018556" lon="30.017756866291165">
        <ele>81.370000000000005</ele>
        <time>2026-04-25T11:44:46Z</time>
      </trkpt>
      <trkpt lat="59.072139943018556" lon="30.017908914014697">
        <ele>80.890000000000001</ele>
        <time>2026-04-25T11:45:01Z</time>
      </trkpt>
      <trkpt lat="59.072150504216552" lon="30.017991559579968">
        <ele>80.890000000000001</ele>
        <time>2026-04-25T11:45:05Z</time>
      </trkpt>
      <trkpt lat="59.072152180597186" lon="30.01816070638597">
        <ele>80.890000000000001</ele>
        <time>2026-04-25T11:45:12Z</time>
      </trkpt>
      <trkpt lat="59.072159137576818" lon="30.018214350566268">
        <ele>80.409999999999997</ele>
        <time>2026-04-25T11:45:14Z</time>
      </trkpt>
      <trkpt lat="59.072178918868303" lon="30.018385760486126">
        <ele>80.409999999999997</ele>
        <time>2026-04-25T11:45:24Z</time>
      </trkpt>
      <trkpt lat="59.072208339348435" lon="30.018643420189619">
        <ele>80.409999999999997</ele>
        <time>2026-04-25T11:45:36Z</time>
      </trkpt>
      <trkpt lat="59.072241364046931" lon="30.018918598070741">
        <ele>79.930000000000007</ele>
        <time>2026-04-25T11:45:47Z</time>
      </trkpt>
      <trkpt lat="59.072303809225559" lon="30.019212132319808">
        <ele>80.409999999999997</ele>
        <time>2026-04-25T11:46:01Z</time>
      </trkpt>
      <trkpt lat="59.072328452020884" lon="30.019311541691422">
        <ele>80.409999999999997</ele>
        <time>2026-04-25T11:46:06Z</time>
      </trkpt>
      <trkpt lat="59.072364494204521" lon="30.019411034882069">
        <ele>80.409999999999997</ele>
        <time>2026-04-25T11:46:12Z</time>
      </trkpt>
      <trkpt lat="59.07240891829133" lon="30.019575236365199">
        <ele>80.409999999999997</ele>
        <time>2026-04-25T11:46:20Z</time>
      </trkpt>
      <trkpt lat="59.072423586621881" lon="30.019616642966866">
        <ele>81.370000000000005</ele>
        <time>2026-04-25T11:46:22Z</time>
      </trkpt>
      <trkpt lat="59.072447810322046" lon="30.019681770354509">
        <ele>81.370000000000005</ele>
        <time>2026-04-25T11:46:26Z</time>
      </trkpt>
      <trkpt lat="59.072454683482647" lon="30.019726613536477">
        <ele>79.930000000000007</ele>
        <time>2026-04-25T11:46:28Z</time>
      </trkpt>
      <trkpt lat="59.072488630190492" lon="30.019854521378875">
        <ele>79.450000000000003</ele>
        <time>2026-04-25T11:46:35Z</time>
      </trkpt>
      <trkpt lat="59.072497682645917" lon="30.019992655143142">
        <ele>79.450000000000003</ele>
        <time>2026-04-25T11:46:41Z</time>
      </trkpt>
      <trkpt lat="59.072541519999504" lon="30.020209662616253">
        <ele>79.450000000000003</ele>
        <time>2026-04-25T11:46:54Z</time>
      </trkpt>
      <trkpt lat="59.072574796155095" lon="30.020481487736106">
        <ele>78.969999999999999</ele>
        <time>2026-04-25T11:47:07Z</time>
      </trkpt>
      <trkpt lat="59.072585105895996" lon="30.020581651479006">
        <ele>78.969999999999999</ele>
        <time>2026-04-25T11:47:12Z</time>
      </trkpt>
      <trkpt lat="59.072598852217197" lon="30.02065222710371">
        <ele>78.969999999999999</ele>
        <time>2026-04-25T11:47:15Z</time>
      </trkpt>
      <trkpt lat="59.072615532204509" lon="30.020905444398522">
        <ele>78.969999999999999</ele>
        <time>2026-04-25T11:47:27Z</time>
      </trkpt>
      <trkpt lat="59.072597846388817" lon="30.021172491833568">
        <ele>78.480000000000004</ele>
        <time>2026-04-25T11:47:41Z</time>
      </trkpt>
      <trkpt lat="59.072598516941071" lon="30.021465439349413">
        <ele>78.480000000000004</ele>
        <time>2026-04-25T11:47:55Z</time>
      </trkpt>
      <trkpt lat="59.072594912722707" lon="30.021577086299658">
        <ele>78.480000000000004</ele>
        <time>2026-04-25T11:48:01Z</time>
      </trkpt>
      <trkpt lat="59.072599858045578" lon="30.021616062149405">
        <ele>79.930000000000007</ele>
        <time>2026-04-25T11:48:03Z</time>
      </trkpt>
      <trkpt lat="59.072593320161104" lon="30.021706921979785">
        <ele>79.930000000000007</ele>
        <time>2026-04-25T11:48:08Z</time>
      </trkpt>
      <trkpt lat="59.072599019855261" lon="30.021772384643555">
        <ele>79.930000000000007</ele>
        <time>2026-04-25T11:48:11Z</time>
      </trkpt>
      <trkpt lat="59.072590637952089" lon="30.021819826215506">
        <ele>78.480000000000004</ele>
        <time>2026-04-25T11:48:13Z</time>
      </trkpt>
      <trkpt lat="59.072579992935061" lon="30.022096429020166">
        <ele>79.930000000000007</ele>
        <time>2026-04-25T11:48:27Z</time>
      </trkpt>
      <trkpt lat="59.07256088219583" lon="30.022392980754375">
        <ele>78.969999999999999</ele>
        <time>2026-04-25T11:48:41Z</time>
      </trkpt>
      <trkpt lat="59.072544872760773" lon="30.022594565525651">
        <ele>78.969999999999999</ele>
        <time>2026-04-25T11:48:51Z</time>
      </trkpt>
      <trkpt lat="59.072536490857601" lon="30.022671427577734">
        <ele>78.480000000000004</ele>
        <time>2026-04-25T11:48:58Z</time>
      </trkpt>
      <trkpt lat="59.072539508342743" lon="30.02271912060678">
        <ele>78.480000000000004</ele>
        <time>2026-04-25T11:49:01Z</time>
      </trkpt>
      <trkpt lat="59.072557194158435" lon="30.022824145853519">
        <ele>79.930000000000007</ele>
        <time>2026-04-25T11:49:06Z</time>
      </trkpt>
      <trkpt lat="59.072529198601842" lon="30.023083565756679">
        <ele>78.480000000000004</ele>
        <time>2026-04-25T11:49:18Z</time>
      </trkpt>
      <trkpt lat="59.072528192773461" lon="30.023203175514936">
        <ele>78.480000000000004</ele>
        <time>2026-04-25T11:49:25Z</time>
      </trkpt>
      <trkpt lat="59.072533808648586" lon="30.023272912949324">
        <ele>78.480000000000004</ele>
        <time>2026-04-25T11:49:28Z</time>
      </trkpt>
      <trkpt lat="59.07253741286695" lon="30.023314319550991">
        <ele>78</ele>
        <time>2026-04-25T11:49:30Z</time>
      </trkpt>
      <trkpt lat="59.072554176673293" lon="30.023370059207082">
        <ele>78</ele>
        <time>2026-04-25T11:49:33Z</time>
      </trkpt>
      <trkpt lat="59.07258384861052" lon="30.023692678660154">
        <ele>78</ele>
        <time>2026-04-25T11:49:47Z</time>
      </trkpt>
      <trkpt lat="59.072620142251253" lon="30.024012448266149">
        <ele>79.450000000000003</ele>
        <time>2026-04-25T11:50:01Z</time>
      </trkpt>
      <trkpt lat="59.072640761733055" lon="30.024304557591677">
        <ele>78</ele>
        <time>2026-04-25T11:50:15Z</time>
      </trkpt>
      <trkpt lat="59.072641516104341" lon="30.024413019418716">
        <ele>78</ele>
        <time>2026-04-25T11:50:20Z</time>
      </trkpt>
      <trkpt lat="59.072650149464607" lon="30.024603707715869">
        <ele>77.519999999999996</ele>
        <time>2026-04-25T11:50:31Z</time>
      </trkpt>
      <trkpt lat="59.07266297377646" lon="30.024644862860441">
        <ele>77.519999999999996</ele>
        <time>2026-04-25T11:50:33Z</time>
      </trkpt>
      <trkpt lat="59.07266691327095" lon="30.024688029661775">
        <ele>77.519999999999996</ele>
        <time>2026-04-25T11:50:35Z</time>
      </trkpt>
      <trkpt lat="59.07268300652504" lon="30.024825241416693">
        <ele>77.519999999999996</ele>
        <time>2026-04-25T11:50:42Z</time>
      </trkpt>
      <trkpt lat="59.072739835828543" lon="30.025188513100147">
        <ele>77.519999999999996</ele>
        <time>2026-04-25T11:50:56Z</time>
      </trkpt>
      <trkpt lat="59.072765819728374" lon="30.025369059294462">
        <ele>77.519999999999996</ele>
        <time>2026-04-25T11:51:07Z</time>
      </trkpt>
      <trkpt lat="59.072787780314684" lon="30.02549403347075">
        <ele>77.519999999999996</ele>
        <time>2026-04-25T11:51:13Z</time>
      </trkpt>
      <trkpt lat="59.072818625718355" lon="30.025696791708469">
        <ele>77.519999999999996</ele>
        <time>2026-04-25T11:51:22Z</time>
      </trkpt>
      <trkpt lat="59.072861708700657" lon="30.025890832766891">
        <ele>77.519999999999996</ele>
        <time>2026-04-25T11:51:33Z</time>
      </trkpt>
      <trkpt lat="59.07287310808897" lon="30.02595285885036">
        <ele>77.519999999999996</ele>
        <time>2026-04-25T11:51:36Z</time>
      </trkpt>
      <trkpt lat="59.072894901037216" lon="30.026051430031657">
        <ele>78.969999999999999</ele>
        <time>2026-04-25T11:51:41Z</time>
      </trkpt>
      <trkpt lat="59.072936475276947" lon="30.026342449709773">
        <ele>78.969999999999999</ele>
        <time>2026-04-25T11:51:54Z</time>
      </trkpt>
      <trkpt lat="59.072954077273607" lon="30.026482511311769">
        <ele>78.969999999999999</ele>
        <time>2026-04-25T11:52:01Z</time>
      </trkpt>
      <trkpt lat="59.072963045910001" lon="30.02652894705534">
        <ele>78.969999999999999</ele>
        <time>2026-04-25T11:52:03Z</time>
      </trkpt>
      <trkpt lat="59.073004620149732" lon="30.026857601478696">
        <ele>79.930000000000007</ele>
        <time>2026-04-25T11:52:17Z</time>
      </trkpt>
      <trkpt lat="59.07300990074873" lon="30.026874197646976">
        <ele>79.930000000000007</ele>
        <time>2026-04-25T11:52:18Z</time>
      </trkpt>
      <trkpt lat="59.073022808879614" lon="30.026918202638626">
        <ele>78.480000000000004</ele>
        <time>2026-04-25T11:52:20Z</time>
      </trkpt>
      <trkpt lat="59.07304510474205" lon="30.027219112962484">
        <ele>78.480000000000004</ele>
        <time>2026-04-25T11:52:31Z</time>
      </trkpt>
      <trkpt lat="59.073083745315671" lon="30.027536703273654">
        <ele>78.480000000000004</ele>
        <time>2026-04-25T11:52:48Z</time>
      </trkpt>
      <trkpt lat="59.072980061173439" lon="30.027677435427904">
        <ele>78.480000000000004</ele>
        <time>2026-04-25T11:53:02Z</time>
      </trkpt>
      <trkpt lat="59.072901690378785" lon="30.027703586965799">
        <ele>78.480000000000004</ele>
        <time>2026-04-25T11:53:18Z</time>
      </trkpt>
      <trkpt lat="59.072830863296986" lon="30.027732839807868">
        <ele>78.480000000000004</ele>
        <time>2026-04-25T11:53:29Z</time>
      </trkpt>
      <trkpt lat="59.072805466130376" lon="30.027750609442592">
        <ele>78.480000000000004</ele>
        <time>2026-04-25T11:53:31Z</time>
      </trkpt>
      <trkpt lat="59.072731705382466" lon="30.027774078771472">
        <ele>79.930000000000007</ele>
        <time>2026-04-25T11:53:45Z</time>
      </trkpt>
      <trkpt lat="59.072698345407844" lon="30.027783801779151">
        <ele>78.480000000000004</ele>
        <time>2026-04-25T11:53:48Z</time>
      </trkpt>
      <trkpt lat="59.072529617697001" lon="30.027758488431573">
        <ele>78.480000000000004</ele>
        <time>2026-04-25T11:54:01Z</time>
      </trkpt>
      <trkpt lat="59.072434734553099" lon="30.027805343270302">
        <ele>78.480000000000004</ele>
        <time>2026-04-25T11:54:13Z</time>
      </trkpt>
      <trkpt lat="59.072376480326056" lon="30.027849767357111">
        <ele>78</ele>
        <time>2026-04-25T11:54:24Z</time>
      </trkpt>
      <trkpt lat="59.072336833924055" lon="30.027875164523721">
        <ele>78</ele>
        <time>2026-04-25T11:54:29Z</time>
      </trkpt>
      <trkpt lat="59.072288470342755" lon="30.027884971350431">
        <ele>78.969999999999999</ele>
        <time>2026-04-25T11:54:37Z</time>
      </trkpt>
      <trkpt lat="59.072223091498017" lon="30.027903662994504">
        <ele>78.969999999999999</ele>
        <time>2026-04-25T11:54:44Z</time>
      </trkpt>
      <trkpt lat="59.072123430669308" lon="30.027969796210527">
        <ele>78</ele>
        <time>2026-04-25T11:54:57Z</time>
      </trkpt>
      <trkpt lat="59.07208495773375" lon="30.027973987162113">
        <ele>79.450000000000003</ele>
        <time>2026-04-25T11:55:02Z</time>
      </trkpt>
      <trkpt lat="59.072027876973152" lon="30.027997959405184">
        <ele>79.450000000000003</ele>
        <time>2026-04-25T11:55:15Z</time>
      </trkpt>
      <trkpt lat="59.071987308561802" lon="30.028061578050256">
        <ele>78</ele>
        <time>2026-04-25T11:55:27Z</time>
      </trkpt>
      <trkpt lat="59.071979010477662" lon="30.028070379048586">
        <ele>78</ele>
        <time>2026-04-25T11:55:28Z</time>
      </trkpt>
      <trkpt lat="59.071923019364476" lon="30.028115389868617">
        <ele>78</ele>
        <time>2026-04-25T11:55:46Z</time>
      </trkpt>
      <trkpt lat="59.071762338280678" lon="30.028101727366447">
        <ele>79.450000000000003</ele>
        <time>2026-04-25T11:55:59Z</time>
      </trkpt>
      <trkpt lat="59.071607775986195" lon="30.02813508734107">
        <ele>79.450000000000003</ele>
        <time>2026-04-25T11:56:12Z</time>
      </trkpt>
      <trkpt lat="59.071530578657985" lon="30.02813114784658">
        <ele>79.450000000000003</ele>
        <time>2026-04-25T11:56:19Z</time>
      </trkpt>
      <trkpt lat="59.071493782103062" lon="30.028130393475294">
        <ele>78</ele>
        <time>2026-04-25T11:56:21Z</time>
      </trkpt>
      <trkpt lat="59.07145413570106" lon="30.02813559025526">
        <ele>78</ele>
        <time>2026-04-25T11:56:24Z</time>
      </trkpt>
      <trkpt lat="59.071405185386539" lon="30.028158137574792">
        <ele>78</ele>
        <time>2026-04-25T11:56:28Z</time>
      </trkpt>
      <trkpt lat="59.071319606155157" lon="30.028183786198497">
        <ele>78</ele>
        <time>2026-04-25T11:56:37Z</time>
      </trkpt>
      <trkpt lat="59.071263950318098" lon="30.028213961049914">
        <ele>79.450000000000003</ele>
        <time>2026-04-25T11:56:44Z</time>
      </trkpt>
      <trkpt lat="59.07125087454915" lon="30.028228126466274">
        <ele>79.450000000000003</ele>
        <time>2026-04-25T11:56:47Z</time>
      </trkpt>
      <trkpt lat="59.071101425215602" lon="30.028296019881964">
        <ele>79.450000000000003</ele>
        <time>2026-04-25T11:57:02Z</time>
      </trkpt>
      <trkpt lat="59.071012996137142" lon="30.028342874720693">
        <ele>79.450000000000003</ele>
        <time>2026-04-25T11:57:10Z</time>
      </trkpt>
      <trkpt lat="59.070918951183558" lon="30.028370283544064">
        <ele>79.450000000000003</ele>
        <time>2026-04-25T11:57:15Z</time>
      </trkpt>
      <trkpt lat="59.070807304233313" lon="30.028390483930707">
        <ele>79.450000000000003</ele>
        <time>2026-04-25T11:57:23Z</time>
      </trkpt>
      <trkpt lat="59.070667326450348" lon="30.028446391224861">
        <ele>79.450000000000003</ele>
        <time>2026-04-25T11:57:37Z</time>
      </trkpt>
      <trkpt lat="59.070501532405615" lon="30.028511350974441">
        <ele>79.450000000000003</ele>
        <time>2026-04-25T11:57:52Z</time>
      </trkpt>
      <trkpt lat="59.070507818832994" lon="30.028535993769765">
        <ele>79.450000000000003</ele>
        <time>2026-04-25T11:58:14Z</time>
      </trkpt>
      <trkpt lat="59.070396088063717" lon="30.028577232733369">
        <ele>78.480000000000004</ele>
        <time>2026-04-25T11:58:26Z</time>
      </trkpt>
      <trkpt lat="59.070251667872071" lon="30.028551416471601">
        <ele>79.930000000000007</ele>
        <time>2026-04-25T11:58:37Z</time>
      </trkpt>
      <trkpt lat="59.070153096690774" lon="30.028596678748727">
        <ele>79.930000000000007</ele>
        <time>2026-04-25T11:58:53Z</time>
      </trkpt>
      <trkpt lat="59.070051508024335" lon="30.028634313493967">
        <ele>79.930000000000007</ele>
        <time>2026-04-25T11:59:07Z</time>
      </trkpt>
      <trkpt lat="59.06991396099329" lon="30.028656609356403">
        <ele>79.930000000000007</ele>
        <time>2026-04-25T11:59:19Z</time>
      </trkpt>
      <trkpt lat="59.069839026778936" lon="30.028702206909657">
        <ele>79.930000000000007</ele>
        <time>2026-04-25T11:59:36Z</time>
      </trkpt>
      <trkpt lat="59.069803403690457" lon="30.028729699552059">
        <ele>79.930000000000007</ele>
        <time>2026-04-25T11:59:40Z</time>
      </trkpt>
      <trkpt lat="59.069683207198977" lon="30.028782924637198">
        <ele>80.409999999999997</ele>
        <time>2026-04-25T11:59:47Z</time>
      </trkpt>
      <trkpt lat="59.069501319900155" lon="30.028818128630519">
        <ele>78.480000000000004</ele>
        <time>2026-04-25T12:00:02Z</time>
      </trkpt>
      <trkpt lat="59.069411465898156" lon="30.028858445584774">
        <ele>78.480000000000004</ele>
        <time>2026-04-25T12:00:10Z</time>
      </trkpt>
      <trkpt lat="59.069381961598992" lon="30.028871688991785">
        <ele>78.480000000000004</ele>
        <time>2026-04-25T12:00:28Z</time>
      </trkpt>
      <trkpt lat="59.069319684058428" lon="30.028867414221168">
        <ele>78.480000000000004</ele>
        <time>2026-04-25T12:00:36Z</time>
      </trkpt>
      <trkpt lat="59.069212563335896" lon="30.028895493596792">
        <ele>79.930000000000007</ele>
        <time>2026-04-25T12:00:47Z</time>
      </trkpt>
      <trkpt lat="59.069179370999336" lon="30.028920723125339">
        <ele>79.930000000000007</ele>
        <time>2026-04-25T12:00:55Z</time>
      </trkpt>
      <trkpt lat="59.069044338539243" lon="30.028969086706638">
        <ele>78.969999999999999</ele>
        <time>2026-04-25T12:01:05Z</time>
      </trkpt>
      <trkpt lat="59.068955406546593" lon="30.029032789170742">
        <ele>78.969999999999999</ele>
        <time>2026-04-25T12:01:12Z</time>
      </trkpt>
      <trkpt lat="59.068772764876485" lon="30.029139742255211">
        <ele>78.480000000000004</ele>
        <time>2026-04-25T12:01:26Z</time>
      </trkpt>
      <trkpt lat="59.068560199812055" lon="30.029132617637515">
        <ele>78.480000000000004</ele>
        <time>2026-04-25T12:01:40Z</time>
      </trkpt>
      <trkpt lat="59.068469507619739" lon="30.029163714498281">
        <ele>79.450000000000003</ele>
        <time>2026-04-25T12:01:52Z</time>
      </trkpt>
      <trkpt lat="59.068353334441781" lon="30.029255161061883">
        <ele>78.480000000000004</ele>
        <time>2026-04-25T12:02:07Z</time>
      </trkpt>
      <trkpt lat="59.068306144326925" lon="30.029224399477243">
        <ele>79.450000000000003</ele>
        <time>2026-04-25T12:02:18Z</time>
      </trkpt>
      <trkpt lat="59.068202124908566" lon="30.02923546358943">
        <ele>78.969999999999999</ele>
        <time>2026-04-25T12:02:30Z</time>
      </trkpt>
      <trkpt lat="59.068137835711241" lon="30.029267985373735">
        <ele>79.930000000000007</ele>
        <time>2026-04-25T12:02:41Z</time>
      </trkpt>
      <trkpt lat="59.068011017516255" lon="30.029311319813132">
        <ele>80.890000000000001</ele>
        <time>2026-04-25T12:02:55Z</time>
      </trkpt>
      <trkpt lat="59.067993247881532" lon="30.029332777485251">
        <ele>79.450000000000003</ele>
        <time>2026-04-25T12:02:58Z</time>
      </trkpt>
      <trkpt lat="59.067921414971352" lon="30.029349373653531">
        <ele>78.969999999999999</ele>
        <time>2026-04-25T12:03:12Z</time>
      </trkpt>
      <trkpt lat="59.067868189886212" lon="30.029358342289925">
        <ele>79.930000000000007</ele>
        <time>2026-04-25T12:03:18Z</time>
      </trkpt>
      <trkpt lat="59.06774346716702" lon="30.029353145509958">
        <ele>78.969999999999999</ele>
        <time>2026-04-25T12:03:31Z</time>
      </trkpt>
      <trkpt lat="59.067633245140314" lon="30.029382985085249">
        <ele>79.930000000000007</ele>
        <time>2026-04-25T12:03:42Z</time>
      </trkpt>
      <trkpt lat="59.067550012841821" lon="30.029481053352356">
        <ele>80.409999999999997</ele>
        <time>2026-04-25T12:03:57Z</time>
      </trkpt>
      <trkpt lat="59.067479185760021" lon="30.02955355681479">
        <ele>78.969999999999999</ele>
        <time>2026-04-25T12:04:08Z</time>
      </trkpt>
      <trkpt lat="59.067336022853851" lon="30.029615582898259">
        <ele>78.969999999999999</ele>
        <time>2026-04-25T12:04:22Z</time>
      </trkpt>
      <trkpt lat="59.067225130274892" lon="30.029551712796092">
        <ele>80.409999999999997</ele>
        <time>2026-04-25T12:04:34Z</time>
      </trkpt>
      <trkpt lat="59.067141646519303" lon="30.029629832133651">
        <ele>80.409999999999997</ele>
        <time>2026-04-25T12:04:44Z</time>
      </trkpt>
      <trkpt lat="59.067063611000776" lon="30.029679369181395">
        <ele>80.409999999999997</ele>
        <time>2026-04-25T12:04:56Z</time>
      </trkpt>
      <trkpt lat="59.066960094496608" lon="30.029699569568038">
        <ele>80.409999999999997</ele>
        <time>2026-04-25T12:05:11Z</time>
      </trkpt>
      <trkpt lat="59.066820535808802" lon="30.029729325324297">
        <ele>78.480000000000004</ele>
        <time>2026-04-25T12:05:25Z</time>
      </trkpt>
      <trkpt lat="59.066781308501959" lon="30.029746843501925">
        <ele>79.930000000000007</ele>
        <time>2026-04-25T12:05:40Z</time>
      </trkpt>
      <trkpt lat="59.066767394542694" lon="30.029729409143329">
        <ele>79.930000000000007</ele>
        <time>2026-04-25T12:05:54Z</time>
      </trkpt>
      <trkpt lat="59.06676814891398" lon="30.029737120494246">
        <ele>80.409999999999997</ele>
        <time>2026-04-25T12:06:07Z</time>
      </trkpt>
      <trkpt lat="59.06678382307291" lon="30.029752710834146">
        <ele>80.409999999999997</ele>
        <time>2026-04-25T12:06:27Z</time>
      </trkpt>
      <trkpt lat="59.066791031509638" lon="30.0297343544662">
        <ele>80.890000000000001</ele>
        <time>2026-04-25T12:06:51Z</time>
      </trkpt>
      <trkpt lat="59.066785918548703" lon="30.029732929542661">
        <ele>79.450000000000003</ele>
        <time>2026-04-25T12:06:57Z</time>
      </trkpt>
      <trkpt lat="59.06673151999712" lon="30.02973242662847">
        <ele>79.450000000000003</ele>
        <time>2026-04-25T12:07:10Z</time>
      </trkpt>
      <trkpt lat="59.066666979342699" lon="30.029733935371041">
        <ele>78.969999999999999</ele>
        <time>2026-04-25T12:07:21Z</time>
      </trkpt>
      <trkpt lat="59.066592799499631" lon="30.029684901237488">
        <ele>79.930000000000007</ele>
        <time>2026-04-25T12:07:36Z</time>
      </trkpt>
      <trkpt lat="59.06650529243052" lon="30.02972848713398">
        <ele>79.930000000000007</ele>
        <time>2026-04-25T12:07:51Z</time>
      </trkpt>
      <trkpt lat="59.066458605229855" lon="30.02974365837872">
        <ele>79.930000000000007</ele>
        <time>2026-04-25T12:08:03Z</time>
      </trkpt>
      <trkpt lat="59.066390879452229" lon="30.029736030846834">
        <ele>79.930000000000007</ele>
        <time>2026-04-25T12:08:17Z</time>
      </trkpt>
      <trkpt lat="59.066350562497973" lon="30.029792608693242">
        <ele>78.969999999999999</ele>
        <time>2026-04-25T12:08:23Z</time>
      </trkpt>
      <trkpt lat="59.066329775378108" lon="30.029811216518283">
        <ele>79.930000000000007</ele>
        <time>2026-04-25T12:08:26Z</time>
      </trkpt>
      <trkpt lat="59.066267246380448" lon="30.029872488230467">
        <ele>78.969999999999999</ele>
        <time>2026-04-25T12:08:36Z</time>
      </trkpt>
      <trkpt lat="59.066243190318346" lon="30.029891766607761">
        <ele>78.969999999999999</ele>
        <time>2026-04-25T12:08:38Z</time>
      </trkpt>
      <trkpt lat="59.066175129264593" lon="30.029957732185721">
        <ele>78.969999999999999</ele>
        <time>2026-04-25T12:08:50Z</time>
      </trkpt>
      <trkpt lat="59.066176805645227" lon="30.029963683336973">
        <ele>78.969999999999999</ele>
        <time>2026-04-25T12:08:52Z</time>
      </trkpt>
      <trkpt lat="59.066122826188803" lon="30.029989834874868">
        <ele>78.969999999999999</ele>
        <time>2026-04-25T12:09:04Z</time>
      </trkpt>
      <trkpt lat="59.06604303047061" lon="30.030014561489224">
        <ele>78.969999999999999</ele>
        <time>2026-04-25T12:09:17Z</time>
      </trkpt>
      <trkpt lat="59.06600640155375" lon="30.029994947835803">
        <ele>78.969999999999999</ele>
        <time>2026-04-25T12:09:28Z</time>
      </trkpt>
      <trkpt lat="59.065984524786472" lon="30.030006682500243">
        <ele>78.969999999999999</ele>
        <time>2026-04-25T12:09:36Z</time>
      </trkpt>
      <trkpt lat="59.065925097092986" lon="30.029977429658175">
        <ele>78.969999999999999</ele>
        <time>2026-04-25T12:09:47Z</time>
      </trkpt>
      <trkpt lat="59.065878577530384" lon="30.03000752069056">
        <ele>78.969999999999999</ele>
        <time>2026-04-25T12:09:59Z</time>
      </trkpt>
      <trkpt lat="59.065729966387153" lon="30.030126878991723">
        <ele>78.969999999999999</ele>
        <time>2026-04-25T12:10:12Z</time>
      </trkpt>
      <trkpt lat="59.065649164840579" lon="30.030205920338631">
        <ele>78.969999999999999</ele>
        <time>2026-04-25T12:10:24Z</time>
      </trkpt>
      <trkpt lat="59.065674897283316" lon="30.030368529260159">
        <ele>78.969999999999999</ele>
        <time>2026-04-25T12:10:37Z</time>
      </trkpt>
      <trkpt lat="59.065732480958104" lon="30.03041404299438">
        <ele>78.969999999999999</ele>
        <time>2026-04-25T12:10:51Z</time>
      </trkpt>
      <trkpt lat="59.065813617780805" lon="30.03044337965548">
        <ele>78.969999999999999</ele>
        <time>2026-04-25T12:11:06Z</time>
      </trkpt>
      <trkpt lat="59.065919816493988" lon="30.030465591698885">
        <ele>78.969999999999999</ele>
        <time>2026-04-25T12:11:22Z</time>
      </trkpt>
      <trkpt lat="59.065960217267275" lon="30.030487719923258">
        <ele>78.969999999999999</ele>
        <time>2026-04-25T12:11:26Z</time>
      </trkpt>
      <trkpt lat="59.066048813983798" lon="30.030457377433777">
        <ele>78.480000000000004</ele>
        <time>2026-04-25T12:11:41Z</time>
      </trkpt>
      <trkpt lat="59.066084520891309" lon="30.030372133478522">
        <ele>79.930000000000007</ele>
        <time>2026-04-25T12:11:54Z</time>
      </trkpt>
      <trkpt lat="59.066158533096313" lon="30.030263001099229">
        <ele>79.930000000000007</ele>
        <time>2026-04-25T12:12:10Z</time>
      </trkpt>
      <trkpt lat="59.066161969676614" lon="30.030242800712585">
        <ele>78.480000000000004</ele>
        <time>2026-04-25T12:12:13Z</time>
      </trkpt>
      <trkpt lat="59.066161047667265" lon="30.030159903690219">
        <ele>78.480000000000004</ele>
        <time>2026-04-25T12:12:23Z</time>
      </trkpt>
      <trkpt lat="59.066141853109002" lon="30.030095111578703">
        <ele>79.930000000000007</ele>
        <time>2026-04-25T12:12:34Z</time>
      </trkpt>
      <trkpt lat="59.066112516447902" lon="30.030082790181041">
        <ele>78</ele>
        <time>2026-04-25T12:12:54Z</time>
      </trkpt>
      <trkpt lat="59.066106649115682" lon="30.03006367944181">
        <ele>78.969999999999999</ele>
        <time>2026-04-25T12:13:16Z</time>
      </trkpt>
      <trkpt lat="59.066109918057919" lon="30.030065104365349">
        <ele>78</ele>
        <time>2026-04-25T12:13:21Z</time>
      </trkpt>
      <trkpt lat="59.066114611923695" lon="30.030025290325284">
        <ele>78.969999999999999</ele>
        <time>2026-04-25T12:13:41Z</time>
      </trkpt>
      <trkpt lat="59.066077983006835" lon="30.030039623379707">
        <ele>78.969999999999999</ele>
        <time>2026-04-25T12:13:53Z</time>
      </trkpt>
      <trkpt lat="59.065999193117023" lon="30.030073737725616">
        <ele>78.969999999999999</ele>
        <time>2026-04-25T12:14:05Z</time>
      </trkpt>
      <trkpt lat="59.065982429310679" lon="30.030058147385716">
        <ele>78.969999999999999</ele>
        <time>2026-04-25T12:14:22Z</time>
      </trkpt>
      <trkpt lat="59.065968515351415" lon="30.030055129900575">
        <ele>78.969999999999999</ele>
        <time>2026-04-25T12:14:40Z</time>
      </trkpt>
      <trkpt lat="59.065955942496657" lon="30.03006661310792">
        <ele>78.969999999999999</ele>
        <time>2026-04-25T12:14:59Z</time>
      </trkpt>
      <trkpt lat="59.065947979688644" lon="30.030062673613429">
        <ele>78.969999999999999</ele>
        <time>2026-04-25T12:15:27Z</time>
      </trkpt>
      <trkpt lat="59.065956780686975" lon="30.030086981132627">
        <ele>78</ele>
        <time>2026-04-25T12:15:50Z</time>
      </trkpt>
      <trkpt lat="59.065959546715021" lon="30.030102822929621">
        <ele>78.969999999999999</ele>
        <time>2026-04-25T12:15:54Z</time>
      </trkpt>
      <trkpt lat="59.065965497866273" lon="30.030147833749652">
        <ele>79.930000000000007</ele>
        <time>2026-04-25T12:16:11Z</time>
      </trkpt>
      <trkpt lat="59.065962396562099" lon="30.030144564807415">
        <ele>78.969999999999999</ele>
        <time>2026-04-25T12:16:32Z</time>
      </trkpt>
      <trkpt lat="59.065957870334387" lon="30.03014774993062">
        <ele>78.969999999999999</ele>
        <time>2026-04-25T12:16:49Z</time>
      </trkpt>
      <trkpt lat="59.065960384905338" lon="30.03015068359673">
        <ele>78.969999999999999</ele>
        <time>2026-04-25T12:17:08Z</time>
      </trkpt>
      <trkpt lat="59.065963234752417" lon="30.030129896476865">
        <ele>79.930000000000007</ele>
        <time>2026-04-25T12:17:28Z</time>
      </trkpt>
      <trkpt lat="59.065964240580797" lon="30.030127884820104">
        <ele>78.480000000000004</ele>
        <time>2026-04-25T12:17:34Z</time>
      </trkpt>
      <trkpt lat="59.065964827314019" lon="30.030125789344311">
        <ele>78.480000000000004</ele>
        <time>2026-04-25T12:17:54Z</time>
      </trkpt>
      <trkpt lat="59.065965246409178" lon="30.030122436583042">
        <ele>79.930000000000007</ele>
        <time>2026-04-25T12:18:05Z</time>
      </trkpt>
      <trkpt lat="59.06595217064023" lon="30.030127801001072">
        <ele>78.969999999999999</ele>
        <time>2026-04-25T12:18:15Z</time>
      </trkpt>
      <trkpt lat="59.065926522016525" lon="30.030085891485214">
        <ele>78</ele>
        <time>2026-04-25T12:18:26Z</time>
      </trkpt>
      <trkpt lat="59.065876146778464" lon="30.030048424378037">
        <ele>78</ele>
        <time>2026-04-25T12:18:39Z</time>
      </trkpt>
      <trkpt lat="59.065859718248248" lon="30.030049681663513">
        <ele>78</ele>
        <time>2026-04-25T12:18:41Z</time>
      </trkpt>
      <trkpt lat="59.065723093226552" lon="30.030117575079203">
        <ele>78</ele>
        <time>2026-04-25T12:18:50Z</time>
      </trkpt>
      <trkpt lat="59.065641034394503" lon="30.030166190117598">
        <ele>78</ele>
        <time>2026-04-25T12:18:57Z</time>
      </trkpt>
      <trkpt lat="59.065523939207196" lon="30.030227042734623">
        <ele>78</ele>
        <time>2026-04-25T12:19:07Z</time>
      </trkpt>
      <trkpt lat="59.065428134053946" lon="30.030252188444138">
        <ele>78</ele>
        <time>2026-04-25T12:19:18Z</time>
      </trkpt>
      <trkpt lat="59.06538974493742" lon="30.030248081311584">
        <ele>78</ele>
        <time>2026-04-25T12:19:22Z</time>
      </trkpt>
      <trkpt lat="59.065273823216558" lon="30.030285632237792">
        <ele>78</ele>
        <time>2026-04-25T12:19:31Z</time>
      </trkpt>
      <trkpt lat="59.065167456865311" lon="30.030327625572681">
        <ele>78</ele>
        <time>2026-04-25T12:19:40Z</time>
      </trkpt>
      <trkpt lat="59.06503988429904" lon="30.030365008860826">
        <ele>78.969999999999999</ele>
        <time>2026-04-25T12:19:50Z</time>
      </trkpt>
      <trkpt lat="59.064961848780513" lon="30.030395016074181">
        <ele>78</ele>
        <time>2026-04-25T12:20:04Z</time>
      </trkpt>
      <trkpt lat="59.064938463270664" lon="30.030420245602727">
        <ele>78</ele>
        <time>2026-04-25T12:20:23Z</time>
      </trkpt>
      <trkpt lat="59.064906109124422" lon="30.030443295836449">
        <ele>78</ele>
        <time>2026-04-25T12:20:34Z</time>
      </trkpt>
      <trkpt lat="59.064871994778514" lon="30.030461149290204">
        <ele>78</ele>
        <time>2026-04-25T12:20:38Z</time>
      </trkpt>
      <trkpt lat="59.064735872671008" lon="30.030506663024426">
        <ele>78</ele>
        <time>2026-04-25T12:20:51Z</time>
      </trkpt>
      <trkpt lat="59.064706955105066" lon="30.03053130581975">
        <ele>78</ele>
        <time>2026-04-25T12:20:54Z</time>
      </trkpt>
      <trkpt lat="59.064656747505069" lon="30.030536083504558">
        <ele>78</ele>
        <time>2026-04-25T12:20:57Z</time>
      </trkpt>
      <trkpt lat="59.064588099718094" lon="30.030558463186026">
        <ele>78</ele>
        <time>2026-04-25T12:21:02Z</time>
      </trkpt>
      <trkpt lat="59.064383497461677" lon="30.030573131516576">
        <ele>78</ele>
        <time>2026-04-25T12:21:17Z</time>
      </trkpt>
      <trkpt lat="59.064374528825283" lon="30.030611017718911">
        <ele>77.519999999999996</ele>
        <time>2026-04-25T12:21:29Z</time>
      </trkpt>
      <trkpt lat="59.064276963472366" lon="30.030649490654469">
        <ele>77.519999999999996</ele>
        <time>2026-04-25T12:21:39Z</time>
      </trkpt>
      <trkpt lat="59.064221978187561" lon="30.030660051852465">
        <ele>77.519999999999996</ele>
        <time>2026-04-25T12:21:51Z</time>
      </trkpt>
      <trkpt lat="59.064219295978546" lon="30.030674552544951">
        <ele>77.519999999999996</ele>
        <time>2026-04-25T12:21:52Z</time>
      </trkpt>
      <trkpt lat="59.06419456936419" lon="30.030713025480509">
        <ele>77.519999999999996</ele>
        <time>2026-04-25T12:21:58Z</time>
      </trkpt>
      <trkpt lat="59.064054926857352" lon="30.030732471495867">
        <ele>77.519999999999996</ele>
        <time>2026-04-25T12:22:09Z</time>
      </trkpt>
      <trkpt lat="59.064033888280392" lon="30.030775051563978">
        <ele>78.480000000000004</ele>
        <time>2026-04-25T12:22:25Z</time>
      </trkpt>
      <trkpt lat="59.06403380446136" lon="30.030777733772993">
        <ele>76.560000000000002</ele>
        <time>2026-04-25T12:22:31Z</time>
      </trkpt>
      <trkpt lat="59.064013352617621" lon="30.030756527557969">
        <ele>78</ele>
        <time>2026-04-25T12:22:43Z</time>
      </trkpt>
      <trkpt lat="59.064001115038991" lon="30.030756359919906">
        <ele>78.480000000000004</ele>
        <time>2026-04-25T12:22:45Z</time>
      </trkpt>
      <trkpt lat="59.063902879133821" lon="30.030765244737267">
        <ele>78</ele>
        <time>2026-04-25T12:22:57Z</time>
      </trkpt>
      <trkpt lat="59.063869435340166" lon="30.03080396912992">
        <ele>77.519999999999996</ele>
        <time>2026-04-25T12:23:07Z</time>
      </trkpt>
      <trkpt lat="59.063811600208282" lon="30.030809417366982">
        <ele>77.519999999999996</ele>
        <time>2026-04-25T12:23:16Z</time>
      </trkpt>
      <trkpt lat="59.063807493075728" lon="30.030784858390689">
        <ele>77.519999999999996</ele>
        <time>2026-04-25T12:23:24Z</time>
      </trkpt>
      <trkpt lat="59.063748149201274" lon="30.030809668824077">
        <ele>77.519999999999996</ele>
        <time>2026-04-25T12:23:34Z</time>
      </trkpt>
      <trkpt lat="59.063709089532495" lon="30.030809585005045">
        <ele>77.519999999999996</ele>
        <time>2026-04-25T12:23:49Z</time>
      </trkpt>
      <trkpt lat="59.063703138381243" lon="30.030813608318567">
        <ele>77.040000000000006</ele>
        <time>2026-04-25T12:23:50Z</time>
      </trkpt>
      <trkpt lat="59.063594676554203" lon="30.03085870295763">
        <ele>78</ele>
        <time>2026-04-25T12:23:58Z</time>
      </trkpt>
      <trkpt lat="59.063517060130835" lon="30.030882088467479">
        <ele>79.450000000000003</ele>
        <time>2026-04-25T12:24:07Z</time>
      </trkpt>
      <trkpt lat="59.063517898321152" lon="30.030881334096193">
        <ele>78.480000000000004</ele>
        <time>2026-04-25T12:24:09Z</time>
      </trkpt>
      <trkpt lat="59.063496021553874" lon="30.030884351581335">
        <ele>78.480000000000004</ele>
        <time>2026-04-25T12:24:14Z</time>
      </trkpt>
      <trkpt lat="59.063444975763559" lon="30.030901366844773">
        <ele>79.450000000000003</ele>
        <time>2026-04-25T12:24:17Z</time>
      </trkpt>
    </trkseg>
  </trk>

</gpx>